[[{"header":{"parameterUnit":"m.s-1","parameterCategory":1,"la1":30.6,"la2":29.2853,"lo1":-89.7004,"lo2":-87.6739,"dy":0.0162,"dx":0.0183,"nx":112,"ny":82,"refTime":"2023-07-14T00:00:00:Z","depth":0,"parameterNumber":2,"parameterNumberName":"U-component_of_WINDS"},"data":[0.0,0.0,0.0,0.0,0.0,0.0,0.0,0.0,0.0,0.0,0.0,0.0,0.0,0.0,0.0,0.0,0.0,0.0,0.0,0.0,0.0,0.0,0.0,0.0,0.0,0.0,0.0,0.0,0.0,0.0,0.0,0.0,0.0,0.0,0.0,0.0,0.0,0.0,0.0,0.0,0.0,0.0,0.0,0.0,0.0,0.0,0.0,0.0,0.0,0.0,0.0,0.0,0.0,0.0,0.0,0.0,0.0,0.0,0.0,0.0,0.0,0.0,0.0,0.0,0.0,0.0,0.0,0.0,0.0,0.0,0.0,0.0,0.0,0.0,0.0,0.0,0.0,0.0,0.0,0.0,0.0,0.0,0.0,0.0,0.0,0.0,0.0,0.0,0.0,0.0,-1.7472,-1.831,-2.0303,-2.1866,-2.2552,-2.2328,-2.2106,-2.2025,0.0,0.0,0.0,0.0,0.0,0.0,0.0,0.0,0.0,0.0,0.0,0.0,0.0,0.0,0.0,0.0,0.0,0.0,0.0,0.0,0.0,0.0,0.0,0.0,0.0,0.0,0.0,0.0,0.0,0.0,0.0,0.0,0.0,0.0,0.0,0.0,0.0,0.0,0.0,0.0,0.0,0.0,0.0,0.0,0.0,0.0,0.0,0.0,0.0,0.0,0.0,0.0,0.0,0.0,0.0,0.0,0.0,0.0,0.0,0.0,0.0,0.0,0.0,0.0,0.0,0.0,0.0,0.0,0.0,0.0,0.0,0.0,0.0,0.0,0.0,0.0,0.0,0.0,0.0,0.0,0.0,0.0,0.0,0.0,0.0,0.0,0.0,0.0,0.0,0.0,0.0,0.0,0.0,0.0,0.0,0.0,0.0,0.0,0.0,0.0,0.0,0.0,0.0,0.0,-1.8122,-1.9935,-2.1749,-2.2696,-2.2306,-2.2885,-2.2801,-2.1728,0.0,0.0,0.0,0.0,0.0,0.0,0.0,0.0,0.0,0.0,0.0,0.0,0.0,0.0,0.0,0.0,0.0,0.0,0.0,0.0,0.0,0.0,0.0,0.0,0.0,0.0,0.0,0.0,0.0,0.0,0.0,0.0,0.0,0.0,0.0,0.0,0.0,0.0,0.0,0.0,0.0,0.0,0.0,0.0,0.0,0.0,0.0,0.0,0.0,0.0,0.0,0.0,0.0,0.0,0.0,0.0,0.0,0.0,0.0,0.0,0.0,0.0,0.0,0.0,0.0,0.0,0.0,0.0,0.0,0.0,0.0,0.0,0.0,0.0,0.0,0.0,0.0,0.0,0.0,0.0,0.0,0.0,0.0,0.0,0.0,0.0,0.0,0.0,0.0,0.0,0.0,0.0,0.0,0.0,0.0,0.0,0.0,0.0,0.0,0.0,0.0,0.0,0.0,-1.8023,-1.9124,-2.082,-2.2059,-2.2817,-2.295,-2.308,-2.2935,-2.2348,-2.1279,0.0,0.0,0.0,0.0,0.0,0.0,0.0,0.0,0.0,0.0,0.0,0.0,0.0,0.0,0.0,0.0,0.0,0.0,0.0,0.0,0.0,0.0,0.0,0.0,0.0,0.0,0.0,0.0,0.0,0.0,0.0,0.0,0.0,0.0,0.0,0.0,0.0,0.0,0.0,0.0,0.0,0.0,0.0,0.0,0.0,0.0,0.0,0.0,0.0,0.0,0.0,0.0,0.0,0.0,0.0,0.0,0.0,0.0,0.0,0.0,0.0,0.0,0.0,0.0,0.0,0.0,0.0,0.0,0.0,0.0,0.0,0.0,0.0,0.0,0.0,0.0,0.0,0.0,0.0,0.0,0.0,0.0,0.0,0.0,0.0,0.0,0.0,0.0,0.0,0.0,0.0,0.0,0.0,0.0,0.0,0.0,0.0,0.0,0.0,0.0,0.0,0.0,-1.8929,-1.9954,-2.1358,-2.2219,-2.2916,-2.3499,-2.3241,-2.2984,-2.287,-2.1703,0.0,0.0,0.0,0.0,0.0,0.0,0.0,0.0,0.0,0.0,0.0,0.0,0.0,0.0,0.0,0.0,0.0,0.0,0.0,0.0,0.0,0.0,0.0,0.0,0.0,0.0,0.0,0.0,0.0,0.0,0.0,0.0,0.0,0.0,0.0,0.0,0.0,0.0,0.0,0.0,0.0,0.0,0.0,0.0,0.0,0.0,0.0,0.0,0.0,0.0,0.0,0.0,0.0,0.0,0.0,0.0,0.0,0.0,0.0,0.0,0.0,0.0,0.0,0.0,0.0,0.0,0.0,0.0,0.0,0.0,0.0,0.0,0.0,0.0,0.0,0.0,0.0,0.0,0.0,0.0,0.0,0.0,0.0,0.0,0.0,0.0,0.0,0.0,0.0,0.0,0.0,0.0,0.0,0.0,0.0,0.0,0.0,0.0,0.0,0.0,0.0,0.0,-1.9347,-2.03,-2.1725,-2.2704,-2.3291,-2.3411,-2.3511,-2.3299,-2.2746,-2.1464,0.0,0.0,0.0,0.0,0.0,0.0,0.0,0.0,0.0,0.0,0.0,0.0,0.0,0.0,0.0,0.0,0.0,0.0,0.0,0.0,0.0,0.0,0.0,0.0,0.0,0.0,0.0,0.0,0.0,0.0,0.0,0.0,0.0,0.0,0.0,0.0,0.0,0.0,0.0,0.0,0.0,0.0,0.0,0.0,0.0,0.0,0.0,0.0,0.0,0.0,0.0,0.0,0.0,0.0,0.0,0.0,0.0,0.0,0.0,0.0,0.0,0.0,0.0,0.0,0.0,0.0,0.0,0.0,0.0,0.0,0.0,0.0,0.0,0.0,0.0,0.0,0.0,0.0,0.0,0.0,0.0,0.0,0.0,0.0,0.0,0.0,0.0,0.0,0.0,0.0,0.0,0.0,0.0,0.0,0.0,0.0,0.0,0.0,0.0,0.0,0.0,0.0,-1.9726,-2.0804,0.0,-2.2991,-2.3702,-2.412,-2.3852,-2.3406,-2.2799,0.0,0.0,0.0,0.0,0.0,0.0,0.0,0.0,0.0,0.0,0.0,0.0,0.0,0.0,0.0,0.0,0.0,0.0,0.0,0.0,0.0,0.0,0.0,0.0,0.0,0.0,0.0,0.0,0.0,0.0,0.0,0.0,0.0,0.0,0.0,0.0,0.0,0.0,0.0,0.0,0.0,0.0,0.0,0.0,0.0,0.0,0.0,0.0,0.0,0.0,0.0,0.0,0.0,0.0,0.0,0.0,0.0,0.0,0.0,0.0,0.0,0.0,0.0,0.0,0.0,0.0,0.0,0.0,0.0,0.0,0.0,0.0,0.0,0.0,0.0,0.0,0.0,0.0,0.0,0.0,0.0,0.0,0.0,0.0,0.0,0.0,0.0,0.0,0.0,0.0,0.0,0.0,0.0,0.0,0.0,0.0,0.0,0.0,0.0,0.0,0.0,0.0,-1.9033,-2.0016,-2.1134,0.0,-2.3113,-2.3755,-2.4381,-2.3904,-2.3293,-2.271,0.0,0.0,0.0,0.0,0.0,0.0,0.0,0.0,0.0,0.0,0.0,0.0,0.0,0.0,0.0,0.0,0.0,0.0,0.0,0.0,0.0,0.0,0.0,0.0,0.0,0.0,0.0,0.0,0.0,0.0,0.0,0.0,0.0,0.0,0.0,0.0,0.0,0.0,0.0,0.0,0.0,0.0,0.0,0.0,0.0,0.0,0.0,0.0,0.0,0.0,0.0,0.0,0.0,0.0,0.0,0.0,0.0,0.0,0.0,0.0,0.0,0.0,0.0,0.0,0.0,0.0,0.0,0.0,0.0,0.0,0.0,0.0,0.0,0.0,0.0,0.0,0.0,0.0,0.0,0.0,0.0,0.0,0.0,0.0,0.0,0.0,0.0,0.0,0.0,0.0,0.0,0.0,0.0,0.0,0.0,0.0,0.0,0.0,0.0,0.0,0.0,0.0,-1.9402,-2.0246,-2.1283,-2.2825,-2.301,-2.3301,-2.4021,-2.355,-2.2975,0.0,0.0,0.0,0.0,0.0,0.0,0.0,0.0,0.0,0.0,0.0,0.0,0.0,0.0,0.0,0.0,0.0,0.0,0.0,0.0,0.0,0.0,0.0,0.0,0.0,0.0,0.0,0.0,0.0,0.0,0.0,0.0,0.0,0.0,0.0,0.0,0.0,0.0,0.0,0.0,0.0,0.0,0.0,0.0,0.0,0.0,0.0,0.0,0.0,0.0,0.0,0.0,0.0,0.0,0.0,0.0,0.0,0.0,0.0,0.0,0.0,0.0,0.0,0.0,0.0,0.0,0.0,0.0,0.0,0.0,0.0,0.0,0.0,0.0,0.0,0.0,0.0,0.0,0.0,0.0,0.0,0.0,0.0,0.0,0.0,0.0,0.0,0.0,0.0,0.0,0.0,0.0,0.0,0.0,0.0,0.0,0.0,0.0,0.0,0.0,0.0,0.0,0.0,-1.957,-2.048,-2.135,-2.2275,-2.2778,-2.3158,-2.3382,-2.3213,-2.2912,-2.2353,0.0,0.0,0.0,0.0,0.0,0.0,0.0,0.0,0.0,0.0,0.0,0.0,0.0,0.0,0.0,0.0,0.0,0.0,0.0,0.0,0.0,0.0,0.0,0.0,0.0,0.0,0.0,0.0,0.0,0.0,0.0,0.0,0.0,0.0,0.0,0.0,0.0,0.0,0.0,0.0,0.0,0.0,0.0,0.0,0.0,0.0,0.0,0.0,0.0,0.0,0.0,0.0,0.0,0.0,0.0,0.0,0.0,0.0,0.0,0.0,0.0,0.0,0.0,0.0,0.0,0.0,0.0,0.0,0.0,0.0,0.0,0.0,0.0,0.0,0.0,0.0,0.0,0.0,0.0,0.0,0.0,0.0,0.0,0.0,0.0,0.0,0.0,0.0,0.0,0.0,0.0,0.0,0.0,0.0,0.0,0.0,0.0,0.0,0.0,0.0,0.0,0.0,-1.9925,-2.0699,-2.1458,-2.245,-2.2911,-2.3158,-2.3262,-2.3262,-2.2927,-2.2155,0.0,0.0,0.0,0.0,0.0,0.0,0.0,0.0,0.0,0.0,0.0,0.0,0.0,0.0,0.0,0.0,0.0,0.0,0.0,0.0,0.0,0.0,0.0,0.0,0.0,0.0,0.0,0.0,0.0,0.0,0.0,0.0,0.0,0.0,0.0,0.0,0.0,0.0,0.0,0.0,0.0,0.0,0.0,0.0,0.0,0.0,0.0,0.0,0.0,0.0,0.0,0.0,0.0,0.0,0.0,0.0,0.0,0.0,0.0,0.0,0.0,0.0,0.0,0.0,0.0,0.0,0.0,0.0,0.0,0.0,0.0,0.0,0.0,0.0,0.0,0.0,0.0,0.0,0.0,0.0,0.0,0.0,0.0,0.0,0.0,0.0,0.0,0.0,0.0,0.0,0.0,0.0,0.0,0.0,0.0,0.0,0.0,0.0,0.0,0.0,0.0,0.0,-2.0426,-2.0904,-2.1641,-2.3003,-2.32,-2.3264,-2.3467,-2.3467,-2.3014,-2.1932,0.0,0.0,0.0,0.0,0.0,0.0,0.0,0.0,0.0,0.0,0.0,0.0,0.0,0.0,0.0,0.0,0.0,0.0,0.0,0.0,0.0,0.0,0.0,0.0,0.0,0.0,0.0,0.0,0.0,0.0,0.0,0.0,0.0,0.0,0.0,0.0,0.0,0.0,0.0,0.0,0.0,0.0,0.0,0.0,0.0,0.0,0.0,0.0,0.0,0.0,0.0,0.0,0.0,0.0,0.0,0.0,0.0,0.0,0.0,0.0,-1.664,0.0,0.0,0.0,0.0,0.0,0.0,0.0,0.0,0.0,0.0,0.0,0.0,0.0,0.0,0.0,0.0,0.0,0.0,0.0,0.0,0.0,0.0,0.0,0.0,0.0,0.0,0.0,0.0,0.0,0.0,0.0,0.0,0.0,0.0,0.0,0.0,0.0,0.0,0.0,0.0,0.0,-2.066,-2.1029,-2.1632,-2.2854,-2.3105,-2.3216,-2.325,-2.325,-2.2977,-2.2305,-2.1879,0.0,0.0,0.0,0.0,0.0,0.0,0.0,0.0,0.0,0.0,0.0,0.0,0.0,0.0,0.0,0.0,0.0,0.0,0.0,0.0,0.0,0.0,0.0,0.0,0.0,0.0,0.0,0.0,0.0,0.0,0.0,0.0,0.0,0.0,0.0,0.0,0.0,0.0,0.0,0.0,0.0,0.0,0.0,0.0,0.0,0.0,0.0,0.0,0.0,0.0,0.0,0.0,0.0,0.0,0.0,0.0,0.0,0.0,0.0,0.0,-1.7398,0.0,0.0,0.0,0.0,0.0,0.0,0.0,0.0,0.0,0.0,0.0,0.0,0.0,0.0,0.0,0.0,0.0,0.0,0.0,0.0,0.0,0.0,0.0,0.0,0.0,0.0,0.0,0.0,0.0,0.0,0.0,0.0,0.0,0.0,0.0,0.0,0.0,0.0,0.0,0.0,-2.0886,-2.1319,-2.1834,-2.2753,-2.3018,-2.3202,-2.3282,-2.3317,-2.3062,-2.2528,-2.2029,0.0,0.0,0.0,0.0,0.0,0.0,0.0,0.0,0.0,0.0,0.0,0.0,0.0,0.0,0.0,0.0,0.0,0.0,0.0,0.0,0.0,0.0,0.0,0.0,0.0,0.0,0.0,0.0,0.0,0.0,0.0,0.0,0.0,0.0,0.0,0.0,0.0,0.0,0.0,0.0,0.0,0.0,0.0,0.0,0.0,0.0,0.0,0.0,0.0,0.0,0.0,0.0,0.0,-1.7605,-1.7881,-1.8429,-1.8429,-1.8947,-1.9774,-1.9029,-1.8504,-1.8154,-1.7615,0.0,0.0,0.0,0.0,0.0,0.0,0.0,0.0,0.0,0.0,0.0,0.0,0.0,0.0,0.0,0.0,0.0,0.0,0.0,0.0,0.0,0.0,-1.7388,-1.8255,-1.8354,-1.819,-1.7936,0.0,0.0,0.0,0.0,0.0,0.0,0.0,0.0,0.0,0.0,0.0,-2.1197,-2.1669,-2.2196,-2.2939,-2.3198,-2.3368,-2.3468,-2.3457,-2.3195,-2.2582,-2.2173,-2.1696,0.0,0.0,0.0,0.0,0.0,0.0,0.0,0.0,0.0,0.0,0.0,0.0,0.0,0.0,0.0,0.0,0.0,0.0,0.0,0.0,0.0,0.0,0.0,0.0,0.0,0.0,0.0,0.0,0.0,0.0,0.0,0.0,-1.1474,-1.2253,0.0,0.0,0.0,0.0,0.0,0.0,0.0,0.0,0.0,0.0,0.0,0.0,0.0,-1.6474,-1.7221,-1.723,-1.763,-1.8442,-1.8442,-1.8735,-1.9322,-1.9322,-1.9679,-2.0269,-1.9829,0.0,-1.8877,-1.8066,0.0,0.0,0.0,0.0,0.0,0.0,0.0,0.0,0.0,0.0,0.0,0.0,0.0,0.0,0.0,0.0,0.0,0.0,0.0,0.0,0.0,0.0,-1.8398,-1.887,-1.9161,-1.9378,-1.9686,-1.8799,-1.7988,-1.8048,-1.8218,-1.8438,0.0,0.0,0.0,0.0,0.0,0.0,-2.1796,-2.2184,-2.274,-2.3787,-2.4131,-2.4073,-2.3683,-2.365,-2.3266,-2.2319,-2.2199,-2.1842,-2.1119,-2.0587,0.0,0.0,0.0,0.0,0.0,0.0,0.0,0.0,0.0,0.0,0.0,0.0,0.0,0.0,0.0,0.0,0.0,0.0,0.0,0.0,0.0,0.0,0.0,0.0,0.0,0.0,0.0,0.0,0.0,-1.1752,-1.2128,-1.2877,-1.3115,-1.3322,0.0,0.0,0.0,0.0,0.0,0.0,0.0,0.0,0.0,-1.6404,-1.7172,-1.7958,-1.8735,-1.8744,-1.9132,-1.9909,-1.9909,-2.0156,-2.0615,-2.0615,-2.0873,-2.1311,-2.0908,-2.0659,-2.0356,-1.9102,-1.863,-1.8704,0.0,0.0,0.0,0.0,-1.8321,-1.8424,-1.8453,-1.8537,-1.8635,-1.8582,0.0,0.0,0.0,0.0,0.0,0.0,0.0,-1.7696,-1.8125,-1.8583,-1.8995,-1.9406,-1.9483,-1.9614,-2.002,-1.9549,-1.9067,-1.9087,-1.9219,-1.9296,-1.9381,0.0,0.0,0.0,0.0,-2.1061,-2.1958,-2.2405,-2.2797,-2.3334,-2.3566,-2.3642,-2.3548,-2.3538,-2.3289,-2.273,-2.2467,-2.2052,-2.1444,-2.0699,-2.0073,0.0,0.0,0.0,0.0,0.0,0.0,0.0,0.0,0.0,0.0,0.0,0.0,0.0,0.0,0.0,0.0,0.0,0.0,0.0,0.0,0.0,0.0,0.0,0.0,0.0,0.0,0.0,0.0,-1.2459,-1.287,-1.347,-1.3903,-1.4129,0.0,0.0,0.0,0.0,0.0,0.0,-1.675,-1.7353,-1.7722,-1.7769,-1.8467,-1.9184,-1.9957,-2.0053,-2.0481,-2.1191,-2.1287,-2.148,-2.1798,-2.1798,-2.1965,-2.2219,-2.173,-2.1517,-2.1424,-2.0081,-1.9461,-1.9412,-1.9412,-1.9349,-1.9187,-1.8749,-1.8685,-1.8822,-1.8704,-1.8778,-1.8908,-1.8867,-1.8762,-1.8583,-1.819,0.0,0.0,0.0,0.0,-1.8353,-1.8906,-1.9268,-1.962,-2.0117,-2.0108,-2.0139,-2.0533,-2.0491,-2.0293,-1.9937,-1.9864,-1.9904,-2.0024,0.0,0.0,0.0,0.0,-2.143,-2.2004,-2.2478,-2.2765,-2.2969,-2.3145,-2.3299,-2.3339,-2.3329,-2.3223,-2.2964,-2.2492,-2.2069,-2.1634,-2.0845,-2.0152,-1.9607,0.0,0.0,0.0,0.0,0.0,0.0,0.0,0.0,0.0,0.0,0.0,0.0,0.0,0.0,0.0,0.0,0.0,0.0,0.0,0.0,0.0,0.0,0.0,0.0,0.0,0.0,0.0,0.0,0.0,-1.3933,-1.459,0.0,0.0,0.0,0.0,-1.7064,-1.6874,-1.7115,-1.8053,-1.8253,-1.8487,-1.8809,-1.9249,-1.9791,-2.0462,-2.0799,-2.1267,-2.1968,-2.2319,-2.2541,-2.2558,-2.2558,-2.2576,-2.2525,-2.19,-2.1592,-2.1507,-2.0752,-2.0234,-1.9939,-1.9939,-1.9713,-1.9417,-1.9662,-1.9738,-1.9771,-1.9955,-2.003,-2.0009,-1.9793,-1.9491,-1.911,-1.8903,-1.8824,0.0,0.0,-1.9144,-1.9339,-2.0101,-2.0323,-2.0527,-2.1244,-2.1421,-2.1527,-2.1896,-2.1975,-2.1525,-2.0093,-1.98,-1.996,-2.0373,0.0,-2.0643,-2.1099,-2.1191,-2.1417,-2.203,-2.2343,-2.2765,-2.3394,-2.3651,-2.3599,-2.3239,-2.3199,-2.3017,-2.2554,-2.211,-2.1696,-2.1423,-2.1002,-2.0385,-1.9506,-1.9046,0.0,0.0,0.0,0.0,0.0,0.0,0.0,0.0,0.0,0.0,0.0,0.0,0.0,0.0,0.0,0.0,0.0,0.0,0.0,0.0,0.0,0.0,0.0,0.0,0.0,0.0,0.0,0.0,-1.4939,-1.586,0.0,-1.6484,-1.6913,-1.7482,-1.8199,-1.7962,-1.817,-1.898,-1.9554,-1.9887,-2.0011,-2.0612,-2.1156,-2.1603,-2.1736,-2.2087,-2.2773,-2.2908,-2.308,-2.3288,-2.3323,-2.3167,-2.2959,-2.2728,-2.2513,-2.2333,-2.1884,-2.1188,-2.0394,-2.0394,-2.0403,-2.0436,-2.0306,-2.0447,-2.0674,-2.0474,-2.051,-2.0615,-2.0517,-2.0427,-2.0268,-2.0233,-2.0104,-2.0009,-2.0097,-2.0183,-2.0345,-2.0668,-2.0865,-2.1107,-2.1375,-2.1445,-2.1479,-2.1627,-2.1652,-2.1497,-2.0951,-2.1077,-2.1315,-2.1489,-2.1671,-2.1853,-2.1998,-2.2324,-2.2651,-2.2838,-2.3128,-2.3376,-2.3611,-2.3793,-2.3824,-2.3526,-2.3672,-2.3547,-2.3006,-2.2804,-2.2382,-2.1677,-2.1272,-2.0757,-2.0151,-1.9554,-1.8834,0.0,0.0,0.0,0.0,0.0,0.0,0.0,0.0,0.0,0.0,0.0,0.0,0.0,0.0,0.0,0.0,0.0,0.0,0.0,0.0,0.0,0.0,0.0,0.0,0.0,0.0,-1.5634,-1.593,-1.7116,-1.7808,-1.7562,-1.8077,-1.864,-1.9162,-1.9105,-1.9355,-2.0074,-2.0582,-2.0906,-2.1078,-2.155,-2.1968,-2.2258,-2.2372,-2.2712,-2.3228,-2.3353,-2.3528,-2.3753,-2.379,-2.3628,-2.3411,-2.3224,-2.3013,-2.2789,-2.2398,-2.1792,-2.1054,-2.0908,-2.0858,-2.086,-2.0721,-2.0912,-2.1246,-2.0948,-2.0954,-2.1083,-2.1083,-2.1083,-2.1083,-2.1083,-2.1,-2.0862,-2.0862,-2.0959,-2.1088,-2.1225,-2.1525,-2.1824,-2.1953,-2.2081,-2.2175,-2.2184,-2.2175,-2.2167,-2.2167,-2.2007,-2.19,-2.1995,-2.2233,-2.2422,-2.2479,-2.2857,-2.3148,-2.3148,-2.3383,-2.3579,-2.3579,-2.3794,-2.3846,-2.3705,-2.3722,-2.358,-2.3142,-2.289,-2.2466,-2.1833,-2.1303,-2.079,-2.0308,-1.959,-1.876,-1.7803,0.0,0.0,0.0,0.0,0.0,0.0,0.0,0.0,0.0,0.0,0.0,0.0,0.0,0.0,0.0,0.0,0.0,0.0,0.0,0.0,0.0,0.0,0.0,-1.4804,-1.5746,-1.6587,-1.6944,-1.8305,-1.9135,-1.8902,-1.9513,-1.9954,-2.003,-2.0159,-2.0572,-2.1267,-2.1386,-2.164,-2.2035,-2.2059,-2.2183,-2.243,-2.2753,-2.308,-2.3346,-2.3717,-2.3898,-2.3954,-2.3954,-2.3946,-2.3857,-2.3218,-2.2946,-2.285,-2.2295,-2.2043,-2.1963,-2.153,-2.1095,-2.0783,-2.1009,-2.1241,-2.1482,-2.1482,-2.1482,-2.1482,-2.1482,-2.1482,-2.1482,-2.1482,-2.1482,-2.1482,-2.1482,-2.1482,-2.1567,-2.1944,-2.2362,-2.2723,-2.304,-2.3408,-2.3727,-2.3699,-2.3682,-2.3718,-2.3718,-2.2484,-2.1569,-2.1809,-2.2104,-2.2342,-2.2551,-2.2788,0.0,-2.2968,-2.3204,-2.3345,-2.3326,-2.3561,-2.3711,-2.3692,-2.3295,-2.303,-2.3002,-2.2265,-2.1811,-2.1783,-2.1049,-2.0406,-1.9931,-1.9127,-1.8296,-1.7439,0.0,0.0,0.0,0.0,0.0,0.0,0.0,0.0,0.0,0.0,0.0,0.0,0.0,0.0,0.0,0.0,0.0,0.0,0.0,0.0,0.0,0.0,-1.6422,-1.6319,-1.7038,-1.7817,-1.8477,-1.9401,-2.0107,-2.0374,-2.067,-2.0966,-2.1271,-2.1162,-2.1315,-2.1807,-2.2059,-2.2363,-2.2712,-2.2974,-2.3285,-2.3655,-2.3743,-2.3907,-2.4195,-2.4293,-2.4457,-2.4697,-2.4697,-2.4441,-2.3967,-2.3756,-2.3448,-2.2975,-2.2768,-2.268,-2.2618,-2.222,-2.2132,-2.2264,-2.2575,-2.2842,-2.3049,-2.3049,-2.3049,-2.3049,-2.3049,-2.3049,-2.3049,-2.3066,-2.3074,-2.3066,-2.3049,-2.3049,-2.3066,-2.3177,-2.3332,-2.3435,-2.3485,-2.3641,-2.3718,-2.3727,-2.3718,-2.3718,-2.3691,-2.334,-2.3092,-2.3143,-2.3554,-2.387,-2.3921,-2.4389,0.0,-2.4317,-2.433,-2.427,-2.4005,-2.4163,-2.4178,-2.3898,-2.39,-2.3663,-2.304,-2.2794,-2.2407,-2.1811,-2.1608,-2.1051,-2.0133,-1.9341,-1.8732,0.0,0.0,0.0,0.0,0.0,0.0,0.0,0.0,0.0,0.0,0.0,0.0,0.0,0.0,0.0,0.0,0.0,0.0,0.0,0.0,0.0,0.0,-1.7406,-1.7971,-1.8288,-1.8538,-1.9042,-2.0001,-2.078,-2.1329,-2.1528,-2.176,-2.1892,-2.1888,-2.1987,-2.2188,-2.2386,-2.2871,-2.3236,-2.3443,-2.3649,-2.3856,-2.4114,-2.4114,-2.4164,-2.4341,-2.4458,-2.4643,-2.4818,-2.4935,-2.477,-2.4407,-2.4407,-2.4138,-2.3626,-2.3626,-2.3528,-2.3274,0.0,0.0,0.0,0.0,-2.3559,-2.3718,-2.3718,-2.3718,-2.3718,-2.3718,-2.3718,-2.3718,-2.3682,-2.3691,-2.3682,-2.3718,-2.3718,-2.3718,-2.3718,-2.3785,-2.3905,-2.3905,-2.4025,-2.4153,-2.4153,-2.4153,-2.4153,-2.417,-2.4162,0.0,-2.4289,-2.4403,-2.4561,-2.4675,-2.5102,-2.5341,-2.506,-2.5032,-2.4918,-2.4514,-2.4559,-2.4442,-2.4084,-2.3987,0.0,0.0,0.0,-2.2365,-2.1553,-2.1515,0.0,0.0,0.0,-1.9127,-1.8806,-1.8415,0.0,0.0,-1.6745,-1.6602,0.0,0.0,0.0,0.0,0.0,0.0,0.0,0.0,0.0,0.0,0.0,0.0,0.0,0.0,0.0,0.0,-1.869,-1.9685,-2.0437,-2.0266,-2.0383,-2.1422,-2.2225,-2.2571,-2.2421,-2.2724,-2.2732,-2.2186,-2.276,-2.3133,-2.3133,0.0,0.0,0.0,0.0,-2.4185,-2.4292,-2.4292,-2.4292,-2.4343,-2.4647,-2.4773,-2.4765,-2.5,-2.5093,-2.506,-2.506,-2.4845,-2.4564,-2.4564,-2.4357,-2.3937,-2.329,-2.3227,-2.3474,-2.374,-2.3847,-2.3847,-2.3847,0.0,0.0,-2.3847,-2.3847,-2.3847,-2.3847,-2.3847,-2.3847,-2.3847,-2.3847,-2.3847,-2.3847,-2.4042,-2.4244,-2.4244,-2.4564,-2.4821,-2.4821,-2.4821,-2.4821,-2.4821,-2.4821,-2.4923,-2.5229,-2.4932,-2.4747,-2.508,-2.5352,-2.5543,-2.5445,-2.5488,-2.5289,-2.4886,-2.4812,0.0,-2.4312,-2.3849,-2.3544,-2.3499,-2.273,-2.1997,-2.1273,-2.1154,-2.0943,-2.0552,-1.9974,-1.948,-1.9177,-1.874,-1.8362,-1.803,-1.7725,-1.7376,0.0,0.0,0.0,0.0,0.0,0.0,0.0,0.0,0.0,0.0,0.0,0.0,0.0,0.0,0.0,-1.9239,-2.0009,-2.0964,-2.201,-2.2096,-2.2131,-2.2345,-2.2723,-2.3011,-2.3079,-2.3483,-2.3543,-2.3213,-2.3618,-2.3914,-2.3914,-2.4042,-2.4241,-2.4468,-2.4476,-2.4739,-2.5278,-2.5339,-2.5453,-2.5739,-2.5808,0.0,-2.58,-2.5869,-2.5712,-2.5456,-2.5456,-2.5233,-2.4887,-2.4887,-2.4845,-2.4649,-2.429,-2.4272,-2.4543,-2.4543,-2.4598,-2.4598,-2.4598,-2.4598,-2.4598,-2.4598,-2.4598,-2.4598,-2.4598,-2.4598,0.0,-2.4598,-2.4598,-2.4598,-2.4598,-2.465,-2.471,-2.471,-2.477,-2.4821,-2.4821,-2.4821,-2.4821,-2.4821,-2.4821,-2.4979,-2.5514,-2.5555,-2.5566,-2.5847,-2.6181,-2.6233,-2.5938,-2.5901,-2.5745,-2.535,-2.4968,-2.4748,-2.4666,-2.4321,-2.3895,-2.3517,-2.273,-2.2208,-2.2053,-2.1456,-2.1071,-2.0998,-2.0401,-2.0123,-2.0199,-1.9652,-1.9426,-1.9469,-1.8457,-1.8027,0.0,0.0,0.0,0.0,0.0,0.0,0.0,0.0,0.0,0.0,0.0,-1.7809,0.0,0.0,-1.9924,-2.0434,-2.1216,-2.2028,-2.2723,-2.3151,-2.3391,-2.3391,-2.3562,-2.375,-2.4044,-2.4134,-2.4114,-2.4067,-2.4244,-2.4376,-2.4376,-2.4484,-2.4719,-2.5084,-2.5092,-2.5355,-2.5839,-2.5839,-2.5961,-2.6075,-2.6258,-2.6319,-2.6388,-2.651,-2.6539,-2.637,-2.637,-2.6091,-2.5721,-2.5536,-2.5409,-2.5379,-2.5014,-2.4872,-2.4821,-2.4821,-2.4821,-2.4821,-2.4821,-2.4821,-2.4821,-2.4821,-2.4821,-2.4821,-2.4821,-2.4821,-2.4821,-2.4821,-2.4821,-2.4821,-2.4821,-2.4821,-2.4821,-2.4821,-2.4821,-2.4821,-2.4821,-2.4821,-2.4821,-2.4821,-2.4821,-2.4979,-2.5578,-2.5688,-2.5852,-2.63,-2.6473,-2.6509,-2.6352,-2.627,-2.6177,-2.5764,-2.5543,-2.5267,-2.4812,-2.444,-2.3978,-2.3526,-2.3114,-2.2803,-2.2602,-2.1998,-2.1713,-2.1713,-2.0918,-2.0533,-2.0653,-2.0135,-1.9946,-2.0052,-1.9524,-1.9178,0.0,0.0,0.0,0.0,0.0,0.0,0.0,0.0,-1.7175,-1.7329,-1.8186,-1.9042,-1.9479,-2.018,-2.0925,-2.1533,-2.2319,-2.2946,-2.328,-2.3853,-2.421,-2.4333,-2.435,-2.445,-2.483,-2.4687,-2.4598,-2.4665,-2.4791,-2.4751,-2.4682,-2.5013,-2.5296,-2.561,-2.5664,-2.5839,-2.6197,-2.6197,-2.6258,-2.6319,-2.6571,-2.67,-2.67,-2.6952,-2.7073,-2.7073,-2.7073,-2.6893,-2.6568,-2.6199,-2.6045,-2.6011,-2.5626,-2.53,-2.5018,-2.4872,-2.4821,-2.4821,-2.4821,-2.4821,-2.4821,-2.4821,-2.4821,-2.4821,-2.4821,-2.4821,-2.4821,-2.4821,-2.4872,-2.4924,-2.4924,-2.4984,-2.4979,-2.4979,-2.4979,-2.5018,-2.4941,-2.4924,-2.4907,-2.4838,-2.4821,-2.4979,-2.5578,-2.5688,-2.5907,-2.6527,-2.6591,-2.6591,-2.6591,-2.6591,-2.6463,-2.6168,-2.6058,-2.569,-2.4849,-2.4523,-2.4097,-2.3636,-2.3535,-2.3352,-2.3032,-2.262,-2.2364,-2.2282,-2.1472,-2.1012,-2.0974,-2.0542,-2.0352,-2.0395,-2.0473,-2.0297,-1.5496,-1.5237,-1.4997,-1.5274,-1.5532,-1.5892,0.0,0.0,-1.8059,-1.8785,-1.9555,-2.0223,-2.0617,-2.1616,-2.2371,-2.2457,-2.31,-2.3674,-2.405,-2.4125,-2.4313,-2.471,-2.4753,-2.4804,-2.4864,-2.5142,-2.5202,-2.5047,-2.5343,-2.5362,-2.5048,-2.5341,-2.5549,-2.561,-2.59,-2.6205,-2.6571,-2.6571,-2.6692,-2.7012,-2.7012,-2.7012,-2.7073,-2.7073,-2.7073,-2.7073,-2.7073,-2.7047,-2.6979,-2.6585,-2.6422,-2.6388,-2.602,-2.5791,-2.568,-2.5069,-2.4821,-2.4821,-2.4821,-2.4821,-2.4821,-2.4821,-2.4821,-2.4821,-2.4821,-2.4821,-2.4821,-2.4821,-2.5052,-2.5309,-2.5309,-2.5557,-2.5756,-2.5756,-2.5756,-2.572,-2.5378,-2.5309,-2.5215,-2.4889,-2.4821,-2.4979,-2.5578,-2.5688,-2.5907,-2.6527,-2.6591,-2.6591,-2.6591,-2.6591,-2.6573,-2.6527,-2.6188,-2.569,-2.4849,-2.4739,-2.4537,-2.4165,-2.3739,-2.3471,-2.3425,-2.305,-2.2657,-2.2327,-2.2016,-2.1799,-2.1578,-2.1045,-2.0837,-2.0991,-2.0644,-2.0676,-1.5764,-1.5668,0.0,0.0,-1.6595,-1.7059,-1.7536,-1.8272,-1.9008,-1.9495,-2.0192,-2.0874,-2.1456,-2.2139,-2.2748,0.0,-2.3657,-2.4127,-2.4521,-2.4573,-2.4633,-2.4804,-2.4821,-2.4902,-2.5156,-2.53,-2.5444,-2.5582,-2.5764,-2.5839,-2.5717,-2.5839,-2.5961,-2.6153,-2.6327,-2.6571,-2.6882,-2.6882,-2.6952,-2.7073,-2.7073,-2.7073,-2.7073,-2.7073,-2.7073,-2.7073,-2.7073,-2.7073,-2.7064,-2.6902,-2.6833,-2.679,-2.6405,-2.6259,-2.6165,-2.542,-2.5138,-2.5112,-2.4898,-2.4821,-2.4821,-2.4821,-2.4821,-2.4821,-2.4821,-2.4821,-2.4864,-2.5078,-2.5249,-2.542,-2.5643,-2.5823,-2.5876,-2.5876,-2.5876,-2.5833,-2.5737,-2.5523,-2.5326,-2.5172,-2.4967,-2.4979,-2.5578,-2.5688,-2.5907,-2.6527,-2.6591,-2.6591,-2.6591,-2.6591,-2.6591,-2.6591,-2.6269,-2.5791,-2.5221,-2.4913,-2.4551,-2.3981,-2.3938,-2.3846,-2.3699,-2.3414,-2.3169,-2.2995,-2.2673,-2.2354,-2.2034,-2.1816,-2.1615,-2.1475,-2.1441,-2.1618,-1.6136,0.0,0.0,-1.7034,-1.7485,-1.7945,-1.8463,-1.9037,-1.9662,-2.0238,-2.0763,-2.1356,-2.2023,-2.25,-2.2886,-2.3451,-2.3931,-2.4279,-2.456,-2.4753,-2.4821,-2.4821,-2.4821,-2.4924,-2.5189,-2.5328,-2.5569,-2.5999,-2.6027,-2.6098,-2.6128,-2.6197,-2.6319,-2.6571,-2.6692,-2.6822,-2.7073,-2.7073,-2.7073,-2.7073,-2.7073,-2.7073,-2.7073,-2.7073,-2.7073,-2.7073,-2.7073,-2.7073,-2.7073,-2.7073,-2.7073,-2.7047,-2.6765,-2.6653,-2.6568,-2.5917,-2.5549,-2.5383,-2.5069,-2.4907,-2.4821,-2.4821,-2.4821,-2.4838,-2.4941,-2.4975,-2.5052,-2.542,-2.56,-2.5746,-2.602,-2.6174,-2.6251,-2.6251,-2.6251,-2.6217,-2.6114,-2.5874,-2.5617,-2.5469,-2.5211,-2.5211,-2.565,-2.5743,-2.5962,-2.6527,-2.6591,-2.6591,-2.6591,-2.6591,-2.6591,-2.6591,-2.6316,-2.6021,-2.5617,-2.5221,-2.4716,-2.4095,-2.4167,-2.4102,-2.3904,-2.377,-2.3608,-2.3499,-2.3215,-2.2867,-2.2455,-2.2336,-2.2135,-2.1851,-2.2019,-2.223,0.0,0.0,-1.7722,-1.7688,-1.7928,-1.8397,-1.9274,-1.95,-1.9876,-2.1283,-2.1576,-2.1801,-2.2466,-2.2843,-2.3109,-2.3126,-2.3751,-2.4185,-2.4193,-2.4526,-2.4821,-2.4821,-2.4821,-2.4821,0.0,-2.5172,-2.5579,-2.5982,-2.5981,-2.6021,-2.6111,-2.6388,-2.6571,-2.6571,-2.6943,-2.7073,-2.7073,-2.7073,-2.7073,-2.7073,-2.7073,-2.7073,-2.7073,-2.7073,-2.7073,-2.7073,-2.7073,-2.7073,-2.7073,-2.7073,-2.7073,-2.7073,-2.7064,-2.7056,-2.7004,-2.6602,-2.5994,-2.5426,-2.5409,-2.5121,-2.4821,-2.4821,-2.4821,-2.4889,-2.5241,-2.5352,-2.5429,-2.5814,-2.6182,-2.6456,-2.6465,-2.6756,-2.7039,-2.7039,-2.7039,-2.6936,-2.6559,-2.6465,-2.6242,-2.5572,-2.5587,-2.5739,-2.5695,-2.5907,-2.6181,-2.6527,-2.6591,-2.6591,-2.6591,-2.6591,-2.6591,-2.6591,-2.6582,-2.6399,-2.603,-2.5635,-2.524,-2.4794,-2.4431,-2.4202,-2.4202,-2.4192,-2.395,-2.3499,-2.348,-2.3279,-2.2885,-2.2474,-2.2272,-2.23,-2.2148,-2.223,0.0,0.0,-1.8066,-1.8693,-1.8964,-1.9175,-1.9554,-2.0012,-2.0483,-2.0915,-2.1519,-2.1971,-2.2151,-2.2689,-2.3117,-2.3117,-2.3537,-2.3948,-2.4196,-2.435,-2.453,-2.4795,-2.4821,0.0,0.0,0.0,0.0,-2.5921,-2.6177,-2.6483,-2.6744,-2.6882,-2.6952,-2.6952,-2.7012,-2.7073,-2.7073,-2.7073,-2.7073,-2.7073,-2.7073,-2.7073,-2.7073,-2.7073,-2.7073,-2.7073,-2.7073,-2.7073,-2.7073,-2.7073,-2.7073,-2.7073,-2.7073,-2.7073,-2.7056,-2.6927,-2.6551,-2.608,-2.5831,-2.566,-2.5509,-2.5509,-2.5509,-2.5583,-2.5711,-2.5746,-2.5823,-2.6199,-2.6396,-2.6542,-2.6807,-2.6979,-2.7073,-2.7073,-2.7073,-2.7039,-2.6902,-2.667,-2.6395,-2.612,-2.5939,-2.5868,-2.597,-2.6017,-2.6181,-2.6527,-2.6591,-2.6591,-2.6591,-2.6591,-2.6591,-2.6591,-2.6591,-2.6417,-2.6048,-2.5644,-2.5146,-2.4548,-2.4331,-2.4102,-2.3954,-2.4102,-2.4137,-2.395,-2.395,-2.3749,-2.3297,-2.335,-2.3223,-2.2936,-2.2947,-2.2983,0.0,-1.8536,-1.8693,-1.9152,-1.9434,-1.9662,-1.9696,-2.0127,-2.0622,-2.0774,-2.1359,-2.1858,-2.1922,-2.2382,-2.2804,-2.2934,-2.3229,-2.3557,-2.3891,-2.4113,-2.4324,-2.4526,-2.4735,-2.4821,0.0,0.0,0.0,-2.5842,-2.6157,-2.6516,-2.7047,-2.7073,-2.7073,-2.7073,-2.7073,-2.7073,-2.7073,-2.7073,-2.7073,-2.7073,-2.7073,-2.7073,-2.7073,-2.7073,-2.7073,-2.7073,-2.7073,-2.7073,-2.7073,-2.7073,-2.7073,-2.7073,-2.7073,-2.7073,-2.7073,-2.7073,-2.691,-2.6645,-2.6268,-2.6045,-2.5876,-2.5876,-2.5876,-2.5902,-2.6097,-2.6131,-2.6217,-2.6585,-2.6696,-2.6756,-2.7013,-2.7073,-2.7073,-2.7073,-2.7073,-2.7073,-2.7073,-2.6987,-2.6814,-2.6667,-2.6465,-2.6353,-2.6351,-2.6272,-2.6354,-2.6582,-2.6591,-2.6591,-2.6591,-2.6591,-2.6591,-2.6591,-2.6591,-2.6481,-2.626,-2.5865,-2.5365,-2.4808,-2.4551,-2.4258,-2.3963,-2.4102,-2.4202,-2.4202,-2.4251,-2.4171,-2.3855,-2.4007,-2.3888,-2.3655,-2.3658,-2.3563,-1.8414,-1.9031,-1.9567,-1.9176,-1.9504,-1.9908,-1.9743,-1.9974,-2.0309,-2.0855,-2.1227,-2.1466,0.0,0.0,-2.2187,-2.2615,-2.2775,-2.3018,-2.3391,-2.3893,-2.4213,0.0,0.0,0.0,0.0,0.0,0.0,-2.5825,0.0,-2.6268,-2.7039,-2.7073,-2.7073,-2.7073,-2.7073,-2.7073,-2.7073,-2.7073,-2.7073,-2.7073,-2.7073,-2.7073,-2.7073,-2.7073,-2.7073,-2.7073,-2.7073,-2.7073,-2.7073,-2.7073,-2.7073,-2.7073,-2.7073,-2.7073,-2.7073,-2.7073,-2.7073,-2.7021,-2.6645,-2.6285,-2.5936,-2.5936,-2.5936,-2.6004,-2.6414,-2.6516,-2.6593,-2.697,-2.7073,-2.7073,-2.7073,-2.7073,-2.7073,-2.7073,-2.7133,-2.7133,-2.7133,-2.7358,-2.7408,-2.711,-2.7173,-2.7173,-2.6776,-2.6673,-2.6591,-2.6591,-2.6591,-2.6591,-2.6591,-2.6591,-2.6591,-2.6591,-2.6591,-2.6591,-2.6591,-2.6251,-2.5846,-2.5451,-2.5005,-2.4643,-2.422,-2.4202,-2.4202,-2.4202,-2.439,-2.448,-2.448,-2.4398,-2.4364,-2.4345,-2.42,-2.3917,-1.945,-1.9687,-1.9724,-1.9681,-2.0033,-2.0289,-2.0036,-2.0543,-2.0942,-2.0521,-2.0974,-2.1412,0.0,0.0,0.0,-2.2178,-2.2518,0.0,-2.3009,-2.3652,0.0,0.0,0.0,-2.4821,-2.4821,-2.4821,0.0,0.0,-2.5876,-2.6268,-2.7039,-2.7073,-2.7073,-2.7073,-2.7073,-2.7073,-2.7073,-2.7073,-2.7073,-2.7073,-2.7073,-2.7073,-2.7073,-2.7073,-2.7073,-2.7073,-2.7073,-2.7073,-2.7073,-2.7073,-2.7073,-2.7073,-2.7073,-2.7073,-2.7073,-2.7073,-2.7073,-2.7064,-2.6961,-2.6867,-2.6782,-2.6782,-2.6782,-2.6799,-2.6902,-2.6927,-2.6944,-2.7047,-2.7073,-2.7073,-2.7073,-2.7073,-2.7073,-2.7073,-2.7246,-2.7409,-2.7409,-2.765,-2.7836,-2.7691,-2.741,-2.7185,-2.7075,-2.6793,-2.6591,-2.6591,-2.6591,-2.6591,-2.6591,-2.6591,-2.6591,-2.6591,-2.6591,-2.6591,-2.6591,-2.6251,-2.5846,-2.5451,-2.5005,-2.4643,-2.422,-2.4202,-2.4202,-2.4202,-2.439,-2.448,-2.448,-2.4886,-2.5033,-2.5024,-2.4917,-2.4797,-1.9913,-2.0033,-1.9945,-1.9923,-2.0234,-2.0482,-2.0037,-2.0477,-2.0772,-2.0129,-2.0492,0.0,0.0,0.0,0.0,0.0,0.0,0.0,-2.292,-2.3458,-2.3931,0.0,-2.4379,0.0,-2.4804,-2.4821,-2.5129,0.0,-2.5876,-2.6268,-2.7039,-2.7073,-2.7073,-2.7073,-2.7073,-2.7073,-2.7073,-2.7073,-2.7073,-2.7073,-2.7073,-2.7073,-2.7073,-2.7073,-2.7073,-2.7073,-2.7073,-2.7073,-2.7073,-2.7073,-2.7073,-2.7073,-2.7073,-2.7073,-2.7073,-2.7073,-2.7073,-2.7073,-2.7073,-2.7073,-2.7073,-2.7073,-2.7073,-2.7073,-2.7073,-2.7073,-2.7073,-2.7073,-2.7073,-2.7073,-2.7073,-2.7185,-2.7297,-2.7297,-2.747,-2.7702,-2.7702,-2.796,-2.8212,-2.8102,-2.7906,-2.7591,-2.7242,-2.6995,-2.6784,-2.6619,-2.6591,-2.6591,-2.6591,-2.6591,-2.6591,-2.6591,-2.6591,-2.6591,-2.6591,-2.6371,-2.6113,-2.5708,-2.5313,-2.4858,-2.4496,-2.4303,-2.4202,-2.4202,-2.4489,-2.4686,-2.4686,-2.5235,-2.5489,-2.5479,-2.5382,-2.5254,-2.0132,-2.0312,-2.0337,-2.011,-2.0339,-2.0488,-1.9945,-2.0088,-2.0226,-1.9791,0.0,0.0,-2.0165,0.0,-2.0649,-2.1511,0.0,-2.2158,-2.2913,-2.3306,-2.366,-2.4035,-2.4214,-2.4393,-2.4778,-2.4821,-2.5129,-2.5825,-2.5876,-2.6268,-2.7039,-2.7133,-2.7194,-2.7194,-2.7194,-2.7194,-2.7133,-2.7133,-2.7133,-2.7073,-2.7073,-2.7073,-2.7073,-2.7073,-2.7073,-2.7073,-2.7073,-2.7073,-2.7073,-2.7073,-2.7073,-2.7073,-2.7073,-2.7073,-2.7073,-2.7073,-2.7073,-2.7073,-2.7073,-2.7073,-2.7073,-2.7073,-2.7073,-2.7073,-2.7073,-2.7073,-2.7073,-2.7073,-2.7073,-2.7133,-2.7133,-2.7358,-2.7521,-2.7581,-2.7831,-2.808,-2.808,-2.8328,-2.8536,-2.8476,-2.8434,-2.815,-2.7389,-2.727,-2.704,-2.6646,-2.6591,-2.6591,-2.6591,-2.6591,-2.6591,-2.6591,-2.6591,-2.6591,-2.6591,-2.6591,-2.6408,-2.6039,-2.5644,-2.5197,-2.4803,-2.4431,-2.4202,-2.4202,-2.4646,-2.4883,-2.4883,-2.544,-2.5693,-2.5693,-2.5693,-2.5527,-2.0704,-2.0854,-2.0862,-2.0817,-2.0624,-2.0421,-2.0316,-2.0277,0.0,0.0,0.0,-1.9731,-1.9921,-1.9851,0.0,-2.1268,0.0,0.0,0.0,0.0,-2.3752,0.0,0.0,0.0,0.0,0.0,0.0,0.0,0.0,-2.6268,-2.7039,-2.7297,-2.759,-2.784,-2.784,-2.7719,-2.7401,-2.7401,-2.7297,-2.7073,-2.7073,-2.7073,-2.7073,-2.7073,-2.7073,-2.7073,-2.7073,-2.7073,-2.7073,-2.7073,-2.7073,-2.7073,-2.7073,-2.7073,-2.7073,-2.7073,-2.7073,-2.7073,-2.7073,-2.7073,-2.7073,-2.7073,-2.7073,-2.7073,-2.7073,-2.7073,-2.7073,-2.7073,-2.7073,-2.7133,-2.7349,-2.7461,-2.7581,-2.7831,-2.8148,-2.8397,-2.8397,-2.8696,-2.8907,-2.8893,-2.8618,-2.8242,-2.7803,-2.7445,-2.704,-2.6646,-2.6591,-2.6591,-2.6591,-2.6591,-2.6591,-2.6591,-2.6591,-2.6591,-2.6591,-2.6591,-2.6408,-2.6039,-2.5644,-2.5197,-2.4803,-2.4431,-2.4202,-2.4202,-2.4646,-2.4883,-2.4883,-2.544,-2.5693,-2.5693,-2.5693,-2.5645,-2.1071,-2.1291,-2.1311,-2.1094,-2.1002,-2.0746,-2.012,0.0,0.0,0.0,0.0,-1.9164,-1.9279,0.0,0.0,0.0,0.0,0.0,0.0,0.0,0.0,0.0,0.0,0.0,0.0,0.0,0.0,0.0,0.0,-2.667,-2.7254,-2.759,-2.7831,-2.802,-2.802,-2.7891,-2.7771,-2.7581,-2.7461,-2.7297,-2.7194,-2.7073,-2.7073,-2.7073,-2.7073,-2.7073,-2.7073,-2.7073,-2.7073,-2.7073,-2.7073,-2.7073,-2.7073,-2.7073,-2.7073,-2.7073,-2.7073,-2.7073,-2.7073,-2.7073,-2.7073,-2.7073,-2.7073,-2.7073,-2.7073,-2.7073,-2.7073,-2.7073,-2.7185,-2.7349,-2.7461,-2.7771,-2.808,-2.8208,-2.8517,-2.8746,-2.8746,-2.8865,-2.8984,-2.8984,-2.8828,-2.8507,-2.7932,-2.7666,-2.7279,-2.6683,-2.6591,-2.6591,-2.6591,-2.6591,-2.6591,-2.6591,-2.6591,-2.6591,-2.6591,-2.6591,-2.6509,-2.6298,-2.5957,-2.5552,-2.5157,-2.4744,-2.4431,-2.4211,-2.4538,-2.4784,-2.4883,-2.5284,-2.5538,-2.5693,-2.5538,-2.5489,-2.1211,-2.1454,-2.1533,-2.1201,-2.1117,-2.0829,-1.986,-1.9653,0.0,0.0,0.0,-1.8624,-1.8661,0.0,0.0,0.0,0.0,0.0,0.0,0.0,0.0,0.0,0.0,0.0,0.0,0.0,0.0,0.0,0.0,-2.7284,-2.7667,-2.7951,-2.814,-2.8199,-2.8199,-2.8199,-2.8089,-2.7831,-2.7642,-2.7521,-2.7297,-2.7133,-2.7073,-2.7073,-2.7073,-2.7073,-2.7073,-2.7073,-2.7073,-2.7073,-2.7073,-2.7073,-2.7073,-2.7073,-2.7073,-2.7073,-2.7073,-2.7073,-2.7073,-2.7073,-2.7073,-2.7073,-2.7073,-2.7073,-2.7073,-2.7073,-2.7133,-2.7194,-2.7349,-2.7521,-2.7702,-2.8089,-2.8526,-2.8576,-2.8815,-2.8984,-2.8984,-2.8984,-2.8984,-2.8984,-2.8984,-2.8718,-2.7969,-2.7822,-2.7555,-2.671,-2.6591,-2.6591,-2.6591,-2.6591,-2.6591,-2.6591,-2.6591,-2.6591,-2.6591,-2.6591,-2.6591,-2.6591,-2.6241,-2.5874,-2.5561,-2.5115,-2.4808,-2.4468,-2.4566,-2.4709,-2.4966,-2.5126,-2.5333,-2.5538,-2.5333,-2.5235,-2.1049,-2.1221,-2.124,-2.1202,-2.0608,-2.0004,-1.9891,0.0,0.0,0.0,-1.8356,-1.8382,-1.8595,-1.8482,0.0,0.0,0.0,0.0,0.0,0.0,0.0,0.0,0.0,0.0,0.0,0.0,0.0,0.0,0.0,-2.798,-2.837,-2.8457,-2.8567,-2.8925,-2.8925,-2.8746,-2.8457,-2.8397,-2.808,-2.7521,-2.7461,-2.7349,-2.7073,-2.7073,-2.7073,-2.7073,-2.7073,-2.7073,-2.7073,-2.7073,-2.7073,-2.7073,-2.7073,-2.7073,-2.7073,-2.7073,-2.7073,-2.7073,-2.7073,-2.7073,-2.7073,-2.7073,-2.7073,-2.7073,-2.7073,-2.7073,-2.7133,-2.7409,-2.7461,-2.7642,-2.8268,-2.8457,-2.8576,-2.8865,-2.8984,-2.8984,-2.8984,-2.8984,-2.8984,-2.8984,-2.8984,-2.8718,-2.7969,-2.7822,-2.7555,-2.671,-2.6591,-2.6591,-2.6591,-2.6591,-2.6591,-2.6591,-2.6591,-2.6591,-2.6591,-2.6591,-2.6591,-2.6591,-2.6241,-2.5993,-2.5957,-2.558,-2.535,-2.5313,-2.5131,-2.5079,-2.5079,-2.4963,-2.4941,-2.4981,-2.4941,-2.4932,-2.1056,-2.1369,-2.1497,-2.1252,-2.0958,-2.0448,-1.9506,0.0,0.0,-1.7876,-1.7755,-1.7789,-1.7847,-1.8232,-1.8682,0.0,0.0,0.0,0.0,0.0,0.0,0.0,0.0,0.0,0.0,0.0,0.0,0.0,0.0,-2.8013,-2.8432,-2.8687,-2.8865,-2.8984,-2.8984,-2.8925,-2.8806,-2.8576,-2.8268,-2.7771,-2.7581,-2.7349,-2.7073,-2.7073,-2.7073,-2.7073,-2.7073,-2.7073,-2.7073,-2.7073,-2.7073,-2.7073,-2.7073,-2.7073,-2.7073,-2.7073,-2.7073,-2.7073,-2.7073,-2.7073,-2.7073,-2.7073,-2.7073,-2.7073,-2.7073,-2.7073,-2.7133,-2.7401,-2.7642,-2.79,-2.8397,-2.8636,-2.8806,-2.8984,-2.8984,-2.8984,-2.8984,-2.8984,-2.8984,-2.8984,-2.8792,-2.8443,-2.7923,-2.762,-2.7224,-2.6674,-2.6591,-2.6591,-2.6591,-2.6591,-2.6591,-2.6591,-2.6591,-2.6591,-2.6591,-2.6591,-2.6591,-2.6591,-2.6435,-2.6224,-2.6021,-2.5865,-2.5663,-2.5372,-2.5301,-2.5372,-2.5526,-2.547,-2.5487,-2.5639,-2.5496,-2.5445,-2.0639,-2.1009,-2.1223,-2.0959,-2.0649,-2.0132,0.0,0.0,0.0,-1.7376,-1.722,-1.7227,-1.7363,-1.7871,-1.8426,0.0,0.0,0.0,0.0,0.0,0.0,0.0,0.0,0.0,0.0,0.0,0.0,0.0,0.0,-2.8005,-2.837,-2.8764,-2.8984,-2.8984,-2.8984,-2.8984,-2.8984,-2.8696,-2.8337,-2.802,-2.7642,-2.7349,-2.7073,-2.7073,-2.7073,-2.7073,-2.7073,-2.7073,-2.7073,-2.7073,-2.7073,-2.7073,-2.7073,-2.7073,-2.7133,-2.7185,-2.7246,-2.7246,-2.7306,-2.7306,-2.7246,-2.7246,-2.7185,-2.7133,-2.7185,-2.7246,-2.7297,-2.759,-2.7951,-2.8319,-2.8576,-2.8815,-2.8984,-2.8984,-2.8984,-2.8984,-2.8984,-2.8984,-2.8984,-2.8984,-2.8663,-2.826,-2.7895,-2.75,-2.704,-2.6646,-2.6591,-2.6591,-2.6591,-2.6591,-2.6591,-2.6591,-2.6591,-2.6591,-2.6591,-2.6591,-2.6591,-2.6591,-2.6591,-2.6454,-2.6214,-2.6195,-2.6013,-2.5738,-2.5663,-2.5651,-2.586,-2.5748,-2.5735,-2.5881,-2.5735,-2.5683,-1.9541,-1.9853,-2.0129,-2.0129,-1.9328,-1.8502,0.0,0.0,0.0,-1.7012,-1.6865,-1.6833,-1.7305,-1.7425,-1.7745,-1.8839,0.0,0.0,0.0,0.0,0.0,0.0,0.0,0.0,0.0,0.0,0.0,0.0,-2.7601,0.0,-2.837,-2.8764,-2.8984,-2.8984,-2.8984,-2.8984,-2.8984,-2.8696,-2.8337,-2.802,-2.7642,-2.7349,-2.7073,-2.7073,-2.7073,-2.7073,-2.7073,-2.7073,-2.7073,-2.7073,-2.7073,-2.7073,-2.7073,-2.7073,-2.7133,-2.7409,-2.7521,-2.7521,-2.7891,-2.7771,-2.7521,-2.7521,-2.7297,-2.7133,-2.7401,-2.7521,-2.7581,-2.7891,-2.8498,-2.8984,-2.8984,-2.8984,-2.8984,-2.8984,-2.8984,-2.8984,-2.8984,-2.8984,-2.8984,-2.8984,-2.8663,-2.826,-2.7895,-2.75,-2.704,-2.6646,-2.6591,-2.6591,-2.6591,-2.6591,-2.6591,-2.6591,-2.6591,-2.6591,-2.6591,-2.6591,-2.6591,-2.6591,-2.6591,-2.6591,-2.6582,-2.6582,-2.6582,-2.6582,-2.6214,-2.6012,-2.6002,-2.5617,-2.5424,-2.5424,-2.5424,-2.5424,-1.9016,-1.9182,-1.9297,-1.9297,-1.8935,-1.8462,-1.8045,0.0,-1.6799,-1.6586,-1.6463,-1.654,-1.6855,-1.7178,-1.7705,-1.8585,-1.8818,0.0,0.0,0.0,0.0,0.0,0.0,0.0,0.0,0.0,0.0,0.0,-2.7445,-2.7877,-2.7957,-2.8608,-2.8984,-2.8984,-2.8984,-2.8984,-2.8984,-2.8696,-2.8337,-2.802,-2.7642,-2.7349,-2.7073,-2.7073,-2.7073,-2.7073,-2.7073,-2.7073,-2.7073,-2.7073,-2.7073,-2.7073,-2.7073,-2.7185,-2.7409,-2.7461,-2.7642,-2.7831,-2.7951,-2.796,-2.7771,-2.7581,-2.759,-2.7719,-2.7521,-2.7521,-2.7642,-2.8208,-2.8687,-2.8984,-2.8984,-2.8984,-2.8984,-2.8984,-2.8984,-2.8984,-2.8984,-2.8984,-2.8984,-2.8984,-2.8434,-2.7921,-2.784,-2.7215,-2.6738,-2.6609,-2.6591,-2.6591,-2.6591,-2.6591,-2.6591,-2.6591,-2.6591,-2.6591,-2.6591,-2.6591,-2.6591,-2.6591,-2.6591,-2.6591,-2.6591,-2.6591,-2.6591,-2.6591,-2.6454,-2.6389,-2.6389,-2.6261,-2.6206,-2.6206,-2.6206,-2.6206,0.0,-1.8495,-1.87,-1.87,-1.8458,0.0,0.0,0.0,-1.6582,-1.6266,-1.6158,-1.6227,-1.6715,-1.6985,-1.7438,-1.8381,0.0,0.0,0.0,0.0,0.0,0.0,0.0,0.0,0.0,0.0,0.0,0.0,-2.7381,-2.7822,-2.7822,-2.8535,-2.8984,-2.8984,-2.8984,-2.8925,-2.8806,-2.8457,-2.814,-2.7831,-2.747,-2.7237,-2.7073,-2.7073,-2.7073,-2.7073,-2.7073,-2.7073,0.0,-2.7073,-2.7073,-2.7073,-2.7073,-2.7237,-2.7504,-2.7484,-2.767,-2.7976,-2.8104,-2.8045,-2.7944,-2.7907,-2.802,-2.8113,-2.7774,-2.7776,-2.802,-2.8517,-2.8815,-2.8984,-2.8984,-2.8984,-2.8984,-2.8984,-2.8984,-2.8984,-2.8984,-2.8984,-2.8938,-2.8792,-2.8281,-2.7776,-2.762,-2.7013,-2.6591,-2.6591,-2.6591,-2.6591,-2.6591,-2.6591,-2.6591,-2.6591,-2.6591,-2.6591,-2.6591,-2.6591,-2.6591,-2.6591,-2.6591,-2.6591,-2.6591,-2.6591,-2.6591,-2.6591,-2.6738,-2.6811,-2.6811,-2.6811,-2.6811,-2.6811,-2.6655,-2.6591,0.0,0.0,0.0,0.0,0.0,0.0,0.0,0.0,0.0,-1.6102,-1.5874,-1.5979,-1.6843,-1.6855,0.0,0.0,0.0,0.0,0.0,0.0,0.0,0.0,0.0,0.0,0.0,0.0,0.0,-2.6591,-2.7315,-2.7765,-2.7765,-2.8476,-2.8925,-2.8925,-2.8925,-2.8806,-2.8526,-2.8148,-2.7831,-2.7521,-2.7246,-2.7073,-2.7073,-2.7073,-2.7073,-2.7073,-2.7073,-2.7073,-2.7073,-2.7073,-2.7073,-2.7073,-2.7133,-2.7289,-2.7503,-2.7458,-2.7602,-2.7917,-2.8226,-2.8186,-2.7975,-2.8381,-2.8498,-2.8399,-2.802,-2.8174,-2.8531,-2.8852,-2.8893,-2.8902,-2.8938,-2.8938,-2.8948,-2.8975,-2.8966,-2.8938,-2.8938,-2.892,-2.8783,-2.8425,-2.8012,-2.7666,-2.7242,-2.6848,-2.6591,-2.6591,-2.6591,-2.6591,-2.6591,-2.6591,-2.6591,-2.6591,-2.6591,-2.6591,-2.6591,-2.6591,-2.6591,-2.6591,-2.6591,-2.6591,-2.6591,-2.6591,-2.66,-2.6628,-2.7013,-2.7215,-2.7215,-2.7215,-2.7205,-2.7169,-2.6802,-2.6619,-1.5553,0.0,-1.6561,0.0,0.0,0.0,0.0,0.0,0.0,0.0,0.0,0.0,0.0,0.0,0.0,0.0,0.0,0.0,0.0,0.0,0.0,0.0,0.0,0.0,0.0,0.0,0.0,-2.6591,-2.71,-2.7431,-2.7431,-2.7957,-2.8259,-2.8259,-2.8259,-2.8328,-2.8526,-2.8148,-2.7831,-2.7521,-2.7246,-2.7073,-2.7073,-2.7073,-2.7073,-2.7073,-2.7073,-2.7073,-2.7073,-2.7073,-2.7073,-2.7133,-2.7358,-2.7416,-2.7449,-2.7705,-2.783,-2.7845,-2.7911,-2.8065,-2.8336,-2.8737,-2.8478,-2.8088,-2.8241,-2.8345,-2.8354,-2.8141,-2.8107,-2.8122,-2.8452,-2.8535,-2.8608,-2.8911,-2.8755,-2.8535,-2.8535,-2.8278,-2.8022,-2.793,-2.7647,-2.7288,-2.7196,-2.6848,-2.6591,-2.6591,-2.6591,-2.6591,-2.6591,-2.6591,-2.6591,-2.6591,-2.6591,-2.6591,-2.6591,-2.6591,-2.6591,-2.6591,-2.6591,-2.6591,-2.6591,-2.6591,-2.6729,-2.7031,-2.7426,-2.7684,-2.7684,-2.7684,-2.7528,-2.7178,-2.7077,-2.6875,-1.4873,-1.5389,-1.5917,-1.5917,-1.58,-1.57,0.0,0.0,0.0,0.0,0.0,0.0,0.0,0.0,0.0,0.0,0.0,0.0,0.0,0.0,0.0,0.0,0.0,0.0,0.0,0.0,-2.6354,-2.6354,-2.6819,-2.7097,-2.7097,-2.7653,-2.808,-2.8208,-2.8208,-2.8148,-2.802,-2.7831,-2.765,-2.7297,-2.7194,-2.7073,-2.7073,-2.7073,-2.7073,-2.7073,-2.7073,-2.7073,-2.7073,-2.7073,-2.7194,-2.7297,-2.7461,-2.7533,-2.7651,-2.7647,-2.7552,-2.7499,-2.7499,-2.7893,-2.8434,-2.8645,-2.8445,-2.8119,-2.8101,-2.7976,-2.782,-2.784,-2.7822,-2.7877,-2.8049,-2.8104,-2.8159,-2.837,-2.826,-2.8104,-2.8104,-2.793,-2.7767,-2.7583,-2.7381,-2.7114,-2.694,-2.6729,-2.6591,-2.6591,-2.6591,-2.6591,-2.6591,-2.6591,-2.6591,-2.6591,-2.6591,-2.6591,-2.6591,-2.6591,-2.6591,-2.6591,-2.6591,-2.6591,-2.6591,-2.6765,-2.7141,-2.7719,-2.7948,-2.8141,-2.8324,-2.8141,-2.7847,-2.7444,-2.726,-2.6967,-1.4581,-1.5068,-1.5582,-1.5618,-1.5647,-1.5697,0.0,0.0,0.0,0.0,0.0,0.0,0.0,0.0,0.0,0.0,0.0,0.0,0.0,0.0,0.0,0.0,0.0,0.0,0.0,-2.581,-2.6017,-2.6017,-2.6474,-2.6712,-2.6712,-2.7388,-2.7931,-2.8247,-2.8301,-2.808,-2.7581,-2.7642,-2.7478,-2.7185,-2.7185,-2.7133,-2.7073,-2.7073,-2.7073,-2.7073,-2.7133,-2.7185,-2.7194,-2.7194,-2.7358,-2.7581,-2.7572,-2.7674,-2.7768,-2.7429,-2.7209,-2.7095,-2.716,-2.7636,-2.8223,-2.8278,-2.826,-2.8141,-2.7783,-2.7454,-2.716,-2.749,-2.7638,-2.7656,-2.7711,-2.773,-2.7748,-2.7803,-2.7776,-2.773,-2.773,-2.7684,-2.7546,-2.715,-2.7086,-2.6976,-2.6646,-2.6591,-2.6591,-2.6591,-2.6591,-2.6591,-2.6591,-2.6591,-2.6591,-2.6591,-2.6591,-2.6591,-2.6591,-2.6591,-2.6646,-2.6636,-2.6636,-2.6619,-2.6674,-2.7059,-2.7618,-2.8379,-2.8452,-2.8654,-2.8984,-2.859,-2.8177,-2.7813,-2.7417,-2.6967,-1.4419,-1.4517,-1.465,-1.4755,-1.4908,-1.5003,0.0,0.0,0.0,0.0,0.0,0.0,0.0,0.0,0.0,0.0,0.0,0.0,0.0,0.0,0.0,0.0,0.0,0.0,0.0,-2.5648,-2.5743,-2.5743,-2.5881,-2.5966,-2.5966,-2.6457,-2.6873,-2.7246,-2.7484,-2.7762,-2.7891,-2.8208,-2.802,-2.7461,-2.7461,-2.7297,-2.7073,-2.7073,-2.7073,-2.7133,-2.7349,-2.7461,-2.7461,-2.7711,-2.79,-2.7924,-2.7884,-2.7634,-2.7362,-2.7247,-2.6967,-2.6729,-2.7059,-2.726,-2.7416,-2.7756,-2.7636,-2.7352,-2.7288,-2.6985,-2.6692,-2.6756,-2.6765,-2.6848,-2.7178,-2.727,-2.7352,-2.7739,-2.7564,-2.727,-2.727,-2.7004,-2.6747,-2.6692,-2.6683,-2.6655,-2.66,-2.6591,-2.6591,-2.6591,-2.6591,-2.6591,-2.6591,-2.6591,-2.6591,-2.6591,-2.6591,-2.6591,-2.6591,-2.6591,-2.6691,-2.6944,-2.6745,-2.6738,-2.7077,-2.7462,-2.7902,-2.8388,-2.8718,-2.892,-2.8984,-2.859,-2.8177,-2.7813,-2.7417,-2.6967,-1.4174,-1.4368,-1.4585,-1.4644,-1.4771,-1.4953,0.0,0.0,0.0,0.0,0.0,0.0,0.0,0.0,0.0,0.0,0.0,0.0,0.0,0.0,0.0,0.0,0.0,0.0,-2.5264,-2.5348,-2.545,-2.545,-2.5548,-2.5596,-2.5596,-2.6114,-2.6591,-2.6959,-2.7438,-2.7878,-2.8192,-2.8578,-2.8439,-2.7771,-2.7771,-2.7719,-2.7608,-2.7608,-2.7608,-2.7608,-2.7711,-2.7771,-2.7771,-2.796,-2.8089,-2.8233,-2.8007,-2.7776,-2.753,-2.7031,-2.6747,-2.6619,-2.6793,-2.7004,-2.7205,-2.7445,-2.7325,-2.7178,-2.7178,-2.6903,-2.6591,-2.6591,-2.6591,-2.6628,-2.6811,-2.6866,-2.6903,-2.7086,-2.6985,-2.6866,-2.6866,-2.6719,-2.6591,-2.6591,-2.6591,-2.6591,-2.6591,-2.6591,-2.6591,-2.6591,-2.6591,-2.6591,-2.6591,-2.6745,-2.6845,-2.6845,-2.6954,-2.7008,-2.7008,-2.7008,-2.6999,-2.6989,-2.689,-2.7068,-2.7697,-2.7787,-2.8067,-2.87,-2.8682,-2.8663,-2.8663,-2.8251,-2.7847,-2.7444,-2.726,-2.6967,-1.3997,-1.4347,-1.4705,-1.4761,0.0,0.0,0.0,0.0,0.0,0.0,0.0,0.0,0.0,0.0,0.0,0.0,0.0,0.0,0.0,0.0,0.0,0.0,0.0,-2.5308,-2.5127,-2.5119,-2.5119,-2.5119,-2.5181,-2.5241,-2.5241,-2.5877,-2.6421,-2.6773,-2.7387,-2.7942,-2.8251,-2.8544,-2.8496,-2.814,-2.814,-2.808,-2.802,-2.802,-2.802,-2.802,-2.808,-2.814,-2.814,-2.8199,-2.8388,-2.8582,-2.8074,-2.7749,-2.7416,-2.6811,-2.6591,-2.6591,-2.6591,-2.6784,-2.704,-2.704,-2.704,-2.704,-2.704,-2.683,-2.6591,-2.6591,-2.6591,-2.6591,-2.6591,-2.6591,-2.6591,-2.6591,-2.6591,-2.6591,-2.6591,-2.6591,-2.6591,-2.6591,-2.6591,-2.6591,-2.6591,-2.6591,-2.6591,-2.6591,-2.6636,-2.6691,-2.6691,-2.6944,-2.7098,-2.7098,-2.726,-2.7415,-2.7564,-2.7637,-2.7621,-2.7488,-2.7201,-2.7315,-2.8061,-2.7797,-2.7967,-2.8682,-2.8407,-2.8251,-2.8251,-2.7829,-2.7528,-2.7169,-2.7188,-2.6976,-1.3997,-1.4347,-1.4729,-1.4919,0.0,0.0,0.0,0.0,0.0,0.0,0.0,0.0,0.0,0.0,0.0,0.0,0.0,0.0,0.0,0.0,0.0,0.0,0.0,-2.5145,-2.5206,-2.4953,-2.4821,-2.4821,-2.4847,-2.4864,-2.4864,-2.5488,-2.6026,-2.6356,-2.6975,-2.7477,-2.7868,-2.7895,-2.8068,-2.8457,-2.8457,-2.8268,-2.802,-2.802,-2.802,-2.802,-2.8337,-2.8457,-2.8517,-2.8806,-2.8925,-2.8902,-2.8113,-2.7343,-2.6664,-2.6609,-2.6591,-2.6591,-2.6591,-2.6609,-2.6628,-2.6628,-2.6628,-2.6628,-2.6628,-2.6609,-2.6591,-2.6591,-2.6591,-2.6591,-2.6591,-2.6591,-2.6591,-2.6591,-2.6591,-2.6591,-2.6591,-2.6591,-2.6591,-2.6591,-2.6591,-2.6591,-2.6591,-2.6591,-2.6591,-2.6591,-2.6791,-2.6989,-2.6989,-2.7215,-2.7368,-2.7368,-2.7377,-2.7592,-2.8036,-2.8294,-2.8567,-2.8904,-2.7738,-2.7194,-2.7651,-2.7391,-2.7473,-2.7904,-2.7877,-2.7868,-2.7868,-2.7416,-2.7205,-2.7224,-2.7058,-2.7017,-1.3644,-1.4194,-1.4754,-1.4762,0.0,0.0,0.0,0.0,0.0,0.0,0.0,0.0,0.0,0.0,0.0,0.0,0.0,0.0,0.0,0.0,0.0,0.0,-2.5289,-2.5364,-2.5008,-2.4868,-2.4821,-2.4821,-2.4821,-2.4868,-2.5017,-2.5488,-2.5854,-2.6177,-2.6852,-2.7286,-2.7454,-2.7702,-2.7863,-2.8059,-2.8323,-2.851,-2.8618,-2.8618,-2.8618,-2.8627,-2.8746,-2.8806,-2.8815,-2.8925,-2.8838,-2.8535,-2.7719,-2.7068,-2.6591,-2.6591,-2.6591,-2.6591,-2.6591,-2.6591,-2.6591,-2.6591,-2.6591,-2.6591,-2.6591,-2.6591,-2.6591,-2.6591,-2.6591,-2.6591,-2.6591,-2.6591,-2.6591,-2.6591,-2.6591,-2.6591,-2.6591,-2.6591,-2.6591,-2.6591,-2.6591,-2.6591,-2.6591,-2.6745,-2.6836,-2.6836,-2.7107,-2.7269,-2.7269,-2.753,-2.7691,-2.7691,-2.8083,-2.853,-2.902,-2.9114,-2.9237,-2.9393,-2.8298,-2.7834,-2.8258,-2.7586,-2.7361,-2.7813,-2.7526,-2.7454,-2.7454,-2.7207,-2.7067,-2.7058,-2.7172,-2.7269,-1.3617,-1.417,-1.4759,0.0,0.0,0.0,0.0,0.0,0.0,0.0,0.0,0.0,0.0,0.0,0.0,0.0,0.0,0.0,0.0,0.0,0.0,0.0,-2.5566,-2.5633,-2.5145,-2.509,-2.509,-2.509,-2.509,-2.5136,-2.534,-2.5679,-2.5898,-2.6072,-2.6673,-2.6985,-2.6985,-2.726,-2.7453,-2.7581,-2.7875,-2.8214,-2.8599,-2.8599,-2.8673,-2.8801,-2.891,-2.9033,-2.9153,-2.9281,-2.8966,-2.842,-2.7716,-2.7206,-2.6854,-2.6854,-2.6854,-2.6854,-2.6854,-2.6854,-2.6854,-2.6854,-2.68,-2.6745,-2.6745,-2.6691,-2.6591,-2.6591,-2.6591,-2.6591,-2.6591,-2.6591,-2.6591,-2.6591,-2.6591,-2.6591,-2.6591,-2.6591,-2.6646,-2.6691,-2.6745,-2.6736,-2.6854,-2.6999,-2.7152,-2.7152,-2.7368,-2.7539,-2.7539,-2.7853,-2.8072,-2.8197,-2.8758,-2.9297,-2.9726,-2.9766,-2.9834,-2.998,-2.9007,-2.8489,-2.8641,-2.7753,-2.7382,-2.766,-2.7391,-2.7253,-2.7253,-2.7184,-2.7152,-2.7152,-2.753,-2.7701,-1.3971,-1.4343,0.0,0.0,0.0,0.0,0.0,0.0,0.0,0.0,0.0,0.0,0.0,0.0,0.0,0.0,0.0,0.0,0.0,0.0,0.0,-2.5504,-2.5838,-2.6017,-2.5743,-2.5688,-2.5688,-2.5688,-2.5688,-2.5688,-2.5688,-2.5962,-2.6127,-2.6127,-2.6418,-2.6591,-2.6591,-2.6591,-2.6784,-2.7169,-2.7169,-2.7436,-2.7822,-2.7822,-2.7994,-2.8388,-2.8661,-2.9049,-2.949,-2.9785,-2.942,-2.8625,-2.8198,-2.7727,-2.7377,-2.7377,-2.7377,-2.7377,-2.7377,-2.7377,-2.7377,-2.7377,-2.7206,-2.6989,-2.6989,-2.6845,-2.6591,-2.6591,-2.6591,-2.6591,-2.6591,-2.6591,-2.6591,-2.6591,-2.6591,-2.6591,-2.6591,-2.6591,-2.6691,-2.6935,-2.6989,-2.7098,-2.7368,-2.7377,-2.7377,-2.7377,-2.7691,-2.7906,-2.7906,-2.813,-2.8457,-2.8877,-2.9316,-2.9746,-3.0166,-3.0205,-3.04,-3.0859,-2.9784,-2.8939,-2.8535,-2.7767,-2.7377,-2.7377,-2.7377,-2.7377,-2.7377,-2.7431,-2.7431,-2.7431,-2.8023,-2.8291,-1.3866,0.0,0.0,0.0,0.0,0.0,0.0,0.0,0.0,0.0,0.0,0.0,0.0,0.0,0.0,0.0,0.0,0.0,0.0,0.0,-2.5567,-2.591,-2.6,-2.6017,-2.5743,-2.5688,-2.5688,-2.5688,-2.5688,-2.5798,-2.5962,-2.6072,-2.619,-2.6418,-2.6527,-2.6591,-2.6591,-2.6591,-2.6646,-2.6765,-2.6765,-2.7114,-2.7822,-2.7822,-2.7952,-2.8244,-2.8349,-2.8538,-2.8851,-2.8663,-2.8389,-2.8179,-2.7718,-2.7536,-2.7377,-2.7377,-2.7377,-2.7377,-2.7377,-2.7377,-2.7377,-2.7377,-2.7377,-2.726,-2.726,-2.7215,-2.7107,-2.6944,-2.6999,-2.7107,-2.6944,-2.6999,-2.7062,-2.6691,-2.6736,-2.689,-2.689,-2.7053,-2.7161,-2.7269,-2.726,-2.7323,-2.7377,-2.7584,-2.7745,-2.7745,-2.8023,-2.8184,-2.8184,-2.8501,-2.8896,-2.9326,-2.9756,-3.0195,-3.0644,-3.0684,-3.0742,-3.0879,-3.0002,-2.9288,-2.8949,-2.792,-2.7377,-2.7377,-2.7377,-2.7539,-2.7745,-2.796,-2.8121,-2.8325,-2.8708,-2.8973,-1.4053,0.0,0.0,0.0,0.0,0.0,0.0,0.0,0.0,0.0,0.0,0.0,0.0,0.0,0.0,0.0,0.0,0.0,-2.4837,-2.5162,-2.5567,-2.6236,-2.63,-2.6245,-2.6081,-2.6081,-2.6081,-2.6081,-2.6081,-2.6136,-2.63,-2.63,-2.6409,-2.6582,-2.6591,-2.6591,-2.6591,-2.6591,-2.6591,-2.6591,-2.6591,-2.6839,-2.7353,-2.7456,-2.766,-2.7996,-2.838,-2.8794,-2.9103,-2.8725,-2.8597,-2.8658,-2.8232,-2.8067,-2.8067,-2.797,-2.7916,-2.7916,-2.7809,-2.7755,-2.7755,-2.7755,-2.7701,-2.7584,-2.7584,-2.7485,-2.7377,-2.7206,-2.726,-2.7377,-2.7206,-2.726,-2.7323,-2.7008,-2.7053,-2.7152,-2.7152,-2.7269,-2.7431,-2.7593,-2.7584,-2.7638,-2.7755,-2.7916,-2.8067,-2.8067,-2.8184,-2.8359,-2.8525,-2.8916,-2.9346,-2.9775,-3.0215,-3.0586,-3.0869,-3.0889,-3.0889,-3.0889,-3.0059,-2.957,-2.9468,-2.8478,-2.7916,-2.7916,-2.8014,-2.8174,-2.8388,-2.8548,-2.8761,-2.9069,-2.9343,-2.9606,0.0,0.0,0.0,0.0,0.0,0.0,0.0,0.0,0.0,0.0,0.0,0.0,0.0,0.0,0.0,0.0,0.0,-2.3514,-2.4785,-2.5034,-2.5447,-2.6499,-2.6591,-2.6591,-2.6591,-2.6591,-2.6591,-2.6591,-2.6591,-2.6591,-2.6591,-2.6591,-2.6591,-2.6591,-2.6591,-2.6591,-2.6591,-2.6591,-2.6591,-2.6591,-2.6591,-2.6591,-2.6636,-2.689,-2.7258,-2.7696,-2.863,-2.9351,-2.9887,-2.9491,-2.9539,-2.9695,-2.9293,-2.9079,-2.9079,-2.8834,-2.8727,-2.8674,-2.8451,-2.8344,-2.8344,-2.8344,-2.8184,-2.796,-2.796,-2.7691,-2.7485,-2.7431,-2.7476,-2.7485,-2.7431,-2.7476,-2.7485,-2.7485,-2.7476,-2.7431,-2.7431,-2.7476,-2.7593,-2.7853,-2.796,-2.8014,-2.8237,-2.8291,-2.8291,-2.8291,-2.8291,-2.8447,-2.8867,-2.9297,-2.9726,-3.0156,-3.0615,-3.0889,-3.0889,-3.0889,-3.0889,-3.0889,-3.0154,-2.9787,-2.998,-2.9139,-2.8727,-2.8727,-2.9036,-2.9185,-2.9185,-2.9185,-2.9396,-2.9711,-2.9931,-3.0245,0.0,0.0,0.0,0.0,0.0,0.0,0.0,0.0,0.0,0.0,0.0,0.0,0.0,0.0,0.0,0.0,0.0,-2.3719,-2.456,-2.511,-2.5711,-2.6472,-2.6591,-2.6591,-2.6591,-2.6591,-2.6591,-2.6591,-2.6591,-2.6591,-2.6591,-2.6591,-2.6591,-2.6591,-2.6591,-2.6591,-2.6591,-2.6591,-2.6591,-2.6591,-2.6591,-2.6691,-2.6944,-2.6989,-2.7307,-2.7889,-2.8535,-2.8854,-2.9005,-2.911,-2.9176,-2.9263,-2.9119,-2.9079,-2.9079,-2.9036,-2.9026,-2.9036,-2.8973,-2.8771,-2.8621,-2.8621,-2.8451,-2.8237,-2.8237,-2.8184,-2.8077,-2.7853,-2.796,-2.8077,-2.7853,-2.797,-2.813,-2.813,-2.797,-2.7799,-2.7799,-2.797,-2.813,-2.8184,-2.8237,-2.8237,-2.8291,-2.8291,-2.8291,-2.8291,-2.8291,-2.8447,-2.8867,-2.9297,-2.9726,-3.0156,-3.0615,-3.0889,-3.0889,-3.0889,-3.0889,-3.0889,-3.062,-3.0336,-2.999,-2.9139,-2.8781,-2.9036,-2.9343,-2.9606,-2.9837,-3.0026,-3.0297,-3.0568,-3.062,-3.0868,0.0,0.0,0.0,0.0,0.0,0.0,0.0,0.0,0.0,0.0,0.0,0.0,0.0,0.0,0.0,0.0,-2.3272,-2.3697,-2.4405,-2.4956,-2.5512,-2.6233,-2.6463,-2.6591,-2.6591,-2.6591,-2.6591,-2.6591,-2.6591,-2.6591,-2.6591,-2.6591,-2.6591,-2.6591,-2.6591,-2.6591,-2.6591,-2.6591,-2.6591,-2.6591,-2.6736,-2.6999,-2.7422,-2.7422,-2.7745,-2.8291,-2.8568,-2.8887,-2.9142,-2.929,-2.9396,-2.9511,-2.9511,-2.9511,-2.9511,-2.9396,-2.9343,-2.9343,-2.9185,-2.9036,-2.8877,-2.8877,-2.8727,-2.8514,-2.8514,-2.8408,-2.8291,-2.8121,-2.8184,-2.8291,-2.813,-2.8291,-2.8514,-2.8514,-2.8291,-2.8067,-2.8067,-2.8184,-2.8291,-2.8291,-2.8291,-2.8291,-2.8291,-2.8291,-2.8291,-2.8291,-2.8291,-2.8447,-2.8867,-2.9297,-2.9726,-3.0156,-3.0615,-3.0889,-3.0889,-3.0889,-3.0889,-3.0889,-3.0766,-3.0638,-3.0512,-2.9991,-2.9639,-2.9511,-2.9931,-3.0245,-3.036,-3.0516,-3.0817,-3.1178,-3.1178,-3.1487,0.0,0.0,0.0,0.0,0.0,0.0,0.0,0.0,0.0,0.0,0.0,0.0,0.0,0.0,0.0,0.0,-2.3447,-2.3698,-2.4314,-2.4751,-2.5209,-2.5812,-2.6224,-2.6481,-2.6481,-2.6545,-2.6591,-2.6591,-2.6591,-2.6591,-2.6591,-2.6591,-2.6591,-2.6591,-2.6591,-2.6591,-2.6591,-2.6591,-2.6591,-2.6591,-2.6944,-2.7368,-2.7906,-2.8014,-2.8291,-2.8737,-2.8781,-2.9142,-2.9606,-2.9711,-2.9879,-3.0047,-3.0099,-3.0099,-3.0036,-2.9816,-2.9711,-2.9606,-2.9343,-2.9237,-2.9185,-2.9185,-2.8983,-2.8781,-2.8781,-2.8621,-2.8451,-2.8451,-2.8451,-2.8451,-2.8451,-2.8611,-2.8781,-2.8781,-2.8611,-2.8451,-2.8451,-2.8451,-2.8451,-2.8451,-2.8451,-2.8451,-2.8451,-2.8398,-2.8354,-2.8354,-2.8344,-2.8447,-2.8867,-2.9297,-2.9726,-3.0156,-3.0615,-3.0889,-3.0889,-3.0889,-3.0889,-3.0947,-3.0892,-3.0987,-3.1226,-3.1145,-3.0817,-3.0328,-3.0662,-3.0879,-3.0931,-3.0983,-3.1281,-3.1783,-3.1783,-3.2037,0.0,0.0,0.0,0.0,0.0,0.0,0.0,0.0,0.0,0.0,0.0,0.0,0.0,0.0,0.0,0.0,-2.3596,-2.3899,-2.4365,-2.4669,-2.5005,-2.5451,-2.5855,-2.6094,-2.6094,-2.6371,-2.6591,-2.6591,-2.6591,-2.6591,-2.6591,-2.6591,-2.6591,-2.6591,-2.6591,-2.6591,-2.6591,-2.6591,-2.6591,-2.6591,-2.7116,-2.753,-2.7906,-2.8398,-2.8621,-2.8737,-2.9248,-2.9501,-2.9659,-3.0078,-3.0287,-3.0349,-3.062,-3.0568,-3.0339,-3.0287,-3.0141,-2.9942,-2.9889,-2.9722,-2.9554,-2.9554,-2.929,-2.9026,-2.9026,-2.9026,-2.8973,-2.8973,-2.8973,-2.8973,-2.8973,-2.9026,-2.9026,-2.9026,-2.9026,-2.8973,-2.8973,-2.8973,-2.8973,-2.8973,-2.8973,-2.8973,-2.8973,-2.8824,-2.8631,-2.8631,-2.8461,-2.8447,-2.8867,-2.9297,-2.9726,-3.0156,-3.0615,-3.0889,-3.0889,-3.0889,-3.1005,-3.1218,-3.1506,-3.1697,-3.1845,-3.2343,-3.2306,-3.1676,-3.1331,-3.127,-3.1476,-3.1721,-3.2026,-3.2392,-3.2392,-3.2555,0.0,0.0,0.0,0.0,0.0,0.0,0.0,0.0,0.0,0.0,0.0,0.0,0.0,0.0,0.0,0.0,-2.3954,-2.4067,-2.4249,-2.4578,-2.4849,-2.5023,-2.5442,-2.5681,-2.5681,-2.5793,-2.5903,-2.5903,-2.6168,-2.6233,-2.6233,-2.6463,-2.6591,-2.6591,-2.6591,-2.6591,-2.6591,-2.6591,-2.6745,-2.7062,-2.7269,-2.7755,-2.8344,-2.8771,-2.893,-2.893,-2.9396,-2.9764,-3.0078,-3.0287,-3.0505,-3.062,-3.0776,-3.0724,-3.062,-3.0443,-3.0349,-3.0193,-3.0047,-2.9942,-2.9827,-2.9827,-2.9617,-2.9396,-2.9396,-2.9237,-2.9079,-2.9079,-2.9079,-2.9079,-2.9079,-2.9237,-2.9396,-2.9396,-2.9501,-2.9617,-2.9617,-2.9353,-2.9079,-2.9079,-2.9079,-2.9079,-2.9079,-2.8973,-2.893,-2.893,-2.8727,-2.8583,-2.877,-2.9055,-2.9277,-2.9463,-3.0088,-3.0508,-3.0508,-3.0906,-3.116,-3.1267,-3.1787,-3.2156,-3.2385,-3.2717,-3.2757,-3.25,-3.2232,-3.2005,-3.1823,-3.2128,-3.2443,-3.2718,-3.2718,-3.288,0.0,0.0,0.0,0.0,0.0,0.0,0.0,0.0,0.0,0.0,0.0,0.0,0.0,0.0,0.0,0.0,0.0,-2.4279,-2.4381,-2.4618,-2.4821,-2.4821,-2.5173,-2.5413,-2.5413,-2.5515,-2.558,-2.558,-2.5804,-2.597,-2.597,-2.6159,-2.6279,-2.6279,-2.6279,-2.6279,-2.6279,-2.6387,-2.6647,-2.711,-2.7163,-2.7646,-2.8559,-2.8813,-2.9021,-2.9237,-2.9554,-2.9973,-3.0391,-3.0443,-3.0661,-3.0931,-3.0983,-3.0931,-3.0776,-3.0557,-3.0401,-3.0297,-3.0047,-2.9994,-2.9994,-2.9994,-2.9879,-2.9722,-2.9722,-2.9501,-2.9343,-2.9343,-2.9343,-2.9343,-2.9343,-2.9501,-2.9722,-2.9722,-2.9827,-2.9994,-2.9994,-2.9669,-2.9343,-2.9343,-2.9343,-2.9343,-2.9343,-2.929,-2.9237,-2.9237,-2.8983,-2.8781,-2.8781,-2.8986,-2.9134,-2.9134,-2.9813,-3.0256,-3.0256,-3.0841,-3.1271,-3.1387,-3.2004,-3.2592,-3.2924,-3.3117,-3.3157,-3.3157,-3.3113,-3.2823,-3.224,-3.2505,-3.265,-3.2787,-3.2787,-3.2818,0.0,0.0,0.0,0.0,0.0,0.0,0.0,0.0,0.0,0.0,0.0,0.0,0.0,0.0,0.0,0.0,0.0,-2.4448,-2.4826,-2.4852,-2.4871,-2.4871,-2.523,-2.5475,-2.5475,-2.5843,-2.6036,-2.6036,-2.5909,-2.5824,-2.5824,-2.5583,-2.5488,-2.5488,-2.5488,-2.5488,-2.5488,-2.5696,-2.5999,-2.629,-2.6506,-2.7172,-2.8145,-2.8415,-2.8896,-2.9606,-2.9879,-3.0141,-3.0443,-3.0661,-3.0931,-3.1178,-3.1476,-3.123,-3.0786,-3.0776,-3.0464,-2.9994,-2.9994,-2.9994,-2.9994,-2.9994,-2.9994,-2.9994,-2.9994,-2.9994,-2.9942,-2.9942,-2.9942,-2.9942,-2.9942,-2.9994,-2.9994,-2.9994,-2.9994,-2.9994,-2.9994,-2.9994,-2.9942,-2.9942,-2.9942,-2.9942,-2.9942,-2.9722,-2.9554,-2.9554,-2.929,-2.9079,-2.9079,-2.947,-2.9752,-2.9752,-3.0153,-3.0369,-3.0369,-3.0836,-3.1267,-3.1549,-3.2287,-3.2924,-3.3512,-3.3896,-3.3844,-3.3489,-3.371,-3.3544,-3.2841,-3.2891,-3.278,-3.2523,-3.2523,-3.2282,0.0,0.0,0.0,0.0,0.0,0.0,0.0,0.0,0.0,0.0,0.0,0.0,0.0,0.0,0.0,0.0,0.0,-2.4079,-2.4438,-2.4495,-2.459,-2.4854,-2.5015,-2.51,-2.51,-2.5242,-2.5336,-2.5336,-2.5481,-2.5622,-2.5622,-2.5732,-2.5829,-2.5829,-2.5829,-2.5829,-2.5829,-2.5942,-2.6139,-2.6439,-2.6541,-2.708,-2.7902,-2.8306,-2.8827,-2.9405,-2.9818,-3.0141,-3.0391,-3.0505,-3.0713,-3.0931,-3.1023,-3.0983,-3.0776,-3.062,-3.0401,-3.0245,-3.0047,-2.9994,-2.9994,-2.9994,-2.9994,-2.9994,-2.9994,-2.9994,-2.9994,-2.9994,-2.9994,-2.9994,-2.9994,-2.9994,-2.9994,-2.9994,-2.9994,-2.9994,-2.9994,-2.9994,-2.9994,-2.9994,-2.9994,-2.9994,-2.9994,-2.9942,-2.9879,-2.9879,-2.9617,-2.9396,-2.9396,-2.9379,-2.9373,-2.9373,-2.9766,-3.0027,-3.0027,-3.077,-3.1257,-3.1422,-3.2291,-3.299,-3.3379,-3.3723,-3.3868,-3.3743,-3.3724,-3.3446,-3.2891,-3.3081,-3.3017,-3.2755,-3.2755,-3.2586,0.0,0.0,0.0,0.0,0.0,0.0,0.0,0.0,0.0,0.0,0.0,0.0,0.0,0.0,0.0,0.0,0.0,-2.4108,-2.4513,-2.4581,-2.4677,-2.4957,-2.4996,-2.4996,-2.4996,-2.5025,-2.5063,-2.5063,-2.5299,-2.5438,-2.5438,-2.5613,-2.5724,-2.5724,-2.5724,-2.5724,-2.5724,-2.5774,-2.5917,-2.617,-2.6371,-2.6851,-2.7613,-2.8147,-2.8748,-2.9332,-2.9798,-3.0141,-3.0391,-3.0391,-3.0557,-3.0786,-3.0786,-3.0724,-3.062,-3.0453,-3.0339,-3.0245,-3.0047,-2.9994,-2.9994,-2.9994,-2.9994,-2.9994,-3.0099,-3.0141,-3.0141,-3.0141,-3.0141,-3.0088,-3.0047,-2.9994,-2.9994,-2.9994,-2.9994,-2.9994,-2.9994,-2.9994,-2.9994,-2.9994,-2.9994,-2.9994,-2.9994,-2.9994,-2.9994,-2.9994,-2.9837,-2.9774,-2.9869,-2.9659,-2.9554,-2.9659,-2.9935,-3.012,-3.012,-3.0907,-3.1383,-3.1383,-3.2249,-3.2942,-3.316,-3.3497,-3.3709,-3.3802,-3.3673,-3.3458,-3.3192,-3.317,-3.2961,-3.2645,-3.2519,-3.2265,0.0,0.0,0.0,0.0,0.0,0.0,0.0,0.0,0.0,0.0,0.0,0.0,0.0,0.0,0.0,0.0,0.0,-2.4625,-2.5012,-2.5083,-2.5103,-2.5113,-2.5113,-2.5113,-2.5113,-2.5262,-2.5369,-2.5369,-2.5343,-2.5294,-2.5294,-2.505,-2.4903,-2.4913,-2.4913,-2.4922,-2.4932,-2.5235,-2.5333,-2.5333,-2.5858,-2.6475,-2.7209,-2.7882,-2.8583,-2.9311,-2.9777,-3.013,-3.0391,-3.0391,-3.0557,-3.0776,-3.0776,-3.0609,-3.0391,-3.0391,-3.0245,-2.9994,-2.9994,-2.9994,-2.9994,-2.9994,-2.9994,-3.0047,-3.0339,-3.0391,-3.0391,-3.0391,-3.0391,-3.0339,-3.0099,-2.9994,-2.9994,-2.9994,-2.9994,-2.9994,-2.9994,-2.9994,-2.9994,-2.9994,-2.9994,-2.9994,-2.9994,-2.9994,-2.9994,-2.9994,-2.9994,-3.0141,-3.0391,-3.0391,-3.0505,-3.0776,-3.0786,-3.0786,-3.0786,-3.1232,-3.1476,-3.1476,-3.218,-3.2717,-3.3007,-3.3338,-3.3529,-3.3606,-3.3583,-3.365,-3.3656,-3.3157,-3.2645,-3.2099,-3.1844,-3.1328,-1.7284,0.0,0.0,0.0,0.0,0.0,0.0,0.0,0.0,0.0,0.0,0.0,0.0,0.0,0.0,0.0,0.0,-2.371,-2.4099,-2.444,-2.4761,-2.5072,-2.5113,-2.5113,-2.5113,-2.5131,-2.5201,0.0,-2.5172,-2.5159,-2.5159,-2.5056,-2.5204,-2.552,-2.553,-2.5736,-2.6052,-2.611,-2.6159,-2.6159,-2.6304,-2.6615,-2.6998,-2.7523,-2.8111,-2.8835,-2.929,-2.9735,-3.0099,-3.0099,-3.0151,-3.0203,-3.0203,-3.0203,-3.0099,-3.0099,-3.0047,-2.9994,-2.9994,-2.9994,-2.9994,-2.9994,-3.0141,-3.0287,-3.0391,-3.0557,-3.0672,-3.0672,-3.0672,-3.062,-3.0349,-3.0141,-2.9994,-2.9994,-2.9994,-2.9994,-2.9994,-2.9994,-2.9994,-2.9994,-2.9994,-2.9994,-2.9994,-3.0141,-3.0287,-3.0287,-3.0453,-3.062,-3.0672,-3.0672,-3.0724,-3.0776,-3.0786,-3.0786,-3.0786,-3.11,-3.1268,-3.1268,-3.218,-3.2779,-3.2831,-3.3343,-3.3587,-3.3606,-3.3457,-3.3285,-3.3133,-3.2982,-3.2838,-3.2641,-3.1993,-3.1404,0.0,0.0,0.0,0.0,0.0,0.0,-1.8928,-1.9592,-2.0222,0.0,0.0,0.0,0.0,0.0,0.0,0.0,0.0,-2.3008,-2.3721,-2.4029,-2.4286,-2.4543,-2.4574,-2.4656,-2.4841,-2.4948,-2.4999,-2.5147,-2.5239,-2.5204,-2.5113,-2.5113,-2.5233,-2.5494,-2.5504,-2.5715,-2.6215,-2.6215,-2.6315,-2.6496,-2.6592,-2.6757,-2.6911,-2.7485,-2.8035,-2.8638,-2.9104,-2.957,-2.9994,-2.9994,-2.9994,-2.9994,-2.9994,-2.9994,-2.9994,-2.9994,-2.9994,-2.9994,-2.9994,-3.0047,-3.0193,-3.0193,-3.0349,-3.0609,-3.0713,-3.0817,-3.0983,-3.0983,-3.0879,-3.0724,-3.0453,-3.0297,-3.0151,-3.0047,-2.9994,-2.9994,-2.9994,-3.0099,-3.0141,-3.0047,-3.0099,-3.0193,-3.0193,-3.0401,-3.0557,-3.0557,-3.0724,-3.0827,-3.0931,-3.0983,-3.1034,-3.1127,-3.1127,-3.1178,-3.127,-3.1424,-3.1578,-3.1732,-3.2314,-3.2737,-3.2851,-3.3158,-3.3351,-3.3452,-3.338,-3.3123,-3.2743,-3.2743,-3.2606,-3.2371,-3.1917,-3.1451,0.0,0.0,0.0,0.0,0.0,0.0,-1.8674,-1.9379,-2.0154,-2.071,0.0,0.0,0.0,0.0,0.0,0.0,0.0,0.0,-2.3481,-2.3708,-2.3783,-2.3783,-2.3836,-2.4028,-2.4413,-2.4619,-2.4817,-2.5018,-2.5242,-2.5263,-2.5028,-2.5078,-2.5118,-2.5169,-2.5169,-2.5391,-2.5835,-2.5896,-2.6118,-2.6522,-2.6822,-2.6948,-2.6959,-2.7579,-2.81,-2.8566,-2.9032,-2.9497,-2.9922,-2.9973,-2.9994,-2.9994,-2.9994,-2.9994,-2.9994,-2.9994,-2.9994,-3.0047,-3.0047,-3.0193,-3.0443,-3.0443,-3.0609,-3.0879,-3.1127,-3.123,-3.123,-3.123,-3.1023,-3.0776,-3.0547,-3.0443,-3.0349,-3.0088,-3.0047,-2.9994,-3.0047,-3.0245,-3.0349,-3.0151,-3.0297,-3.0443,-3.0443,-3.0661,-3.0827,-3.0827,-3.0879,-3.0983,-3.123,-3.123,-3.1333,-3.1567,-3.1618,-3.1721,-3.1975,-3.2015,-3.2179,-3.2493,-3.2555,-3.2656,-3.288,-3.2942,-3.3042,-3.3281,-3.3227,-3.2943,-3.2395,-3.2488,-3.2201,-3.1705,-3.1661,-3.1407,0.0,0.0,0.0,0.0,0.0,0.0,-1.9074,-1.933,-1.9738,0.0,0.0,0.0,0.0,0.0,0.0,0.0,0.0,0.0,-2.2498,-2.3172,-2.3649,-2.3649,-2.4017,-2.4259,-2.4186,-2.4202,-2.4166,-2.4059,-2.4461,-2.4682,-2.4598,-2.4977,-2.5345,-2.5723,-2.5734,-2.5866,-2.6135,-2.652,-2.6656,-2.6573,-2.7039,-2.7214,-2.7225,-2.7355,-2.7634,-2.803,-2.8545,-2.9011,-2.9466,-2.9839,-2.9994,-2.9994,-2.9994,-2.9994,-2.9994,-2.9994,-3.0151,-3.0339,-3.0339,-3.0505,-3.0724,-3.0724,-3.092,-3.1127,-3.1178,-3.1322,-3.1527,-3.1527,-3.1322,-3.1127,-3.1075,-3.0703,-3.0391,-3.0339,-3.0141,-3.0047,-3.0297,-3.0339,-3.0453,-3.062,-3.0672,-3.0724,-3.0724,-3.092,-3.1127,-3.1127,-3.1333,-3.1476,-3.1527,-3.1527,-3.1516,-3.1567,-3.1772,-3.1913,-3.2015,-3.2229,-3.2443,-3.2493,-3.2718,-3.2841,-3.2891,-3.3081,-3.3231,-3.3281,-3.2878,-3.2382,-3.1877,-3.2269,-3.222,-3.1705,-3.1484,-3.1229,0.0,0.0,0.0,-1.9002,0.0,0.0,0.0,-1.9242,-1.9561,-2.022,0.0,0.0,0.0,0.0,0.0,0.0,0.0,0.0,-2.1362,-2.234,-2.3092,-2.3092,-2.3326,-2.3546,-2.3577,-2.3808,-2.4034,-2.4223,-2.4363,-2.4463,-2.4463,-2.4893,-2.5206,-2.5338,-2.5562,-2.5818,-2.6066,-2.6496,-2.6809,-2.6949,-2.7411,-2.7631,-2.7631,-2.7631,-2.7872,-2.8345,-2.8806,-2.9279,-2.9751,-3.0223,-3.0412,-3.0412,-3.0245,-3.0193,-3.0193,-3.036,-3.0464,-3.0609,-3.0609,-3.0776,-3.0983,-3.0983,-3.1178,-3.1373,-3.1373,-3.1476,-3.1618,-3.1618,-3.1527,-3.1373,-3.1219,-3.1013,-3.0703,-3.0443,-3.0401,-3.0412,-3.0391,-3.0599,-3.0868,-3.0972,-3.1127,-3.1178,-3.1023,-3.123,-3.1373,-3.1373,-3.1516,-3.1618,-3.1618,-3.1618,-3.1618,-3.1618,-3.1823,-3.2077,-3.2229,-3.2505,-3.2718,-3.2718,-3.293,-3.3042,-3.2891,-3.3142,-3.3155,-3.2891,-3.2637,-3.2218,-3.1713,-3.1977,-3.1982,-3.1705,-3.1572,-3.1318,0.0,0.0,0.0,0.0,0.0,-1.9161,0.0,0.0,0.0,0.0,0.0,0.0,0.0,0.0,0.0,0.0,0.0,0.0,0.0,-2.1658,0.0,-2.2369,-2.2521,-2.2707,-2.2936,-2.3332,-2.3773,-2.4253,-2.4343,-2.4326,-2.4287,-2.4814,-2.5095,-2.5011,-2.538,-2.5677,-2.5904,-2.6385,-2.6766,-2.7154,-2.7647,-2.7913,-2.7998,-2.7998,-2.82,-2.8593,-2.9072,-2.9551,-3.003,-3.0446,-3.0701,-3.0776,-3.0557,-3.0505,-3.0505,-3.0724,-3.0827,-3.0879,-3.0879,-3.1023,-3.1281,-3.1281,-3.1424,-3.1618,-3.1618,-3.1618,-3.1618,-3.1618,-3.1618,-3.1578,-3.1322,-3.123,-3.1075,-3.0651,-3.0661,-3.0776,-3.0609,-3.0909,-3.123,-3.1281,-3.1476,-3.1527,-3.1322,-3.1476,-3.1618,-3.1618,-3.1618,-3.1618,-3.1618,-3.1618,-3.1618,-3.1618,-3.1874,-3.2229,-3.2493,-3.2729,-3.2891,-3.2891,-3.3031,-3.3081,-3.2891,-3.3142,-3.3028,-3.2489,-3.2497,-3.2218,-3.1713,-3.169,-3.1705,-3.1705,-3.1661,-3.1407,0.0,0.0,0.0,0.0,-2.0311,0.0,0.0,0.0,-2.0076,-2.0576,0.0,0.0,0.0,0.0,0.0,0.0,0.0,0.0,-2.1269,-2.1452,-2.1513,-2.1451,-2.2242,-2.2687,-2.2418,-2.2603,-2.2754,-2.2845,-2.3642,-2.4081,-2.3886,-2.4777,-2.538,-2.569,-2.5757,-2.582,-2.5888,-2.6378,-2.6638,-2.67,-2.7179,-2.7604,-2.7998,-2.7998,-2.8019,-2.8104,-2.8572,-2.9051,-2.953,-3.0008,-3.0404,-3.0786,-3.0786,-3.0776,-3.0776,-3.0786,-3.0931,-3.1178,-3.1178,-3.1322,-3.1567,-3.1567,-3.1578,-3.1618,-3.1618,-3.1618,-3.1618,-3.1618,-3.1618,-3.1578,-3.1578,-3.1373,-3.1178,-3.1127,-3.0931,-3.0879,-3.1075,-3.1178,-3.1281,-3.1527,-3.1578,-3.1578,-3.1578,-3.1578,-3.1618,-3.1618,-3.1618,-3.1618,-3.1618,-3.1618,-3.1618,-3.1618,-3.2088,-3.2443,-3.2493,-3.2729,-3.2891,-3.2891,-3.2718,-3.2656,-3.288,-3.3142,-3.3028,-3.2489,-3.2497,-3.2218,-3.1713,-3.169,-3.1705,-3.1705,-3.1439,-3.1229,0.0,0.0,0.0,0.0,0.0,0.0,-2.0442,0.0,-2.0447,0.0,0.0,0.0,0.0,0.0,0.0,0.0,-2.0567,0.0,0.0,0.0,-2.0949,0.0,0.0,0.0,-2.1944,-2.2151,-2.2415,-2.27,-2.3324,-2.3793,-2.4002,-2.4638,-2.505,-2.527,-2.5825,-2.6033,-2.585,-2.6477,-2.679,-2.677,-2.7406,-2.7872,-2.8239,-2.8522,-2.8653,-2.8686,-2.9186,-2.9569,-2.9899,-3.0363,-3.0838,-3.127,-3.127,-3.1178,-3.1023,-3.123,-3.1333,-3.1424,-3.1424,-3.1618,-3.1874,-3.2088,-3.2139,-3.2088,-3.1874,-3.1823,-3.1823,-3.1618,-3.1618,-3.1618,-3.1618,-3.1527,-3.1373,-3.123,-3.123,-3.123,-3.123,-3.1322,-3.1476,-3.1578,-3.1618,-3.1717,-3.2012,-3.2066,-3.2066,-3.2066,-3.2066,-3.2066,-3.2066,-3.1804,-3.1618,-3.1618,-3.2139,-3.2493,-3.2493,-3.2869,-3.298,-3.2718,-3.2555,-3.2606,-3.2891,-3.3142,-3.3028,-3.2489,-3.2497,-3.2218,-3.1713,-3.169,-3.1705,-3.1705,-3.1572,-3.1395,-2.2037,0.0,0.0,0.0,0.0,0.0,0.0,0.0,0.0,0.0,0.0,0.0,0.0,0.0,0.0,-2.0093,0.0,-2.027,0.0,0.0,0.0,0.0,0.0,0.0,0.0,-2.1858,-2.2037,-2.2394,-2.2939,-2.3394,-2.3735,-2.4317,-2.4718,-2.4914,-2.5655,-2.6045,-2.5971,-2.6423,-2.6788,-2.7034,-2.7657,-2.8175,-2.8499,-2.8987,-2.922,-2.9242,-2.9609,-2.9958,-3.024,-3.0751,-3.1185,-3.1647,-3.1779,-3.1732,-3.1578,-3.1578,-3.1629,-3.1721,-3.1721,-3.1874,-3.2179,-3.2443,-3.2493,-3.2443,-3.2229,-3.2128,-3.2077,-3.1772,-3.1721,-3.1669,-3.1629,-3.1618,-3.1578,-3.1373,-3.1476,-3.1578,-3.1322,-3.1476,-3.1618,-3.1618,-3.1618,-3.1782,-3.2295,-3.2383,-3.2427,-3.2558,-3.2569,-3.2525,-3.2394,-3.2055,-3.1771,-3.1742,-3.219,-3.2555,-3.2606,-3.298,-3.2969,-3.2544,-3.2555,-3.2718,-3.288,-3.3142,-3.3097,-3.2707,-3.2567,-3.2289,-3.1936,-3.1774,-3.1705,-3.1705,-3.1705,-3.1572,0.0,0.0,0.0,-2.2514,0.0,0.0,0.0,0.0,-2.1373,0.0,0.0,0.0,0.0,-2.0799,-2.0728,-2.0271,-2.0422,0.0,0.0,0.0,0.0,0.0,0.0,0.0,0.0,-2.1599,-2.1415,-2.1428,-2.2295,-2.2739,-2.2555,-2.3788,-2.4656,-2.4992,-2.5148,-2.5593,-2.6376,-2.6211,-2.6531,-2.7312,-2.775,-2.8243,-2.8724,-2.9261,-2.9485,-2.9485,-2.9508,-2.9753,-3.0245,-3.0785,-3.1289,-3.1732,-3.2264,-3.2443,-3.2392,-3.1834,-3.1772,-3.1964,-3.1964,-3.2229,-3.2493,-3.2493,-3.2493,-3.2493,-3.2493,-3.2493,-3.2392,-3.2077,-3.1964,-3.1913,-3.1669,-3.1618,-3.1618,-3.1578,-3.1567,-3.1618,-3.1578,-3.1567,-3.1618,-3.1618,-3.1618,-3.1782,-3.2295,-3.2383,-3.2536,-3.3026,-3.3103,-3.2938,-3.2437,-3.2372,-3.2268,-3.202,-3.228,-3.2606,-3.2891,-3.2891,-3.2779,-3.2493,-3.2718,-3.288,-3.2891,-3.3142,-3.3281,-3.3258,-3.2765,-3.2477,-3.2453,-3.1953,-3.1705,-3.1705,-3.1705,-3.1572,-2.3017,-2.2782,-2.2552,-2.2331,-2.2355,-2.2465,0.0,0.0,0.0,0.0,0.0,0.0,0.0,-2.1024,-2.0846,-2.0284,-2.0524,-2.0614,0.0,0.0,0.0,0.0,0.0,0.0,0.0,0.0,-2.1002,-2.1294,-2.2201,-2.2812,-2.3027,-2.3628,-2.4291,-2.4978,-2.5182,-2.5666,-2.6514,-2.6503,-2.6812,-2.7419,-2.7744,-2.83,-2.8967,-2.9271,-2.9636,-2.9943,-2.9829,-2.9927,-3.0222,-3.0762,-3.1255,-3.1759,-3.2303,-3.2493,-3.2505,-3.2291,-3.224,-3.2342,-3.2505,-3.2667,-3.2779,-3.2969,-3.3019,-3.3019,-3.283,-3.2779,-3.2718,-3.2392,-3.2331,-3.224,-3.1975,-3.1863,-3.1823,-3.1618,-3.1618,-3.1618,-3.1618,-3.1618,-3.1618,-3.1618,-3.1721,-3.2039,-3.2545,-3.279,-3.3055,-3.3485,-3.3551,-3.3442,-3.3184,-3.2842,-3.2601,-3.2336,-3.2606,-3.2779,-3.288,-3.2891,-3.288,-3.2768,-3.2841,-3.2891,-3.2891,-3.3142,-3.3281,-3.3281,-3.2777,-3.2488,-3.2488,-3.1965,-3.1705,-3.1705,-3.1705,-3.1661,-2.3803,-2.357,-2.3324,-2.31,-2.2923,-2.291,-2.3085,-2.2899,-2.2775,0.0,0.0,0.0,0.0,-2.1524,-2.1139,-2.0617,-2.0742,-2.0695,0.0,-1.936,0.0,0.0,0.0,0.0,0.0,0.0,-2.0604,-2.0896,-2.1796,-2.251,-2.2917,-2.3371,-2.4022,-2.4888,-2.5081,-2.56,-2.6411,-2.6579,-2.6913,-2.7347,-2.7922,-2.8514,-2.9219,-2.9558,-2.9979,-3.0454,-3.0341,-3.0285,-3.0396,-3.1113,-3.1493,-3.1758,-3.2497,-3.2757,-3.2757,-3.2555,-3.2555,-3.2667,-3.293,-3.3031,-3.3081,-3.3231,-3.3281,-3.3281,-3.3081,-3.3031,-3.2992,-3.2718,-3.2656,-3.2555,-3.224,-3.2179,-3.2128,-3.1986,-3.1936,-3.1936,-3.1936,-3.1936,-3.1936,-3.1936,-3.2077,-3.2345,-3.2857,-3.3101,-3.3358,-3.3744,-3.3811,-3.3743,-3.3426,-3.3146,-3.286,-3.2662,-3.2779,-3.2942,-3.3031,-3.3031,-3.3031,-3.3031,-3.3031,-3.3031,-3.3031,-3.3181,-3.3331,-3.3431,-3.3,-3.2712,-3.263,-3.2213,-3.1898,-3.1805,-3.1805,-3.1849]},{"header":{"parameterUnit":"m.s-1","parameterCategory":1,"la1":30.6,"la2":29.2853,"lo1":-89.7004,"lo2":-87.6739,"dy":0.0162,"dx":0.0183,"nx":112,"ny":82,"refTime":"2023-07-14T00:00:00:Z","depth":0,"parameterNumber":3,"parameterNumberName":"V-component_of_WINDS"},"data":[0.0,0.0,0.0,0.0,0.0,0.0,0.0,0.0,0.0,0.0,0.0,0.0,0.0,0.0,0.0,0.0,0.0,0.0,0.0,0.0,0.0,0.0,0.0,0.0,0.0,0.0,0.0,0.0,0.0,0.0,0.0,0.0,0.0,0.0,0.0,0.0,0.0,0.0,0.0,0.0,0.0,0.0,0.0,0.0,0.0,0.0,0.0,0.0,0.0,0.0,0.0,0.0,0.0,0.0,0.0,0.0,0.0,0.0,0.0,0.0,0.0,0.0,0.0,0.0,0.0,0.0,0.0,0.0,0.0,0.0,0.0,0.0,0.0,0.0,0.0,0.0,0.0,0.0,0.0,0.0,0.0,0.0,0.0,0.0,0.0,0.0,0.0,0.0,0.0,0.0,-1.7935,-1.8755,-1.9995,-2.0795,-2.0892,-2.0415,-1.9991,-1.9701,0.0,0.0,0.0,0.0,0.0,0.0,0.0,0.0,0.0,0.0,0.0,0.0,0.0,0.0,0.0,0.0,0.0,0.0,0.0,0.0,0.0,0.0,0.0,0.0,0.0,0.0,0.0,0.0,0.0,0.0,0.0,0.0,0.0,0.0,0.0,0.0,0.0,0.0,0.0,0.0,0.0,0.0,0.0,0.0,0.0,0.0,0.0,0.0,0.0,0.0,0.0,0.0,0.0,0.0,0.0,0.0,0.0,0.0,0.0,0.0,0.0,0.0,0.0,0.0,0.0,0.0,0.0,0.0,0.0,0.0,0.0,0.0,0.0,0.0,0.0,0.0,0.0,0.0,0.0,0.0,0.0,0.0,0.0,0.0,0.0,0.0,0.0,0.0,0.0,0.0,0.0,0.0,0.0,0.0,0.0,0.0,0.0,0.0,0.0,0.0,0.0,0.0,0.0,0.0,-1.918,-2.0689,-2.156,-2.1821,-2.1353,-2.1481,-2.1169,-2.0173,0.0,0.0,0.0,0.0,0.0,0.0,0.0,0.0,0.0,0.0,0.0,0.0,0.0,0.0,0.0,0.0,0.0,0.0,0.0,0.0,0.0,0.0,0.0,0.0,0.0,0.0,0.0,0.0,0.0,0.0,0.0,0.0,0.0,0.0,0.0,0.0,0.0,0.0,0.0,0.0,0.0,0.0,0.0,0.0,0.0,0.0,0.0,0.0,0.0,0.0,0.0,0.0,0.0,0.0,0.0,0.0,0.0,0.0,0.0,0.0,0.0,0.0,0.0,0.0,0.0,0.0,0.0,0.0,0.0,0.0,0.0,0.0,0.0,0.0,0.0,0.0,0.0,0.0,0.0,0.0,0.0,0.0,0.0,0.0,0.0,0.0,0.0,0.0,0.0,0.0,0.0,0.0,0.0,0.0,0.0,0.0,0.0,0.0,0.0,0.0,0.0,0.0,0.0,-1.9539,-2.0329,-2.1654,-2.2301,-2.2619,-2.2652,-2.2435,-2.2051,-2.1534,-2.0193,0.0,0.0,0.0,0.0,0.0,0.0,0.0,0.0,0.0,0.0,0.0,0.0,0.0,0.0,0.0,0.0,0.0,0.0,0.0,0.0,0.0,0.0,0.0,0.0,0.0,0.0,0.0,0.0,0.0,0.0,0.0,0.0,0.0,0.0,0.0,0.0,0.0,0.0,0.0,0.0,0.0,0.0,0.0,0.0,0.0,0.0,0.0,0.0,0.0,0.0,0.0,0.0,0.0,0.0,0.0,0.0,0.0,0.0,0.0,0.0,0.0,0.0,0.0,0.0,0.0,0.0,0.0,0.0,0.0,0.0,0.0,0.0,0.0,0.0,0.0,0.0,0.0,0.0,0.0,0.0,0.0,0.0,0.0,0.0,0.0,0.0,0.0,0.0,0.0,0.0,0.0,0.0,0.0,0.0,0.0,0.0,0.0,0.0,0.0,0.0,0.0,0.0,-2.0748,-2.1398,-2.2409,-2.2909,-2.332,-2.3705,-2.319,-2.2784,-2.2622,-2.1468,0.0,0.0,0.0,0.0,0.0,0.0,0.0,0.0,0.0,0.0,0.0,0.0,0.0,0.0,0.0,0.0,0.0,0.0,0.0,0.0,0.0,0.0,0.0,0.0,0.0,0.0,0.0,0.0,0.0,0.0,0.0,0.0,0.0,0.0,0.0,0.0,0.0,0.0,0.0,0.0,0.0,0.0,0.0,0.0,0.0,0.0,0.0,0.0,0.0,0.0,0.0,0.0,0.0,0.0,0.0,0.0,0.0,0.0,0.0,0.0,0.0,0.0,0.0,0.0,0.0,0.0,0.0,0.0,0.0,0.0,0.0,0.0,0.0,0.0,0.0,0.0,0.0,0.0,0.0,0.0,0.0,0.0,0.0,0.0,0.0,0.0,0.0,0.0,0.0,0.0,0.0,0.0,0.0,0.0,0.0,0.0,0.0,0.0,0.0,0.0,0.0,0.0,-2.1582,-2.23,-2.3298,-2.3717,-2.3909,-2.3875,-2.3666,-2.3299,-2.2746,-2.1652,0.0,0.0,0.0,0.0,0.0,0.0,0.0,0.0,0.0,0.0,0.0,0.0,0.0,0.0,0.0,0.0,0.0,0.0,0.0,0.0,0.0,0.0,0.0,0.0,0.0,0.0,0.0,0.0,0.0,0.0,0.0,0.0,0.0,0.0,0.0,0.0,0.0,0.0,0.0,0.0,0.0,0.0,0.0,0.0,0.0,0.0,0.0,0.0,0.0,0.0,0.0,0.0,0.0,0.0,0.0,0.0,0.0,0.0,0.0,0.0,0.0,0.0,0.0,0.0,0.0,0.0,0.0,0.0,0.0,0.0,0.0,0.0,0.0,0.0,0.0,0.0,0.0,0.0,0.0,0.0,0.0,0.0,0.0,0.0,0.0,0.0,0.0,0.0,0.0,0.0,0.0,0.0,0.0,0.0,0.0,0.0,0.0,0.0,0.0,0.0,0.0,0.0,-2.2395,-2.3004,0.0,-2.4655,-2.5031,-2.5362,-2.497,-2.445,-2.3868,0.0,0.0,0.0,0.0,0.0,0.0,0.0,0.0,0.0,0.0,0.0,0.0,0.0,0.0,0.0,0.0,0.0,0.0,0.0,0.0,0.0,0.0,0.0,0.0,0.0,0.0,0.0,0.0,0.0,0.0,0.0,0.0,0.0,0.0,0.0,0.0,0.0,0.0,0.0,0.0,0.0,0.0,0.0,0.0,0.0,0.0,0.0,0.0,0.0,0.0,0.0,0.0,0.0,0.0,0.0,0.0,0.0,0.0,0.0,0.0,0.0,0.0,0.0,0.0,0.0,0.0,0.0,0.0,0.0,0.0,0.0,0.0,0.0,0.0,0.0,0.0,0.0,0.0,0.0,0.0,0.0,0.0,0.0,0.0,0.0,0.0,0.0,0.0,0.0,0.0,0.0,0.0,0.0,0.0,0.0,0.0,0.0,0.0,0.0,0.0,0.0,0.0,-2.2885,-2.3281,-2.3888,0.0,-2.5445,-2.581,-2.6375,-2.5859,-2.5253,-2.4622,0.0,0.0,0.0,0.0,0.0,0.0,0.0,0.0,0.0,0.0,0.0,0.0,0.0,0.0,0.0,0.0,0.0,0.0,0.0,0.0,0.0,0.0,0.0,0.0,0.0,0.0,0.0,0.0,0.0,0.0,0.0,0.0,0.0,0.0,0.0,0.0,0.0,0.0,0.0,0.0,0.0,0.0,0.0,0.0,0.0,0.0,0.0,0.0,0.0,0.0,0.0,0.0,0.0,0.0,0.0,0.0,0.0,0.0,0.0,0.0,0.0,0.0,0.0,0.0,0.0,0.0,0.0,0.0,0.0,0.0,0.0,0.0,0.0,0.0,0.0,0.0,0.0,0.0,0.0,0.0,0.0,0.0,0.0,0.0,0.0,0.0,0.0,0.0,0.0,0.0,0.0,0.0,0.0,0.0,0.0,0.0,0.0,0.0,0.0,0.0,0.0,0.0,-2.3695,-2.4289,-2.4974,-2.5912,-2.6009,-2.6221,-2.6678,-2.6155,-2.5517,0.0,0.0,0.0,0.0,0.0,0.0,0.0,0.0,0.0,0.0,0.0,0.0,0.0,0.0,0.0,0.0,0.0,0.0,0.0,0.0,0.0,0.0,0.0,0.0,0.0,0.0,0.0,0.0,0.0,0.0,0.0,0.0,0.0,0.0,0.0,0.0,0.0,0.0,0.0,0.0,0.0,0.0,0.0,0.0,0.0,0.0,0.0,0.0,0.0,0.0,0.0,0.0,0.0,0.0,0.0,0.0,0.0,0.0,0.0,0.0,0.0,0.0,0.0,0.0,0.0,0.0,0.0,0.0,0.0,0.0,0.0,0.0,0.0,0.0,0.0,0.0,0.0,0.0,0.0,0.0,0.0,0.0,0.0,0.0,0.0,0.0,0.0,0.0,0.0,0.0,0.0,0.0,0.0,0.0,0.0,0.0,0.0,0.0,0.0,0.0,0.0,0.0,0.0,-2.4713,-2.5235,-2.5785,-2.6488,-2.6907,-2.7174,-2.7316,-2.7179,-2.6767,-2.6115,0.0,0.0,0.0,0.0,0.0,0.0,0.0,0.0,0.0,0.0,0.0,0.0,0.0,0.0,0.0,0.0,0.0,0.0,0.0,0.0,0.0,0.0,0.0,0.0,0.0,0.0,0.0,0.0,0.0,0.0,0.0,0.0,0.0,0.0,0.0,0.0,0.0,0.0,0.0,0.0,0.0,0.0,0.0,0.0,0.0,0.0,0.0,0.0,0.0,0.0,0.0,0.0,0.0,0.0,0.0,0.0,0.0,0.0,0.0,0.0,0.0,0.0,0.0,0.0,0.0,0.0,0.0,0.0,0.0,0.0,0.0,0.0,0.0,0.0,0.0,0.0,0.0,0.0,0.0,0.0,0.0,0.0,0.0,0.0,0.0,0.0,0.0,0.0,0.0,0.0,0.0,0.0,0.0,0.0,0.0,0.0,0.0,0.0,0.0,0.0,0.0,0.0,-2.6144,-2.6434,-2.6855,-2.7661,-2.8041,-2.8218,-2.8157,-2.8157,-2.775,-2.6817,0.0,0.0,0.0,0.0,0.0,0.0,0.0,0.0,0.0,0.0,0.0,0.0,0.0,0.0,0.0,0.0,0.0,0.0,0.0,0.0,0.0,0.0,0.0,0.0,0.0,0.0,0.0,0.0,0.0,0.0,0.0,0.0,0.0,0.0,0.0,0.0,0.0,0.0,0.0,0.0,0.0,0.0,0.0,0.0,0.0,0.0,0.0,0.0,0.0,0.0,0.0,0.0,0.0,0.0,0.0,0.0,0.0,0.0,0.0,0.0,0.0,0.0,0.0,0.0,0.0,0.0,0.0,0.0,0.0,0.0,0.0,0.0,0.0,0.0,0.0,0.0,0.0,0.0,0.0,0.0,0.0,0.0,0.0,0.0,0.0,0.0,0.0,0.0,0.0,0.0,0.0,0.0,0.0,0.0,0.0,0.0,0.0,0.0,0.0,0.0,0.0,0.0,-2.7794,-2.7803,-2.8077,-2.9244,-2.9363,-2.9312,-2.9174,-2.9174,-2.8611,-2.7326,0.0,0.0,0.0,0.0,0.0,0.0,0.0,0.0,0.0,0.0,0.0,0.0,0.0,0.0,0.0,0.0,0.0,0.0,0.0,0.0,0.0,0.0,0.0,0.0,0.0,0.0,0.0,0.0,0.0,0.0,0.0,0.0,0.0,0.0,0.0,0.0,0.0,0.0,0.0,0.0,0.0,0.0,0.0,0.0,0.0,0.0,0.0,0.0,0.0,0.0,0.0,0.0,0.0,0.0,0.0,0.0,0.0,0.0,0.0,0.0,-2.3875,0.0,0.0,0.0,0.0,0.0,0.0,0.0,0.0,0.0,0.0,0.0,0.0,0.0,0.0,0.0,0.0,0.0,0.0,0.0,0.0,0.0,0.0,0.0,0.0,0.0,0.0,0.0,0.0,0.0,0.0,0.0,0.0,0.0,0.0,0.0,0.0,0.0,0.0,0.0,0.0,0.0,-2.8831,-2.8877,-2.9234,-3.0467,-3.0522,-3.0462,-3.0437,-3.0437,-3.008,-2.9266,-2.8707,0.0,0.0,0.0,0.0,0.0,0.0,0.0,0.0,0.0,0.0,0.0,0.0,0.0,0.0,0.0,0.0,0.0,0.0,0.0,0.0,0.0,0.0,0.0,0.0,0.0,0.0,0.0,0.0,0.0,0.0,0.0,0.0,0.0,0.0,0.0,0.0,0.0,0.0,0.0,0.0,0.0,0.0,0.0,0.0,0.0,0.0,0.0,0.0,0.0,0.0,0.0,0.0,0.0,0.0,0.0,0.0,0.0,0.0,0.0,0.0,-2.61,0.0,0.0,0.0,0.0,0.0,0.0,0.0,0.0,0.0,0.0,0.0,0.0,0.0,0.0,0.0,0.0,0.0,0.0,0.0,0.0,0.0,0.0,0.0,0.0,0.0,0.0,0.0,0.0,0.0,0.0,0.0,0.0,0.0,0.0,0.0,0.0,0.0,0.0,0.0,0.0,-3.0532,-3.0517,-3.0752,-3.1679,-3.1681,-3.1571,-3.1536,-3.151,-3.1237,-3.0515,-2.9839,0.0,0.0,0.0,0.0,0.0,0.0,0.0,0.0,0.0,0.0,0.0,0.0,0.0,0.0,0.0,0.0,0.0,0.0,0.0,0.0,0.0,0.0,0.0,0.0,0.0,0.0,0.0,0.0,0.0,0.0,0.0,0.0,0.0,0.0,0.0,0.0,0.0,0.0,0.0,0.0,0.0,0.0,0.0,0.0,0.0,0.0,0.0,0.0,0.0,0.0,0.0,0.0,0.0,-3.2423,-3.2762,-3.3419,-3.3419,-3.4093,-3.5129,-3.2064,-3.0122,-2.9052,-2.8122,0.0,0.0,0.0,0.0,0.0,0.0,0.0,0.0,0.0,0.0,0.0,0.0,0.0,0.0,0.0,0.0,0.0,0.0,0.0,0.0,0.0,0.0,-2.8515,-2.9862,-3.0396,-3.0199,-2.8843,0.0,0.0,0.0,0.0,0.0,0.0,0.0,0.0,0.0,0.0,0.0,-3.2485,-3.243,-3.2523,-3.3221,-3.3207,-3.3064,-3.2825,-3.2809,-3.2444,-3.1586,-3.1014,-3.0347,0.0,0.0,0.0,0.0,0.0,0.0,0.0,0.0,0.0,0.0,0.0,0.0,0.0,0.0,0.0,0.0,0.0,0.0,0.0,0.0,0.0,0.0,0.0,0.0,0.0,0.0,0.0,0.0,0.0,0.0,0.0,0.0,-2.0593,-2.1993,0.0,0.0,0.0,0.0,0.0,0.0,0.0,0.0,0.0,0.0,0.0,0.0,0.0,-3.2159,-3.3707,-3.3725,-3.4507,-3.6,-3.6,-3.6377,-3.7018,-3.7018,-3.7404,-3.802,-3.6904,0.0,-3.2696,-3.1292,0.0,0.0,0.0,0.0,0.0,0.0,0.0,0.0,0.0,0.0,0.0,0.0,0.0,0.0,0.0,0.0,0.0,0.0,0.0,0.0,0.0,0.0,-3.1867,-3.2767,-3.3524,-3.4164,-3.4618,-3.256,-3.0614,-3.0715,-3.1317,-3.1776,0.0,0.0,0.0,0.0,0.0,0.0,-3.4213,-3.4243,-3.4603,-3.5854,-3.5859,-3.5522,-3.4865,-3.4817,-3.4251,-3.2935,-3.2757,-3.2079,-3.0656,-2.9884,0.0,0.0,0.0,0.0,0.0,0.0,0.0,0.0,0.0,0.0,0.0,0.0,0.0,0.0,0.0,0.0,0.0,0.0,0.0,0.0,0.0,0.0,0.0,0.0,0.0,0.0,0.0,0.0,0.0,-2.131,-2.2106,-2.3656,-2.4282,-2.4858,0.0,0.0,0.0,0.0,0.0,0.0,0.0,0.0,0.0,-3.237,-3.3885,-3.5436,-3.6969,-3.6986,-3.7753,-3.9286,-3.9286,-3.9665,-4.0351,-4.0351,-4.0746,-4.1377,-4.0596,-3.9581,-3.8284,-3.5366,-3.4134,-3.4093,0.0,0.0,0.0,0.0,-3.263,-3.2482,-3.1881,-3.1628,-3.1479,-3.1079,0.0,0.0,0.0,0.0,0.0,0.0,0.0,-3.2507,-3.3296,-3.4048,-3.4802,-3.5557,-3.6071,-3.6599,-3.7356,-3.6478,-3.5208,-3.4082,-3.4142,-3.4368,-3.4342,0.0,0.0,0.0,0.0,-3.54,-3.6274,-3.6206,-3.6307,-3.6892,-3.6814,-3.658,-3.6175,-3.6158,-3.5691,-3.4586,-3.4105,-3.3396,-3.2322,-3.1199,-3.0255,0.0,0.0,0.0,0.0,0.0,0.0,0.0,0.0,0.0,0.0,0.0,0.0,0.0,0.0,0.0,0.0,0.0,0.0,0.0,0.0,0.0,0.0,0.0,0.0,0.0,0.0,0.0,0.0,-2.3127,-2.4015,-2.5399,-2.6496,-2.7215,0.0,0.0,0.0,0.0,0.0,0.0,-3.3595,-3.4996,-3.5838,-3.6032,-3.7344,-3.8688,-4.0027,-4.022,-4.0966,-4.2271,-4.2463,-4.2847,-4.3365,-4.3365,-4.3696,-4.4202,-4.3464,-4.3156,-4.2853,-3.9199,-3.7585,-3.739,-3.739,-3.7269,-3.6957,-3.5731,-3.5235,-3.5029,-3.436,-3.4052,-3.3936,-3.369,-3.3502,-3.3267,-3.2815,0.0,0.0,0.0,0.0,-3.5255,-3.6222,-3.6915,-3.759,-3.8542,-3.8833,-3.9103,-3.9867,-4.0108,-3.9507,-3.7201,-3.6775,-3.6753,-3.6688,0.0,0.0,0.0,0.0,-3.7401,-3.8017,-3.7875,-3.7794,-3.7945,-3.7861,-3.7651,-3.735,-3.7334,-3.6985,-3.6133,-3.5391,-3.4642,-3.3877,-3.2642,-3.1556,-3.0629,0.0,0.0,0.0,0.0,0.0,0.0,0.0,0.0,0.0,0.0,0.0,0.0,0.0,0.0,0.0,0.0,0.0,0.0,0.0,0.0,0.0,0.0,0.0,0.0,0.0,0.0,0.0,0.0,0.0,-2.7272,-2.8713,0.0,0.0,0.0,0.0,-3.4224,-3.4405,-3.5483,-3.7849,-3.8921,-3.976,-4.045,-4.1279,-4.2082,-4.278,-4.3485,-4.4214,-4.4916,-4.5635,-4.5961,-4.5996,-4.5996,-4.6032,-4.6056,-4.5404,-4.5141,-4.4965,-4.2314,-4.0806,-4.0101,-4.0101,-3.9647,-3.8944,-3.8798,-3.8738,-3.8699,-3.8538,-3.8477,-3.8334,-3.7521,-3.6753,-3.6226,-3.6312,-3.6353,0.0,0.0,-3.7572,-3.7955,-3.9451,-3.9886,-4.0287,-4.1806,-4.2155,-4.2364,-4.3206,-4.3363,-4.2474,-3.9434,-3.886,-3.8756,-3.8518,0.0,-3.8418,-3.8259,-3.823,-3.844,-3.9037,-3.8994,-3.9134,-3.9716,-3.9655,-3.9276,-3.8581,-3.8514,-3.8213,-3.7443,-3.6707,-3.593,-3.5045,-3.4272,-3.3184,-3.1753,-3.1004,0.0,0.0,0.0,0.0,0.0,0.0,0.0,0.0,0.0,0.0,0.0,0.0,0.0,0.0,0.0,0.0,0.0,0.0,0.0,0.0,0.0,0.0,0.0,0.0,0.0,0.0,0.0,0.0,-2.9718,-3.1638,0.0,-3.3334,-3.4582,-3.6043,-3.7626,-3.787,-3.8744,-4.0586,-4.1934,-4.277,-4.3036,-4.4329,-4.5368,-4.6065,-4.6348,-4.683,-4.7477,-4.7759,-4.7849,-4.7748,-4.7688,-4.7764,-4.7864,-4.765,-4.7601,-4.7621,-4.6796,-4.5051,-4.2877,-4.2877,-4.2657,-4.2251,-4.1749,-4.1463,-4.1241,-4.073,-4.0471,-4.0351,-4.0051,-3.9768,-3.9564,-3.9603,-3.9669,-3.9805,-4.0088,-4.0591,-4.1143,-4.1681,-4.2193,-4.2683,-4.3226,-4.3366,-4.3436,-4.3734,-4.3786,-4.3471,-4.2368,-4.2044,-4.1946,-4.1835,-4.1741,-4.1646,-4.1591,-4.1439,-4.1395,-4.1627,-4.1511,-4.1529,-4.1733,-4.1629,-4.1161,-4.034,-4.0187,-3.958,-3.8288,-3.7953,-3.725,-3.5987,-3.5228,-3.4375,-3.3372,-3.2705,-3.1816,0.0,0.0,0.0,0.0,0.0,0.0,0.0,0.0,0.0,0.0,0.0,0.0,0.0,0.0,0.0,0.0,0.0,0.0,0.0,0.0,0.0,0.0,0.0,0.0,0.0,0.0,-3.1358,-3.2214,-3.4612,-3.621,-3.6308,-3.7794,-3.93,-4.063,-4.1088,-4.1984,-4.3545,-4.4902,-4.5742,-4.5985,-4.7015,-4.779,-4.828,-4.8529,-4.8845,-4.925,-4.9515,-4.9605,-4.952,-4.9459,-4.9536,-4.9639,-4.9382,-4.9351,-4.9433,-4.929,-4.7957,-4.5932,-4.5354,-4.4731,-4.4105,-4.3565,-4.3235,-4.2964,-4.2479,-4.2258,-4.2172,-4.2172,-4.2172,-4.2172,-4.2172,-4.2235,-4.2304,-4.2304,-4.2735,-4.3237,-4.3518,-4.4132,-4.4746,-4.501,-4.5273,-4.5466,-4.5484,-4.5466,-4.5449,-4.5449,-4.4504,-4.3685,-4.3637,-4.3517,-4.3419,-4.3412,-4.3214,-4.3081,-4.3081,-4.2954,-4.2869,-4.2869,-4.2705,-4.2363,-4.1792,-4.14,-4.0738,-3.9682,-3.9151,-3.8426,-3.7438,-3.6437,-3.556,-3.4823,-3.3931,-3.274,-3.1308,0.0,0.0,0.0,0.0,0.0,0.0,0.0,0.0,0.0,0.0,0.0,0.0,0.0,0.0,0.0,0.0,0.0,0.0,0.0,0.0,0.0,0.0,0.0,-3.0352,-3.2195,-3.3915,-3.474,-3.7532,-3.9452,-3.9629,-4.1025,-4.2308,-4.32,-4.4108,-4.5272,-4.6801,-4.7754,-4.8603,-4.9347,-4.94,-4.9387,-4.9361,-5.0073,-5.0353,-5.0209,-5.1006,-5.1395,-5.1369,-5.1369,-5.1351,-5.1307,-5.0655,-5.035,-5.0286,-4.9637,-4.9364,-4.9186,-4.7518,-4.5891,-4.4443,-4.4294,-4.4161,-4.4044,-4.4044,-4.4044,-4.4044,-4.4044,-4.4044,-4.4044,-4.4044,-4.4044,-4.4044,-4.4044,-4.4044,-4.422,-4.4992,-4.5723,-4.646,-4.7239,-4.7994,-4.8512,-4.8591,-4.8556,-4.8495,-4.8495,-4.6098,-4.398,-4.3862,-4.3735,-4.3614,-4.3551,-4.3427,0.0,-4.331,-4.3184,-4.3108,-4.3074,-4.2946,-4.2886,-4.2851,-4.2133,-4.1655,-4.1604,-4.027,-3.945,-3.9399,-3.7974,-3.6813,-3.6048,-3.4596,-3.3091,-3.1623,0.0,0.0,0.0,0.0,0.0,0.0,0.0,0.0,0.0,0.0,0.0,0.0,0.0,0.0,0.0,0.0,0.0,0.0,0.0,0.0,0.0,0.0,-3.367,-3.3459,-3.4934,-3.6531,-3.7883,-3.9779,-4.1455,-4.2714,-4.3827,-4.509,-4.6541,-4.6977,-4.7593,-4.855,-4.94,-5.0227,-5.1012,-5.1601,-5.2147,-5.2666,-5.2862,-5.2917,-5.2785,-5.2998,-5.3052,-5.2962,-5.2962,-5.2715,-5.2288,-5.2127,-5.1752,-5.1301,-5.1137,-5.0642,-4.9919,-4.8899,-4.8145,-4.761,-4.7463,-4.7357,-4.7257,-4.7257,-4.7257,-4.7257,-4.7257,-4.7257,-4.7257,-4.7292,-4.7309,-4.7292,-4.7257,-4.7257,-4.7292,-4.752,-4.7705,-4.7916,-4.8152,-4.8337,-4.8495,-4.8512,-4.8495,-4.8495,-4.8573,-4.7854,-4.7214,-4.7189,-4.6985,-4.6847,-4.6821,-4.6601,0.0,-4.5734,-4.5638,-4.5405,-4.4793,-4.4619,-4.43,-4.3786,-4.3451,-4.28,-4.1672,-4.1228,-4.0527,-3.945,-3.8982,-3.8174,-3.6984,-3.5437,-3.45,0.0,0.0,0.0,0.0,0.0,0.0,0.0,0.0,0.0,0.0,0.0,0.0,0.0,0.0,0.0,0.0,0.0,0.0,0.0,0.0,0.0,0.0,-3.5688,-3.6847,-3.7496,-3.8114,-3.915,-4.1007,-4.2605,-4.4097,-4.5517,-4.6401,-4.7352,-4.8449,-4.924,-4.9834,-5.0281,-5.1369,-5.219,-5.2654,-5.3118,-5.3581,-5.4001,-5.4001,-5.3957,-5.3878,-5.3824,-5.3762,-5.3681,-5.3627,-5.3424,-5.3096,-5.3096,-5.2661,-5.1993,-5.1993,-5.1479,-5.0629,0.0,0.0,0.0,0.0,-4.8572,-4.8495,-4.8495,-4.8495,-4.8495,-4.8495,-4.8495,-4.8495,-4.8556,-4.8573,-4.8556,-4.8495,-4.8495,-4.8495,-4.8495,-4.8766,-4.9012,-4.9012,-4.9258,-4.9521,-4.9521,-4.9521,-4.9521,-4.9556,-4.9539,0.0,-4.9389,-4.8679,-4.8074,-4.8037,-4.7837,-4.7534,-4.7131,-4.7079,-4.6741,-4.5983,-4.5826,-4.549,-4.4706,-4.4293,0.0,0.0,0.0,-4.1084,-3.9592,-3.9523,0.0,0.0,0.0,-3.5973,-3.5745,-3.5002,0.0,0.0,-3.1001,-3.0657,0.0,0.0,0.0,0.0,0.0,0.0,0.0,0.0,0.0,0.0,0.0,0.0,0.0,0.0,0.0,0.0,-3.8213,-4.0249,-4.1903,-4.1552,-4.1907,-4.3921,-4.5442,-4.6794,-4.7946,-4.8732,-4.9309,-4.9685,-5.1119,-5.1958,-5.1958,0.0,0.0,0.0,0.0,-5.4162,-5.4242,-5.4242,-5.4242,-5.4198,-5.4082,-5.4046,-5.4028,-5.392,-5.3812,-5.3741,-5.3741,-5.3281,-5.2528,-5.2528,-5.2086,-5.1334,-5.0665,-4.9811,-4.8939,-4.881,-4.8758,-4.8758,-4.8758,0.0,0.0,-4.8758,-4.8758,-4.8758,-4.8758,-4.8758,-4.8758,-4.8758,-4.8758,-4.8758,-4.8758,-4.9293,-4.9846,-4.9846,-5.0364,-5.0891,-5.0891,-5.0891,-5.0891,-5.0891,-5.0891,-5.0819,-5.0602,-4.9331,-4.8307,-4.8179,-4.8059,-4.7913,-4.7855,-4.781,-4.7562,-4.6803,-4.6665,0.0,-4.5604,-4.4854,-4.4397,-4.4311,-4.2861,-4.1371,-4.0008,-3.9784,-3.9388,-3.8755,-3.8066,-3.7421,-3.6741,-3.6,-3.5272,-3.4543,-3.3511,-3.2679,0.0,0.0,0.0,0.0,0.0,0.0,0.0,0.0,0.0,0.0,0.0,0.0,0.0,0.0,0.0,-3.9445,-4.1025,-4.2863,-4.5003,-4.5179,-4.5249,-4.5688,-4.659,-4.7839,-4.9493,-5.036,-5.1215,-5.2136,-5.3046,-5.3555,-5.3555,-5.3841,-5.4287,-5.4955,-5.4973,-5.5241,-5.579,-5.5763,-5.5689,-5.5514,-5.5504,0.0,-5.5486,-5.5476,-5.5139,-5.4591,-5.4591,-5.4113,-5.3369,-5.3369,-5.2828,-5.197,-5.1211,-5.0744,-5.0461,-5.0461,-5.0434,-5.0434,-5.0434,-5.0434,-5.0434,-5.0434,-5.0434,-5.0434,-5.0434,-5.0434,0.0,-5.0434,-5.0434,-5.0434,-5.0434,-5.0539,-5.0662,-5.0662,-5.0785,-5.0891,-5.0891,-5.0891,-5.0891,-5.0891,-5.0891,-5.0792,-5.0481,-5.0154,-4.9907,-4.9784,-4.9631,-4.9338,-4.8654,-4.8586,-4.8293,-4.7551,-4.6958,-4.6544,-4.6389,-4.5621,-4.4941,-4.4345,-4.2861,-4.1878,-4.1585,-4.0353,-3.9629,-3.9491,-3.8879,-3.8451,-3.819,-3.7551,-3.7119,-3.6809,-3.4803,-3.3727,0.0,0.0,0.0,0.0,0.0,0.0,0.0,0.0,0.0,0.0,0.0,-3.6513,0.0,0.0,-4.0849,-4.2013,-4.35,-4.5038,-4.659,-4.7467,-4.7959,-4.7959,-4.831,-4.9239,-5.0981,-5.1608,-5.2307,-5.3273,-5.4135,-5.459,-5.459,-5.4991,-5.5357,-5.5685,-5.5703,-5.5798,-5.6049,-5.6049,-5.5993,-5.5918,-5.5833,-5.5804,-5.5793,-5.5735,-5.5483,-5.5131,-5.5131,-5.4701,-5.3926,-5.3538,-5.3122,-5.2617,-5.186,-5.1279,-5.0891,-5.0891,-5.0891,-5.0891,-5.0891,-5.0891,-5.0891,-5.0891,-5.0891,-5.0891,-5.0891,-5.0891,-5.0891,-5.0891,-5.0891,-5.0891,-5.0891,-5.0891,-5.0891,-5.0891,-5.0891,-5.0891,-5.0891,-5.0891,-5.0891,-5.0891,-5.0891,-5.0792,-5.0471,-5.0415,-5.0331,-5.012,-5.0051,-4.9855,-4.943,-4.9407,-4.9103,-4.8327,-4.7913,-4.7396,-4.6665,-4.5845,-4.5096,-4.4363,-4.3586,-4.3,-4.262,-4.1481,-4.0836,-4.0836,-3.9864,-3.9339,-3.9254,-3.8577,-3.8213,-3.8113,-3.6913,-3.588,0.0,0.0,0.0,0.0,0.0,0.0,0.0,0.0,-3.5214,-3.553,-3.7286,-3.9041,-3.9828,-4.1376,-4.2903,-4.415,-4.5635,-4.6916,-4.7731,-4.8907,-4.9776,-4.989,-4.9925,-5.055,-5.2057,-5.2492,-5.3051,-5.3966,-5.4874,-5.5428,-5.5437,-5.6016,-5.6318,-5.6197,-5.6151,-5.6049,-5.5861,-5.5861,-5.5833,-5.5804,-5.5706,-5.5666,-5.5666,-5.5566,-5.5507,-5.5507,-5.5507,-5.5139,-5.4472,-5.3717,-5.3401,-5.3331,-5.2541,-5.1874,-5.1294,-5.0996,-5.0891,-5.0891,-5.0891,-5.0891,-5.0891,-5.0891,-5.0891,-5.0891,-5.0891,-5.0891,-5.0891,-5.0891,-5.0996,-5.1101,-5.1101,-5.1224,-5.1357,-5.1357,-5.1357,-5.1294,-5.1136,-5.1101,-5.1066,-5.0926,-5.0891,-5.0792,-5.0471,-5.0415,-5.0302,-5.0022,-5.0011,-5.0011,-5.0011,-5.0011,-4.9769,-4.9085,-4.8879,-4.8189,-4.6734,-4.6,-4.532,-4.457,-4.438,-4.4035,-4.3431,-4.2654,-4.2171,-4.2016,-4.0919,-4.0256,-4.0078,-3.9356,-3.8992,-3.897,-3.8708,-3.7873,-2.9144,-2.9192,-2.9513,-3.0468,-3.1409,-3.2494,0.0,0.0,-3.713,-3.8515,-4.0095,-4.1464,-4.2271,-4.4196,-4.574,-4.5916,-4.7232,-4.8538,-4.9311,-4.96,-4.9987,-5.0662,-5.075,-5.1138,-5.2128,-5.286,-5.3739,-5.4801,-5.5611,-5.6138,-5.6258,-5.6255,-5.6225,-5.6197,-5.6021,-5.5879,-5.5706,-5.5706,-5.5648,-5.5537,-5.5537,-5.5537,-5.5507,-5.5507,-5.5507,-5.5507,-5.5507,-5.5455,-5.5314,-5.4507,-5.4173,-5.4103,-5.3348,-5.3025,-5.2797,-5.14,-5.0891,-5.0891,-5.0891,-5.0891,-5.0891,-5.0891,-5.0891,-5.0891,-5.0891,-5.0891,-5.0891,-5.0891,-5.1365,-5.1891,-5.1891,-5.24,-5.2955,-5.2955,-5.2955,-5.2734,-5.2032,-5.1891,-5.1698,-5.1031,-5.0891,-5.0792,-5.0471,-5.0415,-5.0302,-5.0022,-5.0011,-5.0011,-5.0011,-5.0011,-4.9976,-4.989,-4.9252,-4.8189,-4.6734,-4.6527,-4.6148,-4.5328,-4.4647,-4.4259,-4.4173,-4.3465,-4.2723,-4.1992,-4.1957,-4.1542,-4.0797,-4.0107,-3.9709,-3.9583,-3.8927,-3.8379,-3.0283,-3.075,0.0,0.0,-3.4215,-3.5466,-3.6559,-3.8415,-4.0076,-4.0644,-4.1978,-4.3276,-4.3992,-4.5267,-4.6512,0.0,-4.8503,-4.9469,-5.0276,-5.0382,-5.0504,-5.0855,-5.0891,-5.1199,-5.2009,-5.2893,-5.3798,-5.4704,-5.5568,-5.6049,-5.6106,-5.6049,-5.5993,-5.5925,-5.5822,-5.5706,-5.5578,-5.5578,-5.5566,-5.5507,-5.5507,-5.5507,-5.5507,-5.5507,-5.5507,-5.5507,-5.5507,-5.5507,-5.549,-5.5156,-5.5016,-5.4928,-5.4138,-5.384,-5.3647,-5.2119,-5.154,-5.1487,-5.1049,-5.0891,-5.0891,-5.0891,-5.0891,-5.0891,-5.0891,-5.0891,-5.0978,-5.1417,-5.1768,-5.2119,-5.2576,-5.2944,-5.3201,-5.3201,-5.3201,-5.3113,-5.2769,-5.233,-5.1926,-5.161,-5.1189,-5.0792,-5.0471,-5.0415,-5.0302,-5.0022,-5.0011,-5.0011,-5.0011,-5.0011,-5.0011,-5.0011,-4.9275,-4.8379,-4.731,-4.6855,-4.6295,-4.558,-4.5139,-4.4967,-4.5044,-4.4267,-4.369,-4.3362,-4.298,-4.2375,-4.155,-4.1246,-4.0866,-4.0388,-4.0008,-3.9712,-3.1498,0.0,0.0,-3.5022,-3.6453,-3.7835,-3.9037,-4.071,-4.2164,-4.267,-4.3653,-4.4648,-4.528,-4.6003,-4.6923,-4.8082,-4.9065,-4.9916,-5.0496,-5.075,-5.0891,-5.0891,-5.0891,-5.1101,-5.1645,-5.2511,-5.3457,-5.4508,-5.5186,-5.5649,-5.5872,-5.5861,-5.5804,-5.5706,-5.5648,-5.5607,-5.5507,-5.5507,-5.5507,-5.5507,-5.5507,-5.5507,-5.5507,-5.5507,-5.5507,-5.5507,-5.5507,-5.5507,-5.5507,-5.5507,-5.5507,-5.5455,-5.4875,-5.4647,-5.4472,-5.3138,-5.2383,-5.1899,-5.14,-5.1066,-5.0891,-5.0891,-5.0891,-5.0926,-5.1136,-5.1207,-5.1365,-5.2119,-5.2488,-5.2786,-5.3348,-5.3664,-5.3822,-5.3822,-5.3822,-5.3752,-5.3541,-5.305,-5.2523,-5.2074,-5.1548,-5.0982,-5.0478,-5.0387,-5.0274,-5.0022,-5.0011,-5.0011,-5.0011,-5.0011,-5.0011,-5.0011,-4.9493,-4.881,-4.8051,-4.731,-4.6606,-4.5918,-4.5571,-4.545,-4.5554,-4.4941,-4.4518,-4.4311,-4.3776,-4.312,-4.2344,-4.212,-4.174,-4.1205,-4.0872,-4.0624,0.0,0.0,-3.5838,-3.6876,-3.7692,-3.8896,-4.1332,-4.1938,-4.2625,-4.4747,-4.5235,-4.5452,-4.6063,-4.6835,-4.738,-4.7415,-4.8696,-4.9723,-4.9741,-5.0426,-5.0891,-5.0891,-5.0891,-5.0891,0.0,-5.161,-5.2737,-5.4472,-5.4624,-5.5016,-5.5837,-5.5793,-5.5706,-5.5706,-5.5549,-5.5507,-5.5507,-5.5507,-5.5507,-5.5507,-5.5507,-5.5507,-5.5507,-5.5507,-5.5507,-5.5507,-5.5507,-5.5507,-5.5507,-5.5507,-5.5507,-5.5507,-5.549,-5.5472,-5.5367,-5.4542,-5.3296,-5.1986,-5.1951,-5.1505,-5.0891,-5.0891,-5.0891,-5.1031,-5.1751,-5.1979,-5.2137,-5.2927,-5.3682,-5.4244,-5.4261,-5.4858,-5.5437,-5.5437,-5.5437,-5.5227,-5.4454,-5.4261,-5.3805,-5.2285,-5.1885,-5.1483,-5.0565,-5.0302,-5.016,-5.0022,-5.0011,-5.0011,-5.0011,-5.0011,-5.0011,-5.0011,-4.9993,-4.9648,-4.8827,-4.8086,-4.7345,-4.6631,-4.5828,-4.5397,-4.5397,-4.538,-4.5044,-4.4311,-4.4276,-4.3897,-4.3155,-4.2378,-4.1999,-4.194,-4.1113,-4.0624,0.0,0.0,-3.704,-3.8971,-4.0097,-4.112,-4.2537,-4.3659,-4.4432,-4.4597,-4.537,-4.5934,-4.5543,-4.652,-4.7397,-4.7397,-4.8257,-4.91,-4.9609,-4.9925,-5.0294,-5.0838,-5.0891,0.0,0.0,0.0,0.0,-5.3591,-5.4119,-5.4752,-5.5601,-5.5578,-5.5566,-5.5566,-5.5537,-5.5507,-5.5507,-5.5507,-5.5507,-5.5507,-5.5507,-5.5507,-5.5507,-5.5507,-5.5507,-5.5507,-5.5507,-5.5507,-5.5507,-5.5507,-5.5507,-5.5507,-5.5507,-5.5507,-5.5472,-5.5209,-5.4437,-5.3471,-5.2962,-5.2611,-5.2446,-5.2446,-5.2446,-5.2453,-5.2716,-5.2786,-5.2944,-5.3717,-5.4121,-5.4419,-5.4963,-5.5314,-5.5507,-5.5507,-5.5507,-5.5437,-5.5156,-5.4682,-5.3969,-5.282,-5.2169,-5.1462,-5.0424,-5.0246,-5.016,-5.0022,-5.0011,-5.0011,-5.0011,-5.0011,-5.0011,-5.0011,-5.0011,-4.9683,-4.8861,-4.8103,-4.7417,-4.6782,-4.5881,-4.545,-4.5528,-4.545,-4.5276,-4.5044,-4.5044,-4.4665,-4.3931,-4.3571,-4.3107,-4.2574,-4.1612,-4.1145,0.0,-3.7484,-3.8646,-4.0267,-4.1322,-4.2164,-4.3095,-4.4036,-4.4604,-4.4297,-4.4906,-4.5316,-4.4699,-4.5387,-4.6115,-4.6378,-4.7103,-4.79,-4.8714,-4.9302,-4.9872,-5.0426,-5.0715,-5.0891,0.0,0.0,0.0,-5.3131,-5.3629,-5.4366,-5.5455,-5.5507,-5.5507,-5.5507,-5.5507,-5.5507,-5.5507,-5.5507,-5.5507,-5.5507,-5.5507,-5.5507,-5.5507,-5.5507,-5.5507,-5.5507,-5.5507,-5.5507,-5.5507,-5.5507,-5.5507,-5.5507,-5.5507,-5.5507,-5.5507,-5.5507,-5.5174,-5.463,-5.3857,-5.3401,-5.3201,-5.3201,-5.3201,-5.3254,-5.3506,-5.3576,-5.3752,-5.4507,-5.4735,-5.4858,-5.5385,-5.5507,-5.5507,-5.5507,-5.5507,-5.5507,-5.5507,-5.5027,-5.4373,-5.3486,-5.2648,-5.172,-5.0755,-5.0333,-5.0092,-4.9993,-5.0011,-5.0011,-5.0011,-5.0011,-5.0011,-5.0011,-5.0011,-4.9804,-4.9258,-4.8517,-4.7831,-4.7153,-4.6295,-4.5743,-4.5546,-4.545,-4.5397,-4.5397,-4.5371,-4.5103,-4.463,-4.4215,-4.3769,-4.3228,-4.2244,-4.1648,-3.6933,-3.8698,-4.0567,-4.0774,-4.1354,-4.2092,-4.3073,-4.3204,-4.3306,-4.3847,-4.3886,-4.3769,0.0,0.0,-4.3781,-4.4505,-4.5431,-4.6292,-4.7044,-4.8583,-4.9644,0.0,0.0,0.0,0.0,0.0,0.0,-5.3096,0.0,-5.3857,-5.5437,-5.5507,-5.5507,-5.5507,-5.5507,-5.5507,-5.5507,-5.5507,-5.5507,-5.5507,-5.5507,-5.5507,-5.5507,-5.5507,-5.5507,-5.5507,-5.5507,-5.5507,-5.5507,-5.5507,-5.5507,-5.5507,-5.5507,-5.5507,-5.5507,-5.5507,-5.5507,-5.5402,-5.463,-5.3892,-5.3324,-5.3324,-5.3324,-5.3464,-5.4156,-5.4366,-5.4524,-5.5297,-5.5507,-5.5507,-5.5507,-5.5507,-5.5507,-5.5507,-5.5478,-5.5478,-5.5478,-5.5324,-5.4972,-5.4226,-5.3187,-5.2198,-5.1436,-5.0564,-5.0011,-5.0011,-5.0011,-5.0011,-5.0011,-5.0011,-5.0011,-5.0011,-5.0011,-5.0011,-5.0011,-4.924,-4.8482,-4.7741,-4.7027,-4.6224,-4.5432,-4.5397,-4.5397,-4.5397,-4.5274,-4.5203,-4.5203,-4.4358,-4.3953,-4.3919,-4.2993,-4.2166,-3.8905,-3.9921,-4.0664,-4.1378,-4.2119,-4.2776,-4.3089,-4.3434,-4.3416,-4.2426,-4.2531,-4.2597,0.0,0.0,0.0,-4.3763,-4.4555,0.0,-4.6275,-4.77,0.0,0.0,0.0,-5.0891,-5.0891,-5.0891,0.0,0.0,-5.3201,-5.3857,-5.5437,-5.5507,-5.5507,-5.5507,-5.5507,-5.5507,-5.5507,-5.5507,-5.5507,-5.5507,-5.5507,-5.5507,-5.5507,-5.5507,-5.5507,-5.5507,-5.5507,-5.5507,-5.5507,-5.5507,-5.5507,-5.5507,-5.5507,-5.5507,-5.5507,-5.5507,-5.5507,-5.549,-5.5279,-5.5086,-5.4911,-5.4911,-5.4911,-5.4946,-5.5156,-5.5209,-5.5244,-5.5455,-5.5507,-5.5507,-5.5507,-5.5507,-5.5507,-5.5507,-5.5401,-5.5277,-5.5277,-5.5156,-5.4778,-5.3909,-5.2515,-5.1398,-5.1191,-5.0523,-5.0011,-5.0011,-5.0011,-5.0011,-5.0011,-5.0011,-5.0011,-5.0011,-5.0011,-5.0011,-5.0011,-4.924,-4.8482,-4.7741,-4.7027,-4.6224,-4.5432,-4.5397,-4.5397,-4.5397,-4.5274,-4.5203,-4.5203,-4.478,-4.4586,-4.4569,-4.3596,-4.3058,-3.9831,-4.0622,-4.1121,-4.1652,-4.2066,-4.2228,-4.2009,-4.2101,-4.189,-4.0705,-4.0655,0.0,0.0,0.0,0.0,0.0,0.0,0.0,-4.5227,-4.6793,-4.8129,0.0,-4.9846,0.0,-5.0855,-5.0891,-5.1523,0.0,-5.3201,-5.3857,-5.5437,-5.5507,-5.5507,-5.5507,-5.5507,-5.5507,-5.5507,-5.5507,-5.5507,-5.5507,-5.5507,-5.5507,-5.5507,-5.5507,-5.5507,-5.5507,-5.5507,-5.5507,-5.5507,-5.5507,-5.5507,-5.5507,-5.5507,-5.5507,-5.5507,-5.5507,-5.5507,-5.5507,-5.5507,-5.5507,-5.5507,-5.5507,-5.5507,-5.5507,-5.5507,-5.5507,-5.5507,-5.5507,-5.5507,-5.5507,-5.5507,-5.5431,-5.5354,-5.5354,-5.5247,-5.5109,-5.5109,-5.5022,-5.463,-5.3696,-5.2762,-5.189,-5.1235,-5.0769,-5.0373,-5.0062,-5.0011,-5.0011,-5.0011,-5.0011,-5.0011,-5.0011,-5.0011,-5.0011,-5.0011,-4.9597,-4.8982,-4.8224,-4.7482,-4.6751,-4.5949,-4.5587,-4.5397,-4.5397,-4.522,-4.5113,-4.5113,-4.4831,-4.4709,-4.4692,-4.4185,-4.3741,-4.0158,-4.0963,-4.1582,-4.1692,-4.1472,-4.1093,-4.0556,-4.018,-3.9695,-3.8842,0.0,0.0,-3.8429,0.0,-3.8836,-4.0457,0.0,-4.2566,-4.4133,-4.5863,-4.7325,-4.8207,-4.91,-5.0013,-5.0803,-5.0891,-5.1523,-5.3096,-5.3201,-5.3857,-5.5437,-5.5478,-5.5448,-5.5448,-5.5448,-5.5448,-5.5478,-5.5478,-5.5478,-5.5507,-5.5507,-5.5507,-5.5507,-5.5507,-5.5507,-5.5507,-5.5507,-5.5507,-5.5507,-5.5507,-5.5507,-5.5507,-5.5507,-5.5507,-5.5507,-5.5507,-5.5507,-5.5507,-5.5507,-5.5507,-5.5507,-5.5507,-5.5507,-5.5507,-5.5507,-5.5507,-5.5507,-5.5507,-5.5507,-5.5478,-5.5478,-5.5324,-5.5199,-5.5169,-5.5066,-5.4961,-5.4961,-5.4855,-5.4527,-5.3698,-5.3477,-5.2942,-5.1511,-5.1154,-5.0856,-5.0114,-5.0011,-5.0011,-5.0011,-5.0011,-5.0011,-5.0011,-5.0011,-5.0011,-5.0011,-5.0011,-4.9666,-4.8844,-4.8103,-4.7389,-4.6648,-4.5828,-4.5397,-4.5397,-4.5157,-4.5005,-4.5005,-4.4737,-4.4615,-4.4615,-4.4615,-4.4215,-4.0635,-4.115,-4.1277,-4.13,-4.0807,-4.0296,-4.0197,-3.9581,0.0,0.0,0.0,-3.6625,-3.65,-3.656,0.0,-3.9479,0.0,0.0,0.0,0.0,-4.6491,0.0,0.0,0.0,0.0,0.0,0.0,0.0,0.0,-5.3857,-5.5437,-5.5354,-5.5187,-5.5083,-5.5083,-5.5144,-5.5259,-5.5259,-5.5354,-5.5507,-5.5507,-5.5507,-5.5507,-5.5507,-5.5507,-5.5507,-5.5507,-5.5507,-5.5507,-5.5507,-5.5507,-5.5507,-5.5507,-5.5507,-5.5507,-5.5507,-5.5507,-5.5507,-5.5507,-5.5507,-5.5507,-5.5507,-5.5507,-5.5507,-5.5507,-5.5507,-5.5507,-5.5507,-5.5507,-5.5478,-5.5306,-5.5229,-5.5169,-5.5066,-5.4948,-5.4842,-5.4842,-5.4686,-5.4509,-5.4339,-5.3822,-5.3115,-5.2153,-5.1481,-5.0856,-5.0114,-5.0011,-5.0011,-5.0011,-5.0011,-5.0011,-5.0011,-5.0011,-5.0011,-5.0011,-5.0011,-4.9666,-4.8844,-4.8103,-4.7389,-4.6648,-4.5828,-4.5397,-4.5397,-4.5157,-4.5005,-4.5005,-4.4737,-4.4615,-4.4615,-4.4615,-4.453,-4.0049,-4.0683,-4.0938,-4.0522,-4.013,-3.9536,-3.8343,0.0,0.0,0.0,0.0,-3.4932,-3.4869,0.0,0.0,0.0,0.0,0.0,0.0,0.0,0.0,0.0,0.0,0.0,0.0,0.0,0.0,0.0,0.0,-5.3638,-5.5266,-5.5187,-5.5066,-5.4992,-5.4992,-5.5035,-5.5096,-5.5169,-5.5229,-5.5354,-5.5448,-5.5507,-5.5507,-5.5507,-5.5507,-5.5507,-5.5507,-5.5507,-5.5507,-5.5507,-5.5507,-5.5507,-5.5507,-5.5507,-5.5507,-5.5507,-5.5507,-5.5507,-5.5507,-5.5507,-5.5507,-5.5507,-5.5507,-5.5507,-5.5507,-5.5507,-5.5507,-5.5507,-5.5431,-5.5306,-5.5229,-5.5096,-5.4961,-5.4917,-5.478,-5.4637,-5.4637,-5.4575,-5.4512,-5.4512,-5.4218,-5.3615,-5.2394,-5.1895,-5.1304,-5.0183,-5.0011,-5.0011,-5.0011,-5.0011,-5.0011,-5.0011,-5.0011,-5.0011,-5.0011,-5.0011,-4.9855,-4.9459,-4.8689,-4.7931,-4.7189,-4.6414,-4.5828,-4.5414,-4.5194,-4.5059,-4.5005,-4.4803,-4.4682,-4.4615,-4.4682,-4.4709,-3.9066,-3.9823,-4.018,-3.956,-3.9095,-3.8362,-3.6577,-3.5822,0.0,0.0,0.0,-3.3512,-3.3492,0.0,0.0,0.0,0.0,0.0,0.0,0.0,0.0,0.0,0.0,0.0,0.0,0.0,0.0,0.0,0.0,-5.3547,-5.5039,-5.5005,-5.493,-5.49,-5.49,-5.49,-5.4978,-5.5066,-5.5139,-5.5199,-5.5354,-5.5478,-5.5507,-5.5507,-5.5507,-5.5507,-5.5507,-5.5507,-5.5507,-5.5507,-5.5507,-5.5507,-5.5507,-5.5507,-5.5507,-5.5507,-5.5507,-5.5507,-5.5507,-5.5507,-5.5507,-5.5507,-5.5507,-5.5507,-5.5507,-5.5507,-5.5478,-5.5448,-5.5306,-5.5199,-5.5109,-5.4978,-5.4797,-5.4749,-5.4623,-5.4512,-5.4512,-5.4512,-5.4512,-5.4512,-5.4512,-5.4011,-5.2463,-5.2188,-5.1688,-5.0235,-5.0011,-5.0011,-5.0011,-5.0011,-5.0011,-5.0011,-5.0011,-5.0011,-5.0011,-5.0011,-5.0011,-5.0011,-4.9223,-4.8534,-4.7948,-4.7234,-4.6535,-4.5897,-4.5601,-4.539,-4.5272,-4.4981,-4.4776,-4.4682,-4.4776,-4.4831,-3.7974,-3.8482,-3.8516,-3.8448,-3.737,-3.6275,-3.607,0.0,0.0,0.0,-3.261,-3.2573,-3.2452,-3.2584,0.0,0.0,0.0,0.0,0.0,0.0,0.0,0.0,0.0,0.0,0.0,0.0,0.0,0.0,0.0,-5.3892,-5.479,-5.4811,-5.4731,-5.4543,-5.4543,-5.4637,-5.4811,-5.4842,-5.4961,-5.5199,-5.5229,-5.5306,-5.5507,-5.5507,-5.5507,-5.5507,-5.5507,-5.5507,-5.5507,-5.5507,-5.5507,-5.5507,-5.5507,-5.5507,-5.5507,-5.5507,-5.5507,-5.5507,-5.5507,-5.5507,-5.5507,-5.5507,-5.5507,-5.5507,-5.5507,-5.5507,-5.5478,-5.5277,-5.5229,-5.5139,-5.4886,-5.4811,-5.4749,-5.4575,-5.4512,-5.4512,-5.4512,-5.4512,-5.4512,-5.4512,-5.4512,-5.4011,-5.2463,-5.2188,-5.1688,-5.0235,-5.0011,-5.0011,-5.0011,-5.0011,-5.0011,-5.0011,-5.0011,-5.0011,-5.0011,-5.0011,-5.0011,-5.0011,-4.9223,-4.8758,-4.8689,-4.7982,-4.7551,-4.7482,-4.6649,-4.6189,-4.6189,-4.5384,-4.4995,-4.4951,-4.4995,-4.4978,-3.6196,-3.6827,-3.7047,-3.6624,-3.6027,-3.5239,-3.3956,0.0,0.0,-3.1198,-3.1065,-3.1046,-3.099,-3.1738,-3.2853,0.0,0.0,0.0,0.0,0.0,0.0,0.0,0.0,0.0,0.0,0.0,0.0,0.0,0.0,-5.3103,-5.3898,-5.4382,-5.4575,-5.4512,-5.4512,-5.4543,-5.4606,-5.4749,-5.4886,-5.5096,-5.5169,-5.5306,-5.5507,-5.5507,-5.5507,-5.5507,-5.5507,-5.5507,-5.5507,-5.5507,-5.5507,-5.5507,-5.5507,-5.5507,-5.5507,-5.5507,-5.5507,-5.5507,-5.5507,-5.5507,-5.5507,-5.5507,-5.5507,-5.5507,-5.5507,-5.5507,-5.5478,-5.5259,-5.5139,-5.5053,-5.4842,-5.4717,-5.4606,-5.4512,-5.4512,-5.4512,-5.4512,-5.4512,-5.4512,-5.4512,-5.4149,-5.3494,-5.2377,-5.1808,-5.12,-5.0166,-5.0011,-5.0011,-5.0011,-5.0011,-5.0011,-5.0011,-5.0011,-5.0011,-5.0011,-5.0011,-5.0011,-5.0011,-4.9717,-4.9321,-4.881,-4.8517,-4.8137,-4.7717,-4.7334,-4.7096,-4.7013,-4.6666,-4.6456,-4.6372,-4.6473,-4.6501,-3.4013,-3.4793,-3.5234,-3.471,-3.4281,-3.3589,0.0,0.0,0.0,-2.9796,-2.9751,-2.9837,-3.0074,-3.0954,-3.2076,0.0,0.0,0.0,0.0,0.0,0.0,0.0,0.0,0.0,0.0,0.0,0.0,0.0,0.0,-5.2532,-5.3356,-5.4098,-5.4512,-5.4512,-5.4512,-5.4512,-5.4512,-5.4686,-5.4873,-5.4992,-5.5139,-5.5306,-5.5507,-5.5507,-5.5507,-5.5507,-5.5507,-5.5507,-5.5507,-5.5507,-5.5507,-5.5507,-5.5507,-5.5507,-5.5478,-5.5431,-5.5401,-5.5401,-5.5371,-5.5371,-5.5401,-5.5401,-5.5431,-5.5478,-5.5431,-5.5401,-5.5354,-5.5187,-5.5005,-5.4838,-5.4749,-5.4623,-5.4512,-5.4512,-5.4512,-5.4512,-5.4512,-5.4512,-5.4512,-5.4512,-5.3908,-5.3149,-5.2326,-5.1584,-5.0856,-5.0114,-5.0011,-5.0011,-5.0011,-5.0011,-5.0011,-5.0011,-5.0011,-5.0011,-5.0011,-5.0011,-5.0011,-5.0011,-5.0011,-4.9752,-4.9172,-4.9137,-4.8924,-4.8407,-4.8137,-4.7989,-4.7876,-4.767,-4.7522,-4.742,-4.7522,-4.755,-3.1501,-3.2319,-3.2928,-3.2928,-3.193,-3.0945,0.0,0.0,0.0,-2.8809,-2.8918,-2.923,-2.9973,-3.0106,-3.0891,-3.3213,0.0,0.0,0.0,0.0,0.0,0.0,0.0,0.0,0.0,0.0,0.0,0.0,-5.1774,0.0,-5.3356,-5.4098,-5.4512,-5.4512,-5.4512,-5.4512,-5.4512,-5.4686,-5.4873,-5.4992,-5.5139,-5.5306,-5.5507,-5.5507,-5.5507,-5.5507,-5.5507,-5.5507,-5.5507,-5.5507,-5.5507,-5.5507,-5.5507,-5.5507,-5.5478,-5.5277,-5.5199,-5.5199,-5.5035,-5.5096,-5.5199,-5.5199,-5.5354,-5.5478,-5.5259,-5.5199,-5.5169,-5.5035,-5.4745,-5.4512,-5.4512,-5.4512,-5.4512,-5.4512,-5.4512,-5.4512,-5.4512,-5.4512,-5.4512,-5.4512,-5.3908,-5.3149,-5.2326,-5.1584,-5.0856,-5.0114,-5.0011,-5.0011,-5.0011,-5.0011,-5.0011,-5.0011,-5.0011,-5.0011,-5.0011,-5.0011,-5.0011,-5.0011,-5.0011,-5.0011,-4.9993,-4.9993,-4.9993,-4.9993,-4.9172,-4.8792,-4.8775,-4.8051,-4.7689,-4.7689,-4.7689,-4.7689,-2.9778,-3.0182,-3.0363,-3.0363,-3.0084,-2.9689,-2.9303,0.0,-2.789,-2.8017,-2.8089,-2.8361,-2.9194,-2.9753,-3.0666,-3.2435,-3.3516,0.0,0.0,0.0,0.0,0.0,0.0,0.0,0.0,0.0,0.0,0.0,-5.1481,-5.2291,-5.258,-5.3804,-5.4512,-5.4512,-5.4512,-5.4512,-5.4512,-5.4686,-5.4873,-5.4992,-5.5139,-5.5306,-5.5507,-5.5507,-5.5507,-5.5507,-5.5507,-5.5507,-5.5507,-5.5507,-5.5507,-5.5507,-5.5507,-5.5431,-5.5277,-5.5229,-5.5139,-5.5066,-5.5005,-5.5022,-5.5096,-5.5169,-5.5187,-5.5144,-5.5199,-5.5199,-5.5139,-5.4917,-5.4669,-5.4512,-5.4512,-5.4512,-5.4512,-5.4512,-5.4512,-5.4512,-5.4512,-5.4512,-5.4512,-5.4512,-5.3477,-5.2511,-5.2222,-5.1183,-5.0287,-5.0045,-5.0011,-5.0011,-5.0011,-5.0011,-5.0011,-5.0011,-5.0011,-5.0011,-5.0011,-5.0011,-5.0011,-5.0011,-5.0011,-5.0011,-5.0011,-5.0011,-5.0011,-5.0011,-4.9752,-4.9631,-4.9631,-4.939,-4.9286,-4.9286,-4.9286,-4.9286,0.0,-2.8277,-2.8727,-2.8727,-2.8558,0.0,0.0,0.0,-2.6993,-2.7139,-2.7227,-2.7617,-2.8734,-2.9345,-3.0279,-3.208,0.0,0.0,0.0,0.0,0.0,0.0,0.0,0.0,0.0,0.0,0.0,0.0,-5.136,-5.2188,-5.2188,-5.3667,-5.4512,-5.4512,-5.4512,-5.4543,-5.4606,-5.4811,-5.493,-5.5066,-5.5247,-5.5383,-5.5507,-5.5507,-5.5507,-5.5507,-5.5507,-5.5507,0.0,-5.5507,-5.5507,-5.5507,-5.5507,-5.5383,-5.5164,-5.4825,-5.46,-5.4465,-5.4422,-5.4452,-5.4548,-5.4918,-5.4992,-5.4878,-5.4657,-5.4809,-5.4992,-5.478,-5.4623,-5.4512,-5.4512,-5.4512,-5.4512,-5.4512,-5.4512,-5.4512,-5.4512,-5.4512,-5.4425,-5.4149,-5.3049,-5.2101,-5.1808,-5.0804,-5.0011,-5.0011,-5.0011,-5.0011,-5.0011,-5.0011,-5.0011,-5.0011,-5.0011,-5.0011,-5.0011,-5.0011,-5.0011,-5.0011,-5.0011,-5.0011,-5.0011,-5.0011,-5.0011,-5.0011,-5.0287,-5.0424,-5.0424,-5.0424,-5.0424,-5.0424,-5.0131,-5.0011,0.0,0.0,0.0,0.0,0.0,0.0,0.0,0.0,0.0,-2.6211,-2.6418,-2.706,-2.8523,-2.8901,0.0,0.0,0.0,0.0,0.0,0.0,0.0,0.0,0.0,0.0,0.0,0.0,0.0,-5.0011,-5.1373,-5.2218,-5.2218,-5.3698,-5.4543,-5.4543,-5.4543,-5.4606,-5.4797,-5.4948,-5.5066,-5.5199,-5.5401,-5.5507,-5.5507,-5.5507,-5.5507,-5.5507,-5.5507,-5.5507,-5.5507,-5.5507,-5.5507,-5.5507,-5.5478,-5.5336,-5.5012,-5.4182,-5.3736,-5.3485,-5.3366,-5.3431,-5.374,-5.452,-5.4745,-5.4555,-5.3827,-5.4121,-5.4662,-5.4405,-5.4339,-5.4356,-5.4425,-5.4425,-5.4443,-5.4494,-5.4477,-5.4425,-5.4425,-5.4391,-5.4132,-5.346,-5.2684,-5.1895,-5.1235,-5.0493,-5.0011,-5.0011,-5.0011,-5.0011,-5.0011,-5.0011,-5.0011,-5.0011,-5.0011,-5.0011,-5.0011,-5.0011,-5.0011,-5.0011,-5.0011,-5.0011,-5.0011,-5.0011,-5.0028,-5.008,-5.0804,-5.1183,-5.1183,-5.1183,-5.1166,-5.1097,-5.0407,-5.0062,-2.3058,0.0,-2.438,0.0,0.0,0.0,0.0,0.0,0.0,0.0,0.0,0.0,0.0,0.0,0.0,0.0,0.0,0.0,0.0,0.0,0.0,0.0,0.0,0.0,0.0,0.0,0.0,-5.0011,-5.1509,-5.2416,-5.2416,-5.3992,-5.4869,-5.4869,-5.4869,-5.4855,-5.4797,-5.4948,-5.5066,-5.5199,-5.5401,-5.5507,-5.5507,-5.5507,-5.5507,-5.5507,-5.5507,-5.5507,-5.5507,-5.5507,-5.5507,-5.5478,-5.5324,-5.4837,-5.4164,-5.3792,-5.3177,-5.2507,-5.2494,-5.2921,-5.3573,-5.4333,-5.4271,-5.3814,-5.3535,-5.3591,-5.3608,-5.2925,-5.2722,-5.2891,-5.3511,-5.3667,-5.3804,-5.4374,-5.408,-5.3667,-5.3667,-5.3184,-5.2701,-5.2528,-5.186,-5.1321,-5.1149,-5.0493,-5.0011,-5.0011,-5.0011,-5.0011,-5.0011,-5.0011,-5.0011,-5.0011,-5.0011,-5.0011,-5.0011,-5.0011,-5.0011,-5.0011,-5.0011,-5.0011,-5.0011,-5.0011,-5.0269,-5.0838,-5.158,-5.1929,-5.1929,-5.1929,-5.1636,-5.1114,-5.0925,-5.0545,-2.1843,-2.2602,-2.3377,-2.3377,-2.348,-2.3664,0.0,0.0,0.0,0.0,0.0,0.0,0.0,0.0,0.0,0.0,0.0,0.0,0.0,0.0,0.0,0.0,0.0,0.0,0.0,0.0,-5.0092,-5.0092,-5.1656,-5.2612,-5.2612,-5.4126,-5.4961,-5.4917,-5.4917,-5.4948,-5.4992,-5.5066,-5.5156,-5.5354,-5.5448,-5.5507,-5.5507,-5.5507,-5.5507,-5.5507,-5.5507,-5.5507,-5.5507,-5.5507,-5.5448,-5.5354,-5.5229,-5.4625,-5.3688,-5.3251,-5.2507,-5.1718,-5.1718,-5.2459,-5.3477,-5.3873,-5.378,-5.3445,-5.299,-5.2615,-5.2321,-5.2222,-5.2188,-5.2291,-5.2753,-5.2856,-5.2959,-5.3356,-5.3149,-5.2856,-5.2856,-5.2528,-5.2084,-5.174,-5.136,-5.0994,-5.0666,-5.0269,-5.0011,-5.0011,-5.0011,-5.0011,-5.0011,-5.0011,-5.0011,-5.0011,-5.0011,-5.0011,-5.0011,-5.0011,-5.0011,-5.0011,-5.0011,-5.0011,-5.0011,-5.0338,-5.1045,-5.2132,-5.2563,-5.2925,-5.327,-5.2925,-5.2373,-5.1614,-5.1269,-5.0718,-2.1215,-2.2183,-2.3156,-2.3155,-2.3253,-2.3548,0.0,0.0,0.0,0.0,0.0,0.0,0.0,0.0,0.0,0.0,0.0,0.0,0.0,0.0,0.0,0.0,0.0,0.0,0.0,-4.9318,-5.0246,-5.0246,-5.168,-5.2567,-5.2567,-5.4042,-5.4818,-5.4699,-5.4803,-5.4961,-5.5169,-5.5139,-5.5264,-5.5431,-5.5431,-5.5478,-5.5507,-5.5507,-5.5507,-5.5507,-5.5478,-5.5431,-5.5448,-5.5448,-5.5324,-5.5169,-5.4999,-5.4313,-5.3342,-5.255,-5.1716,-5.0959,-5.108,-5.1977,-5.308,-5.3184,-5.3149,-5.2925,-5.2252,-5.1498,-5.108,-5.1701,-5.1843,-5.1877,-5.1981,-5.2015,-5.205,-5.2153,-5.2101,-5.2015,-5.2015,-5.1929,-5.1671,-5.1063,-5.0942,-5.0735,-5.0114,-5.0011,-5.0011,-5.0011,-5.0011,-5.0011,-5.0011,-5.0011,-5.0011,-5.0011,-5.0011,-5.0011,-5.0011,-5.0011,-4.9982,-4.9964,-4.9964,-5.0062,-5.0166,-5.089,-5.1942,-5.3373,-5.3511,-5.3891,-5.4512,-5.377,-5.2994,-5.217,-5.1429,-5.0718,-2.1277,-2.1471,-2.1617,-2.1569,-2.2102,-2.272,0.0,0.0,0.0,0.0,0.0,0.0,0.0,0.0,0.0,0.0,0.0,0.0,0.0,0.0,0.0,0.0,0.0,0.0,0.0,-4.9799,-5.0387,-5.0387,-5.1346,-5.1937,-5.1937,-5.3503,-5.4343,-5.4201,-5.4825,-5.5079,-5.5035,-5.4917,-5.4992,-5.5229,-5.5229,-5.5354,-5.5507,-5.5507,-5.5507,-5.5478,-5.5306,-5.5229,-5.5229,-5.5126,-5.5053,-5.4953,-5.414,-5.3368,-5.2562,-5.1652,-5.0851,-5.0269,-5.089,-5.1269,-5.1563,-5.2201,-5.1977,-5.1442,-5.1321,-5.0752,-5.02,-5.0321,-5.0338,-5.0493,-5.1114,-5.1287,-5.1442,-5.2033,-5.1705,-5.1287,-5.1287,-5.0787,-5.0304,-5.02,-5.0183,-5.0131,-5.0028,-5.0011,-5.0011,-5.0011,-5.0011,-5.0011,-5.0011,-5.0011,-5.0011,-5.0011,-5.0011,-5.0011,-5.0011,-5.0011,-4.9935,-4.9755,-4.9906,-5.0287,-5.0925,-5.1649,-5.2477,-5.3391,-5.4011,-5.4391,-5.4512,-5.377,-5.2994,-5.217,-5.1429,-5.0718,-2.1465,-2.1759,-2.2036,-2.202,-2.2264,-2.2753,0.0,0.0,0.0,0.0,0.0,0.0,0.0,0.0,0.0,0.0,0.0,0.0,0.0,0.0,0.0,0.0,0.0,0.0,-4.9184,-5.0018,-5.0492,-5.0492,-5.1382,-5.1903,-5.1903,-5.2954,-5.348,-5.334,-5.3995,-5.4274,-5.4156,-5.4461,-5.4776,-5.5096,-5.5096,-5.5144,-5.5221,-5.5221,-5.5221,-5.5221,-5.5126,-5.5096,-5.5096,-5.5022,-5.4978,-5.4817,-5.3944,-5.3073,-5.2188,-5.0971,-5.0304,-5.0062,-5.039,-5.0787,-5.1166,-5.1481,-5.139,-5.1114,-5.1114,-5.0597,-5.0011,-5.0011,-5.0011,-5.008,-5.0424,-5.0528,-5.0597,-5.0942,-5.0752,-5.0528,-5.0528,-5.0252,-5.0011,-5.0011,-5.0011,-5.0011,-5.0011,-5.0011,-5.0011,-5.0011,-5.0011,-5.0011,-5.0011,-4.9906,-4.983,-4.983,-4.9772,-4.9742,-4.9742,-4.9742,-4.9725,-4.9708,-4.9784,-5.0376,-5.1546,-5.1985,-5.2787,-5.3977,-5.3942,-5.3908,-5.3908,-5.3132,-5.2373,-5.1614,-5.1269,-5.0718,-2.1604,-2.2145,-2.2752,-2.2948,0.0,0.0,0.0,0.0,0.0,0.0,0.0,0.0,0.0,0.0,0.0,0.0,0.0,0.0,0.0,0.0,0.0,0.0,0.0,-4.9271,-4.9582,-5.0243,-5.0657,-5.0657,-5.1345,-5.1751,-5.1751,-5.233,-5.2561,-5.2404,-5.3033,-5.3251,-5.3132,-5.3684,-5.4306,-5.493,-5.493,-5.4961,-5.4992,-5.4992,-5.4992,-5.4992,-5.4961,-5.493,-5.493,-5.49,-5.4824,-5.4614,-5.3644,-5.2602,-5.1563,-5.0424,-5.0011,-5.0011,-5.0011,-5.0373,-5.0856,-5.0856,-5.0856,-5.0856,-5.0856,-5.0459,-5.0011,-5.0011,-5.0011,-5.0011,-5.0011,-5.0011,-5.0011,-5.0011,-5.0011,-5.0011,-5.0011,-5.0011,-5.0011,-5.0011,-5.0011,-5.0011,-5.0011,-5.0011,-5.0011,-5.0011,-4.9964,-4.9935,-4.9935,-4.9755,-4.9649,-4.9649,-4.956,-4.9586,-4.9727,-4.9731,-4.9829,-5.0103,-4.9838,-5.0309,-5.1682,-5.1869,-5.2597,-5.3942,-5.3425,-5.3132,-5.3132,-5.2339,-5.1636,-5.1097,-5.0865,-5.0469,-2.1604,-2.2145,-2.2899,-2.3703,0.0,0.0,0.0,0.0,0.0,0.0,0.0,0.0,0.0,0.0,0.0,0.0,0.0,0.0,0.0,0.0,0.0,0.0,0.0,-4.9617,-5.0417,-5.0739,-5.0891,-5.0891,-5.0943,-5.0978,-5.0978,-5.1542,-5.1776,-5.1587,-5.2235,-5.2502,-5.2274,-5.2326,-5.3207,-5.4811,-5.4811,-5.4886,-5.4992,-5.4992,-5.4992,-5.4992,-5.4873,-5.4811,-5.478,-5.4606,-5.4543,-5.4356,-5.2873,-5.1425,-5.0149,-5.0045,-5.0011,-5.0011,-5.0011,-5.0045,-5.008,-5.008,-5.008,-5.008,-5.008,-5.0045,-5.0011,-5.0011,-5.0011,-5.0011,-5.0011,-5.0011,-5.0011,-5.0011,-5.0011,-5.0011,-5.0011,-5.0011,-5.0011,-5.0011,-5.0011,-5.0011,-5.0011,-5.0011,-5.0011,-5.0011,-4.986,-4.9708,-4.9708,-4.9607,-4.95,-4.95,-4.9518,-4.9778,-5.0448,-5.0393,-5.062,-5.1349,-5.03,-5.0086,-5.0927,-5.1111,-5.1533,-5.2343,-5.2291,-5.2274,-5.2274,-5.1563,-5.1166,-5.1067,-5.0226,-4.9759,-2.1783,-2.266,-2.3669,-2.4031,0.0,0.0,0.0,0.0,0.0,0.0,0.0,0.0,0.0,0.0,0.0,0.0,0.0,0.0,0.0,0.0,0.0,0.0,-4.95,-5.0185,-5.0712,-5.0846,-5.0891,-5.0891,-5.0891,-5.0846,-5.0729,-5.0844,-5.0878,-5.069,-5.1308,-5.1588,-5.1498,-5.1964,-5.2542,-5.319,-5.3691,-5.4188,-5.4683,-5.4683,-5.4683,-5.47,-5.4637,-5.4606,-5.4623,-5.4543,-5.4236,-5.3667,-5.2132,-5.0907,-5.0011,-5.0011,-5.0011,-5.0011,-5.0011,-5.0011,-5.0011,-5.0011,-5.0011,-5.0011,-5.0011,-5.0011,-5.0011,-5.0011,-5.0011,-5.0011,-5.0011,-5.0011,-5.0011,-5.0011,-5.0011,-5.0011,-5.0011,-5.0011,-5.0011,-5.0011,-5.0011,-5.0011,-5.0011,-4.9906,-4.9813,-4.9813,-4.9666,-4.9577,-4.9577,-4.9411,-4.932,-4.932,-4.9637,-5.017,-5.0903,-5.0939,-5.1026,-5.1297,-5.0659,-5.0604,-5.1374,-5.1206,-5.1459,-5.217,-5.177,-5.1498,-5.1498,-5.0634,-5.0243,-5.0226,-4.9786,-4.9577,-2.2167,-2.318,-2.4262,0.0,0.0,0.0,0.0,0.0,0.0,0.0,0.0,0.0,0.0,0.0,0.0,0.0,0.0,0.0,0.0,0.0,0.0,0.0,-4.9907,-5.0443,-5.071,-5.0737,-5.0737,-5.0737,-5.0737,-5.0692,-5.0547,-5.0397,-5.0285,-5.0217,-5.0564,-5.0752,-5.0752,-5.1269,-5.1632,-5.1873,-5.2425,-5.3063,-5.3787,-5.3787,-5.3925,-5.4167,-5.4086,-5.4175,-5.4399,-5.4353,-5.3768,-5.2754,-5.1447,-5.0501,-4.9848,-4.9848,-4.9848,-4.9848,-4.9848,-4.9848,-4.9848,-4.9848,-4.9877,-4.9906,-4.9906,-4.9935,-5.0011,-5.0011,-5.0011,-5.0011,-5.0011,-5.0011,-5.0011,-5.0011,-5.0011,-5.0011,-5.0011,-5.0011,-4.9982,-4.9935,-4.9906,-4.9889,-4.9848,-4.9725,-4.9619,-4.9619,-4.95,-4.9428,-4.9428,-4.9229,-4.924,-4.946,-5.0062,-5.0744,-5.1488,-5.1555,-5.1674,-5.1928,-5.1269,-5.1,-5.1273,-5.0849,-5.0828,-5.1344,-5.0845,-5.0587,-5.0587,-4.9936,-4.9619,-4.9619,-4.9411,-4.9337,-2.2798,-2.3578,0.0,0.0,0.0,0.0,0.0,0.0,0.0,0.0,0.0,0.0,0.0,0.0,0.0,0.0,0.0,0.0,0.0,0.0,0.0,-4.8993,-4.9767,-5.0246,-5.0387,-5.0415,-5.0415,-5.0415,-5.0415,-5.0415,-5.0415,-5.0274,-5.0189,-5.0189,-5.008,-5.0011,-5.0011,-5.0011,-5.0373,-5.1097,-5.1097,-5.1464,-5.2188,-5.2188,-5.2649,-5.3391,-5.3201,-5.3501,-5.4173,-5.4011,-5.3075,-5.164,-5.0871,-5.015,-4.9518,-4.9518,-4.9518,-4.9518,-4.9518,-4.9518,-4.9518,-4.9518,-4.959,-4.9708,-4.9708,-4.983,-5.0011,-5.0011,-5.0011,-5.0011,-5.0011,-5.0011,-5.0011,-5.0011,-5.0011,-5.0011,-5.0011,-5.0011,-4.9935,-4.9737,-4.9708,-4.9649,-4.95,-4.9518,-4.9518,-4.9518,-4.932,-4.9199,-4.9199,-4.9094,-4.9289,-5.0016,-5.0777,-5.1522,-5.2249,-5.2317,-5.2655,-5.345,-5.2243,-5.115,-5.0436,-4.9837,-4.9518,-4.9518,-4.9518,-4.9518,-4.9518,-4.9488,-4.9488,-4.9488,-4.9155,-4.9001,-2.2907,0.0,0.0,0.0,0.0,0.0,0.0,0.0,0.0,0.0,0.0,0.0,0.0,0.0,0.0,0.0,0.0,0.0,0.0,0.0,-4.8983,-4.9773,-5.0079,-5.0246,-5.0387,-5.0415,-5.0415,-5.0415,-5.0415,-5.0359,-5.0274,-5.0217,-5.0178,-5.008,-5.0022,-5.0011,-5.0011,-5.0011,-5.0114,-5.0338,-5.0338,-5.0994,-5.2188,-5.2188,-5.2295,-5.2427,-5.2348,-5.2423,-5.2452,-5.1842,-5.1346,-5.0837,-5.0133,-4.9676,-4.9518,-4.9518,-4.9518,-4.9518,-4.9518,-4.9518,-4.9518,-4.9518,-4.9518,-4.956,-4.956,-4.9607,-4.9666,-4.9755,-4.9725,-4.9666,-4.9755,-4.9725,-4.9713,-4.9935,-4.9889,-4.9784,-4.9784,-4.9696,-4.9637,-4.9577,-4.956,-4.9547,-4.9518,-4.9381,-4.929,-4.929,-4.9155,-4.9063,-4.9063,-4.9489,-5.005,-5.0794,-5.1539,-5.23,-5.3078,-5.3145,-5.3247,-5.3484,-5.2096,-5.1244,-5.1167,-5.011,-4.9518,-4.9518,-4.9518,-4.9428,-4.929,-4.9168,-4.9077,-4.8937,-4.8736,-4.8578,-2.3388,0.0,0.0,0.0,0.0,0.0,0.0,0.0,0.0,0.0,0.0,0.0,0.0,0.0,0.0,0.0,0.0,0.0,-4.7711,-4.8335,-4.8983,-4.9999,-5.012,-5.0149,-5.0235,-5.0235,-5.0235,-5.0235,-5.0235,-5.0206,-5.012,-5.012,-5.0063,-4.9993,-5.0011,-5.0011,-5.0011,-5.0011,-5.0011,-5.0011,-5.0011,-5.0476,-5.1309,-5.1232,-5.1344,-5.1562,-5.173,-5.168,-5.1439,-5.0643,-5.0289,-5.0142,-4.9396,-4.9107,-4.9107,-4.9185,-4.9216,-4.9216,-4.9277,-4.9307,-4.9307,-4.9307,-4.9337,-4.9381,-4.9381,-4.9458,-4.9518,-4.959,-4.956,-4.9518,-4.959,-4.956,-4.9547,-4.9742,-4.9696,-4.9619,-4.9619,-4.9577,-4.9488,-4.9398,-4.9381,-4.935,-4.9307,-4.9216,-4.9107,-4.9107,-4.9063,-4.912,-4.9407,-5.0084,-5.0828,-5.1572,-5.2334,-5.2976,-5.3467,-5.3501,-5.3501,-5.3501,-5.2063,-5.1217,-5.1298,-4.9952,-4.9216,-4.9216,-4.9138,-4.9046,-4.8923,-4.8829,-4.8704,-4.8498,-4.8356,-4.8195,0.0,0.0,0.0,0.0,0.0,0.0,0.0,0.0,0.0,0.0,0.0,0.0,0.0,0.0,0.0,0.0,0.0,-4.6524,-4.7738,-4.7961,-4.8495,-4.9838,-5.0011,-5.0011,-5.0011,-5.0011,-5.0011,-5.0011,-5.0011,-5.0011,-5.0011,-5.0011,-5.0011,-5.0011,-5.0011,-5.0011,-5.0011,-5.0011,-5.0011,-5.0011,-5.0011,-5.0011,-4.9964,-4.9784,-5.0073,-5.0746,-5.1123,-5.1095,-5.0738,-5.0065,-4.9651,-4.9421,-4.8751,-4.8515,-4.8515,-4.8707,-4.8769,-4.8801,-4.8909,-4.897,-4.897,-4.897,-4.9063,-4.9168,-4.9168,-4.932,-4.9458,-4.9488,-4.9441,-4.9458,-4.9488,-4.9441,-4.9458,-4.9458,-4.9441,-4.9488,-4.9488,-4.9441,-4.9398,-4.9229,-4.9168,-4.9138,-4.9032,-4.9001,-4.9001,-4.9001,-4.9001,-4.9272,-4.9999,-5.0744,-5.1488,-5.2232,-5.3027,-5.3501,-5.3501,-5.3501,-5.3501,-5.3501,-5.2098,-5.1205,-5.1024,-4.9592,-4.8769,-4.8769,-4.8564,-4.8452,-4.8452,-4.8452,-4.8324,-4.813,-4.8017,-4.782,0.0,0.0,0.0,0.0,0.0,0.0,0.0,0.0,0.0,0.0,0.0,0.0,0.0,0.0,0.0,0.0,0.0,-4.7186,-4.7942,-4.8494,-4.9128,-4.9919,-5.0011,-5.0011,-5.0011,-5.0011,-5.0011,-5.0011,-5.0011,-5.0011,-5.0011,-5.0011,-5.0011,-5.0011,-5.0011,-5.0011,-5.0011,-5.0011,-5.0011,-5.0011,-5.0011,-4.9935,-4.9755,-4.9708,-4.9646,-4.9545,-4.9424,-4.9352,-4.9241,-4.8929,-4.8798,-4.8701,-4.8582,-4.8515,-4.8515,-4.8564,-4.8547,-4.8564,-4.8578,-4.8721,-4.8832,-4.8832,-4.8909,-4.9032,-4.9032,-4.9063,-4.9124,-4.9229,-4.9168,-4.9124,-4.9229,-4.9185,-4.9094,-4.9094,-4.9185,-4.926,-4.926,-4.9185,-4.9094,-4.9063,-4.9032,-4.9032,-4.9001,-4.9001,-4.9001,-4.9001,-4.9001,-4.9272,-4.9999,-5.0744,-5.1488,-5.2232,-5.3027,-5.3501,-5.3501,-5.3501,-5.3501,-5.3501,-5.2505,-5.163,-5.104,-4.9592,-4.8738,-4.8564,-4.8356,-4.8195,-4.8099,-4.7935,-4.7787,-4.7637,-4.7604,-4.742,0.0,0.0,0.0,0.0,0.0,0.0,0.0,0.0,0.0,0.0,0.0,0.0,0.0,0.0,0.0,0.0,-4.6296,-4.676,-4.7385,-4.8068,-4.8747,-4.9338,-4.9769,-5.0011,-5.0011,-5.0011,-5.0011,-5.0011,-5.0011,-5.0011,-5.0011,-5.0011,-5.0011,-5.0011,-5.0011,-5.0011,-5.0011,-5.0011,-5.0011,-5.0011,-4.9889,-4.9725,-4.9471,-4.9471,-4.929,-4.9001,-4.8863,-4.8675,-4.85,-4.8388,-4.8324,-4.8276,-4.8276,-4.8276,-4.8276,-4.8324,-4.8356,-4.8356,-4.8452,-4.8564,-4.8658,-4.8658,-4.8769,-4.8894,-4.8894,-4.8956,-4.9001,-4.9077,-4.9063,-4.9001,-4.9094,-4.9001,-4.8894,-4.8894,-4.9001,-4.9107,-4.9107,-4.9063,-4.9001,-4.9001,-4.9001,-4.9001,-4.9001,-4.9001,-4.9001,-4.9001,-4.9001,-4.9272,-4.9999,-5.0744,-5.1488,-5.2232,-5.3027,-5.3501,-5.3501,-5.3501,-5.3501,-5.3501,-5.2623,-5.1883,-5.1413,-4.979,-4.8724,-4.8276,-4.8017,-4.782,-4.777,-4.7671,-4.7454,-4.7217,-4.7217,-4.7012,0.0,0.0,0.0,0.0,0.0,0.0,0.0,0.0,0.0,0.0,0.0,0.0,0.0,0.0,0.0,0.0,-4.577,-4.6013,-4.6707,-4.7294,-4.7914,-4.8545,-4.9321,-4.9804,-4.9804,-4.9924,-5.0011,-5.0011,-5.0011,-5.0011,-5.0011,-5.0011,-5.0011,-5.0011,-5.0011,-5.0011,-5.0011,-5.0011,-5.0011,-5.0011,-4.9755,-4.95,-4.9199,-4.9138,-4.9001,-4.8786,-4.8738,-4.85,-4.8195,-4.813,-4.8049,-4.7968,-4.7935,-4.7935,-4.7951,-4.8065,-4.813,-4.8195,-4.8356,-4.842,-4.8452,-4.8452,-4.8595,-4.8738,-4.8738,-4.8832,-4.8909,-4.8909,-4.8909,-4.8909,-4.8909,-4.8815,-4.8738,-4.8738,-4.8815,-4.8909,-4.8909,-4.8909,-4.8909,-4.8909,-4.8909,-4.8909,-4.8909,-4.894,-4.8987,-4.8987,-4.897,-4.9272,-4.9999,-5.0744,-5.1488,-5.2232,-5.3027,-5.3501,-5.3501,-5.3501,-5.3501,-5.3467,-5.2708,-5.2085,-5.1713,-5.0206,-4.896,-4.8068,-4.767,-4.7436,-4.7403,-4.7369,-4.7149,-4.6789,-4.6789,-4.6615,0.0,0.0,0.0,0.0,0.0,0.0,0.0,0.0,0.0,0.0,0.0,0.0,0.0,0.0,0.0,0.0,-4.5693,-4.591,-4.668,-4.6763,-4.7027,-4.7741,-4.8499,-4.8947,-4.8947,-4.9597,-5.0011,-5.0011,-5.0011,-5.0011,-5.0011,-5.0011,-5.0011,-5.0011,-5.0011,-5.0011,-5.0011,-5.0011,-5.0011,-5.0011,-4.9683,-4.9411,-4.9199,-4.894,-4.8832,-4.8786,-4.8436,-4.826,-4.8163,-4.7902,-4.777,-4.7754,-4.7604,-4.7637,-4.7737,-4.777,-4.7886,-4.8033,-4.8066,-4.8147,-4.8227,-4.8227,-4.8388,-4.8547,-4.8547,-4.8547,-4.8578,-4.8578,-4.8578,-4.8578,-4.8578,-4.8547,-4.8547,-4.8547,-4.8547,-4.8578,-4.8578,-4.8578,-4.8578,-4.8578,-4.8578,-4.8578,-4.8578,-4.869,-4.8849,-4.8849,-4.8925,-4.9272,-4.9999,-5.0744,-5.1488,-5.2232,-5.3027,-5.3501,-5.3501,-5.3501,-5.3433,-5.3264,-5.2957,-5.2364,-5.1335,-5.0768,-4.9747,-4.8199,-4.7561,-4.7132,-4.6996,-4.6807,-4.6598,-4.6369,-4.6369,-4.6278,0.0,0.0,0.0,0.0,0.0,0.0,0.0,0.0,0.0,0.0,0.0,0.0,0.0,0.0,0.0,0.0,-4.5528,-4.5623,-4.5969,-4.6347,-4.6734,-4.7062,-4.7724,-4.8172,-4.8172,-4.851,-4.8717,-4.8717,-4.9085,-4.9338,-4.9338,-4.9769,-5.0011,-5.0011,-5.0011,-5.0011,-5.0011,-5.0011,-4.9906,-4.9713,-4.9577,-4.9307,-4.897,-4.8721,-4.8627,-4.8627,-4.8324,-4.8098,-4.7902,-4.777,-4.7654,-4.7604,-4.7504,-4.7537,-4.7604,-4.7671,-4.7754,-4.7853,-4.7968,-4.8033,-4.8082,-4.8082,-4.8212,-4.8324,-4.8324,-4.842,-4.8515,-4.8515,-4.8515,-4.8515,-4.8515,-4.842,-4.8324,-4.8324,-4.826,-4.8212,-4.8212,-4.8373,-4.8515,-4.8515,-4.8515,-4.8515,-4.8515,-4.8578,-4.8627,-4.8627,-4.8769,-4.9012,-4.9333,-5.0071,-5.071,-5.1031,-5.2114,-5.2841,-5.2841,-5.3129,-5.3298,-5.3213,-5.2903,-5.2474,-5.1827,-5.1109,-5.0082,-4.8754,-4.7899,-4.7227,-4.6738,-4.6528,-4.6333,-4.6187,-4.6187,-4.6096,0.0,0.0,0.0,0.0,0.0,0.0,0.0,0.0,0.0,0.0,0.0,0.0,0.0,0.0,0.0,0.0,0.0,-4.5067,-4.5257,-4.5817,-4.6195,-4.6195,-4.6849,-4.7296,-4.7296,-4.7485,-4.7606,-4.7606,-4.815,-4.846,-4.846,-4.9068,-4.9424,-4.9424,-4.9424,-4.9424,-4.9424,-4.9367,-4.9205,-4.8907,-4.8877,-4.874,-4.8483,-4.831,-4.8299,-4.842,-4.8227,-4.7968,-4.7704,-4.7671,-4.7554,-4.7403,-4.7369,-4.7403,-4.7504,-4.7621,-4.7721,-4.7787,-4.7968,-4.8001,-4.8001,-4.8001,-4.8049,-4.8147,-4.8147,-4.826,-4.8356,-4.8356,-4.8356,-4.8356,-4.8356,-4.826,-4.8147,-4.8147,-4.8082,-4.8001,-4.8001,-4.8179,-4.8356,-4.8356,-4.8356,-4.8356,-4.8356,-4.8388,-4.842,-4.842,-4.8595,-4.8738,-4.8738,-4.9455,-4.9957,-4.9957,-5.1121,-5.1881,-5.1881,-5.2489,-5.2824,-5.2756,-5.2612,-5.2412,-5.2181,-5.1362,-5.0334,-4.9042,-4.8292,-4.7425,-4.6474,-4.6314,-4.6092,-4.5754,-4.5754,-4.5588,0.0,0.0,0.0,0.0,0.0,0.0,0.0,0.0,0.0,0.0,0.0,0.0,0.0,0.0,0.0,0.0,0.0,-4.4219,-4.4903,-4.5066,-4.5101,-4.5101,-4.5751,-4.6195,-4.6195,-4.6862,-4.7335,-4.7335,-4.7472,-4.7562,-4.7562,-4.7737,-4.781,-4.781,-4.781,-4.781,-4.781,-4.7698,-4.7512,-4.7307,-4.7208,-4.7302,-4.7662,-4.7524,-4.7736,-4.8195,-4.8049,-4.7886,-4.7671,-4.7554,-4.7403,-4.7217,-4.6996,-4.7183,-4.752,-4.7504,-4.7704,-4.8001,-4.8001,-4.8001,-4.8001,-4.8001,-4.8001,-4.8001,-4.8001,-4.8001,-4.8033,-4.8033,-4.8033,-4.8033,-4.8033,-4.8001,-4.8001,-4.8001,-4.8001,-4.8001,-4.8001,-4.8001,-4.8033,-4.8033,-4.8033,-4.8033,-4.8033,-4.8147,-4.8227,-4.8227,-4.8388,-4.8515,-4.8515,-4.9169,-4.9638,-4.9638,-5.0308,-5.0793,-5.0793,-5.1447,-5.178,-5.1609,-5.2049,-5.2181,-5.1851,-5.1577,-5.0651,-4.884,-4.8593,-4.7684,-4.6148,-4.6112,-4.5639,-4.4764,-4.4764,-4.4433,0.0,0.0,0.0,0.0,0.0,0.0,0.0,0.0,0.0,0.0,0.0,0.0,0.0,0.0,0.0,0.0,0.0,-4.344,-4.4202,-4.4304,-4.4475,-4.4954,-4.5244,-4.5398,-4.5398,-4.5655,-4.5826,-4.5826,-4.6326,-4.6582,-4.6582,-4.7146,-4.7448,-4.7448,-4.7448,-4.7448,-4.7448,-4.7409,-4.7278,-4.7089,-4.7031,-4.6904,-4.6784,-4.7225,-4.7389,-4.7402,-4.7835,-4.7886,-4.7704,-4.7654,-4.7521,-4.7403,-4.7319,-4.7369,-4.7504,-4.7604,-4.7721,-4.782,-4.7968,-4.8001,-4.8001,-4.8001,-4.8001,-4.8001,-4.8001,-4.8001,-4.8001,-4.8001,-4.8001,-4.8001,-4.8001,-4.8001,-4.8001,-4.8001,-4.8001,-4.8001,-4.8001,-4.8001,-4.8001,-4.8001,-4.8001,-4.8001,-4.8001,-4.8033,-4.8049,-4.8049,-4.8212,-4.8324,-4.8324,-4.8654,-4.8885,-4.8885,-4.9538,-4.9973,-4.9973,-5.046,-5.0757,-5.0655,-5.1055,-5.1165,-5.0912,-5.0709,-4.9976,-4.8641,-4.794,-4.7107,-4.6112,-4.5952,-4.5444,-4.4571,-4.4571,-4.4138,0.0,0.0,0.0,0.0,0.0,0.0,0.0,0.0,0.0,0.0,0.0,0.0,0.0,0.0,0.0,0.0,0.0,-4.2394,-4.3107,-4.3226,-4.3396,-4.3888,-4.3956,-4.3956,-4.3956,-4.4232,-4.4412,-4.4412,-4.5175,-4.5657,-4.5657,-4.6208,-4.6526,-4.6526,-4.6526,-4.6526,-4.6526,-4.6498,-4.6397,-4.6255,-4.614,-4.6043,-4.5955,-4.6614,-4.6912,-4.6941,-4.7686,-4.7886,-4.7704,-4.7704,-4.7621,-4.752,-4.752,-4.7537,-4.7604,-4.7688,-4.7737,-4.782,-4.7968,-4.8001,-4.8001,-4.8001,-4.8001,-4.8001,-4.7935,-4.7886,-4.7886,-4.7886,-4.7886,-4.7919,-4.7968,-4.8001,-4.8001,-4.8001,-4.8001,-4.8001,-4.8001,-4.8001,-4.8001,-4.8001,-4.8001,-4.8001,-4.8001,-4.8001,-4.8001,-4.8001,-4.8099,-4.8115,-4.8033,-4.8163,-4.8227,-4.8163,-4.8612,-4.8911,-4.8911,-4.9342,-4.9619,-4.9619,-5.0016,-5.0125,-4.9981,-4.9779,-4.9162,-4.8051,-4.7426,-4.6691,-4.5896,-4.555,-4.4953,-4.4118,-4.3847,-4.3306,0.0,0.0,0.0,0.0,0.0,0.0,0.0,0.0,0.0,0.0,0.0,0.0,0.0,0.0,0.0,0.0,0.0,-4.0983,-4.173,-4.1848,-4.1881,-4.1898,-4.1898,-4.1898,-4.1898,-4.2673,-4.3176,-4.3176,-4.4118,-4.4708,-4.4708,-4.4845,-4.4927,-4.4944,-4.4944,-4.4961,-4.4978,-4.4831,-4.4776,-4.4776,-4.4452,-4.4611,-4.5172,-4.5724,-4.6302,-4.6908,-4.7653,-4.7869,-4.7704,-4.7704,-4.7621,-4.7504,-4.7504,-4.7588,-4.7704,-4.7704,-4.782,-4.8001,-4.8001,-4.8001,-4.8001,-4.8001,-4.8001,-4.7968,-4.7737,-4.7704,-4.7704,-4.7704,-4.7704,-4.7737,-4.7935,-4.8001,-4.8001,-4.8001,-4.8001,-4.8001,-4.8001,-4.8001,-4.8001,-4.8001,-4.8001,-4.8001,-4.8001,-4.8001,-4.8001,-4.8001,-4.8001,-4.7886,-4.7704,-4.7704,-4.7654,-4.7504,-4.752,-4.752,-4.752,-4.8092,-4.8469,-4.8469,-4.8966,-4.9196,-4.905,-4.8849,-4.8219,-4.7114,-4.7082,-4.6529,-4.5484,-4.4809,-4.4118,-4.338,-4.245,-4.1763,-2.5565,0.0,0.0,0.0,0.0,0.0,0.0,0.0,0.0,0.0,0.0,0.0,0.0,0.0,0.0,0.0,0.0,-3.946,-4.0206,-4.0776,-4.1312,-4.1831,-4.1898,-4.1898,-4.1898,-4.2137,-4.2255,0.0,-4.2522,-4.2711,-4.2711,-4.2749,-4.3002,-4.3541,-4.3558,-4.3799,-4.4338,-4.4327,-4.4298,-4.4298,-4.4212,-4.4185,-4.4273,-4.4913,-4.5538,-4.6146,-4.6874,-4.7471,-4.7935,-4.7935,-4.7902,-4.7869,-4.7869,-4.7869,-4.7935,-4.7935,-4.7968,-4.8001,-4.8001,-4.8001,-4.8001,-4.8001,-4.7886,-4.777,-4.7704,-4.7621,-4.7571,-4.7571,-4.7571,-4.7604,-4.7754,-4.7886,-4.8001,-4.8001,-4.8001,-4.8001,-4.8001,-4.8001,-4.8001,-4.8001,-4.8001,-4.8001,-4.8001,-4.7886,-4.777,-4.777,-4.7688,-4.7604,-4.7571,-4.7571,-4.7537,-4.7504,-4.752,-4.752,-4.752,-4.7549,-4.7579,-4.7579,-4.7934,-4.8142,-4.8106,-4.7729,-4.7415,-4.7114,-4.6475,-4.5708,-4.4777,-4.4573,-4.3975,-4.3023,-4.1601,-4.1019,0.0,0.0,0.0,0.0,0.0,0.0,-2.7541,-2.8506,-2.9424,0.0,0.0,0.0,0.0,0.0,0.0,0.0,0.0,-3.682,-3.824,-3.883,-3.9246,-3.9661,-3.9711,-3.9844,-4.0143,-4.0513,-4.0894,-4.1238,-4.1593,-4.1843,-4.1898,-4.1898,-4.2099,-4.2535,-4.2551,-4.2903,-4.3628,-4.3628,-4.3796,-4.4097,-4.4039,-4.3985,-4.3914,-4.4524,-4.5194,-4.5831,-4.6576,-4.7322,-4.8001,-4.8001,-4.8001,-4.8001,-4.8001,-4.8001,-4.8001,-4.8001,-4.8001,-4.8001,-4.8001,-4.7968,-4.7853,-4.7853,-4.7754,-4.7588,-4.7521,-4.7454,-4.7369,-4.7369,-4.7436,-4.7537,-4.7688,-4.7787,-4.7902,-4.7968,-4.8001,-4.8001,-4.8001,-4.7935,-4.7886,-4.7968,-4.7935,-4.7853,-4.7853,-4.7721,-4.7621,-4.7621,-4.7537,-4.747,-4.7403,-4.7369,-4.7335,-4.7251,-4.7251,-4.7217,-4.7132,-4.703,-4.6927,-4.6823,-4.7017,-4.7081,-4.7025,-4.6809,-4.6648,-4.6575,-4.6049,-4.5173,-4.3948,-4.3948,-4.327,-4.1902,-4.0944,-4.0712,0.0,0.0,0.0,0.0,0.0,0.0,-2.612,-2.7105,-2.8255,-2.9035,0.0,0.0,0.0,0.0,0.0,0.0,0.0,0.0,-3.5985,-3.642,-3.6535,-3.6535,-3.6617,-3.6911,-3.7593,-3.8366,-3.9143,-3.994,-4.079,-4.1327,-4.1448,-4.1531,-4.1598,-4.1682,-4.1682,-4.205,-4.2785,-4.2886,-4.3253,-4.3922,-4.3877,-4.3868,-4.3885,-4.4351,-4.497,-4.5715,-4.646,-4.7206,-4.7885,-4.7968,-4.8001,-4.8001,-4.8001,-4.8001,-4.8001,-4.8001,-4.8001,-4.7968,-4.7968,-4.7853,-4.7671,-4.7671,-4.7588,-4.7436,-4.7251,-4.7183,-4.7183,-4.7183,-4.7319,-4.7504,-4.7605,-4.7671,-4.7754,-4.7919,-4.7968,-4.8001,-4.7968,-4.782,-4.7754,-4.7902,-4.7787,-4.7671,-4.7671,-4.7554,-4.747,-4.747,-4.7436,-4.7369,-4.7183,-4.7183,-4.7115,-4.6911,-4.6876,-4.6807,-4.6633,-4.6582,-4.6493,-4.6298,-4.6278,-4.6207,-4.6096,-4.6076,-4.6004,-4.5807,-4.5629,-4.4724,-4.3087,-4.3016,-4.2155,-4.0489,-4.0524,-4.0746,0.0,0.0,0.0,0.0,0.0,0.0,-2.566,-2.6005,-2.6553,0.0,0.0,0.0,0.0,0.0,0.0,0.0,0.0,0.0,-3.3591,-3.4762,-3.5477,-3.5477,-3.6029,-3.6478,-3.6714,-3.6914,-3.7124,-3.7403,-3.812,-3.8558,-3.8611,-3.9111,-3.9687,-4.028,-4.0297,-4.0699,-4.1522,-4.2134,-4.2555,-4.2837,-4.3376,-4.3658,-4.3674,-4.3777,-4.4224,-4.4967,-4.5682,-4.6427,-4.7156,-4.7752,-4.8001,-4.8001,-4.8001,-4.8001,-4.8001,-4.8001,-4.7902,-4.7737,-4.7737,-4.7654,-4.7537,-4.7537,-4.7386,-4.7251,-4.7217,-4.7098,-4.6961,-4.6961,-4.7098,-4.7251,-4.7285,-4.7504,-4.7704,-4.7737,-4.7886,-4.7968,-4.7787,-4.7737,-4.7688,-4.7604,-4.7571,-4.7537,-4.7537,-4.7386,-4.7251,-4.7251,-4.7115,-4.6996,-4.6961,-4.6961,-4.6945,-4.6911,-4.6772,-4.6652,-4.6582,-4.6458,-4.6333,-4.6298,-4.6187,-4.6148,-4.6112,-4.5952,-4.5844,-4.5807,-4.4432,-4.3267,-4.2303,-4.2054,-4.1425,-4.0489,-4.0662,-4.0882,0.0,0.0,0.0,-2.5274,0.0,0.0,0.0,-2.5362,-2.5783,-2.641,0.0,0.0,0.0,0.0,0.0,0.0,0.0,0.0,-2.9673,-3.1757,-3.321,-3.321,-3.3546,-3.3941,-3.4465,-3.4804,-3.5382,-3.6338,-3.6808,-3.7047,-3.7047,-3.7699,-3.8264,-3.8738,-3.9082,-3.9661,-4.0524,-4.1292,-4.188,-4.2301,-4.3026,-4.3372,-4.3372,-4.3372,-4.3751,-4.4492,-4.5217,-4.5958,-4.6699,-4.7441,-4.7737,-4.7737,-4.782,-4.7853,-4.7853,-4.777,-4.7704,-4.7588,-4.7588,-4.7504,-4.7369,-4.7369,-4.7217,-4.7064,-4.7064,-4.6996,-4.6876,-4.6876,-4.6961,-4.7064,-4.7167,-4.7302,-4.7504,-4.7671,-4.7721,-4.7737,-4.7704,-4.7571,-4.742,-4.7352,-4.7251,-4.7217,-4.7319,-4.7183,-4.7064,-4.7064,-4.6945,-4.6876,-4.6876,-4.6876,-4.6876,-4.6876,-4.6738,-4.6563,-4.6458,-4.6314,-4.6187,-4.6187,-4.606,-4.6004,-4.6112,-4.5932,-4.5634,-4.527,-4.3905,-4.2853,-4.2084,-4.1392,-4.0843,-4.0489,-4.0593,-4.0814,0.0,0.0,0.0,0.0,0.0,-2.4859,0.0,0.0,0.0,0.0,0.0,0.0,0.0,0.0,0.0,0.0,0.0,0.0,0.0,-2.8482,0.0,-3.0438,-3.0714,-3.1182,-3.1933,-3.2635,-3.3639,-3.5043,-3.5503,-3.5727,-3.5754,-3.6529,-3.7117,-3.7432,-3.7984,-3.8702,-3.9605,-4.034,-4.1118,-4.1914,-4.2572,-4.2982,-4.3113,-4.3113,-4.3424,-4.403,-4.4767,-4.5504,-4.6241,-4.6995,-4.7389,-4.7504,-4.7621,-4.7654,-4.7654,-4.7537,-4.747,-4.7436,-4.7436,-4.7319,-4.7149,-4.7149,-4.703,-4.6876,-4.6876,-4.6876,-4.6876,-4.6876,-4.6876,-4.6927,-4.7098,-4.7183,-4.7285,-4.7538,-4.7554,-4.7504,-4.7588,-4.737,-4.7183,-4.7149,-4.6996,-4.6961,-4.7098,-4.6996,-4.6876,-4.6876,-4.6876,-4.6876,-4.6876,-4.6876,-4.6876,-4.6876,-4.6703,-4.6458,-4.6298,-4.6203,-4.6112,-4.6112,-4.5988,-4.5952,-4.6112,-4.5932,-4.546,-4.4717,-4.3717,-4.2853,-4.2084,-4.1021,-4.0489,-4.0489,-4.0524,-4.0746,0.0,0.0,0.0,0.0,-2.6291,0.0,0.0,0.0,-2.5409,-2.5984,0.0,0.0,0.0,0.0,0.0,0.0,0.0,0.0,-2.5801,-2.6081,-2.6685,-2.7705,-2.8921,-2.9834,-3.0159,-3.0968,-3.1535,-3.1734,-3.2917,-3.3683,-3.3798,-3.5058,-3.6162,-3.6946,-3.7042,-3.7568,-3.8561,-3.9291,-4.015,-4.1114,-4.1852,-4.2507,-4.3113,-4.3113,-4.3146,-4.3277,-4.3997,-4.4734,-4.5472,-4.6209,-4.693,-4.752,-4.752,-4.7504,-4.7504,-4.752,-4.7403,-4.7217,-4.7217,-4.7098,-4.6911,-4.6911,-4.6927,-4.6876,-4.6876,-4.6876,-4.6876,-4.6876,-4.6876,-4.6927,-4.6927,-4.7064,-4.7217,-4.7251,-4.7403,-4.7436,-4.7285,-4.7217,-4.7149,-4.6961,-4.6927,-4.6927,-4.6927,-4.6927,-4.6876,-4.6876,-4.6876,-4.6876,-4.6876,-4.6876,-4.6876,-4.6876,-4.658,-4.6333,-4.6298,-4.6203,-4.6112,-4.6112,-4.6187,-4.6207,-4.6096,-4.5932,-4.546,-4.4717,-4.3717,-4.2853,-4.2084,-4.1021,-4.0489,-4.0489,-4.0696,-4.0882,0.0,0.0,0.0,0.0,0.0,0.0,-2.6461,0.0,-2.5937,0.0,0.0,0.0,0.0,0.0,0.0,0.0,-2.4403,0.0,0.0,0.0,-2.4745,0.0,0.0,0.0,-2.8213,-2.9064,-2.9746,-3.0192,-3.1164,-3.1935,-3.2437,-3.3448,-3.4478,-3.5427,-3.6206,-3.6921,-3.7524,-3.8705,-3.9531,-3.9969,-4.1211,-4.191,-4.2064,-4.2486,-4.268,-4.2729,-4.3475,-4.4253,-4.5066,-4.5765,-4.6481,-4.7132,-4.7132,-4.7217,-4.7319,-4.7183,-4.7115,-4.703,-4.703,-4.6876,-4.6703,-4.658,-4.6545,-4.658,-4.6703,-4.6738,-4.6738,-4.6876,-4.6876,-4.6876,-4.6876,-4.6961,-4.7064,-4.7183,-4.7183,-4.7183,-4.7183,-4.7098,-4.6996,-4.6927,-4.6876,-4.7022,-4.7459,-4.754,-4.754,-4.754,-4.754,-4.754,-4.754,-4.7151,-4.6876,-4.6876,-4.6545,-4.6298,-4.6298,-4.608,-4.6024,-4.6187,-4.6278,-4.6243,-4.6112,-4.5932,-4.546,-4.4717,-4.3717,-4.2853,-4.2084,-4.1021,-4.0489,-4.0489,-4.0593,-4.073,-3.0823,0.0,0.0,0.0,0.0,0.0,0.0,0.0,0.0,0.0,0.0,0.0,0.0,0.0,0.0,-2.3473,0.0,-2.3113,0.0,0.0,0.0,0.0,0.0,0.0,0.0,-2.7235,-2.7891,-2.8406,-2.9294,-3.0079,-3.0655,-3.1834,-3.2951,-3.39,-3.5149,-3.6096,-3.6749,-3.7911,-3.8704,-3.9151,-4.0524,-4.1187,-4.1273,-4.198,-4.2318,-4.235,-4.288,-4.3588,-4.4413,-4.5057,-4.5801,-4.6479,-4.6673,-4.6823,-4.6927,-4.6927,-4.6892,-4.6807,-4.6807,-4.6703,-4.6493,-4.6333,-4.6298,-4.6333,-4.6458,-4.6528,-4.6563,-4.6772,-4.6807,-4.6842,-4.6892,-4.6876,-4.6927,-4.7064,-4.6996,-4.6927,-4.7098,-4.6996,-4.6876,-4.6876,-4.6876,-4.7119,-4.788,-4.801,-4.8074,-4.8269,-4.8285,-4.822,-4.8026,-4.7524,-4.7103,-4.6839,-4.6509,-4.6278,-4.6243,-4.6024,-4.6008,-4.6262,-4.6278,-4.6187,-4.6096,-4.5932,-4.5555,-4.5017,-4.3811,-4.2946,-4.2381,-4.1129,-4.0489,-4.0489,-4.0489,-4.0593,0.0,0.0,0.0,-3.113,0.0,0.0,0.0,0.0,-2.7295,0.0,0.0,0.0,0.0,-2.4514,-2.4215,-2.3423,-2.3083,0.0,0.0,0.0,0.0,0.0,0.0,0.0,0.0,-2.5627,-2.5807,-2.5822,-2.7106,-2.7955,-2.8103,-3.0242,-3.1844,-3.2718,-3.3678,-3.4904,-3.6387,-3.6578,-3.7454,-3.9006,-3.9724,-4.0428,-4.1117,-4.1789,-4.2109,-4.2109,-4.2141,-4.259,-4.3294,-4.3965,-4.4685,-4.5424,-4.6077,-4.6333,-4.6369,-4.6754,-4.6772,-4.6617,-4.6617,-4.6458,-4.6298,-4.6298,-4.6298,-4.6298,-4.6298,-4.6298,-4.6369,-4.6563,-4.6617,-4.6652,-4.6842,-4.6876,-4.6876,-4.6927,-4.6911,-4.6876,-4.6927,-4.6911,-4.6876,-4.6876,-4.6876,-4.7119,-4.788,-4.801,-4.8236,-4.8848,-4.8961,-4.8719,-4.8091,-4.7993,-4.7615,-4.6698,-4.6423,-4.6243,-4.6112,-4.6112,-4.6168,-4.6298,-4.6187,-4.6096,-4.6112,-4.5932,-4.5807,-4.5776,-4.4078,-4.3196,-4.3165,-4.1361,-4.0489,-4.0489,-4.0489,-4.0593,-3.3333,-3.2688,-3.2133,-3.1597,-3.1124,-3.0779,0.0,0.0,0.0,0.0,0.0,0.0,0.0,-2.4835,-2.4139,-2.3437,-2.3045,-2.2595,0.0,0.0,0.0,0.0,0.0,0.0,0.0,0.0,-2.4107,-2.4604,-2.5936,-2.7006,-2.7565,-2.8919,-3.0266,-3.1542,-3.2523,-3.3752,-3.5266,-3.598,-3.6819,-3.7826,-3.8628,-3.9311,-3.9961,-4.0753,-4.1357,-4.1785,-4.1915,-4.2444,-4.3262,-4.3933,-4.4637,-4.5357,-4.6026,-4.6298,-4.6314,-4.6439,-4.6474,-4.6404,-4.6314,-4.6223,-4.6168,-4.6008,-4.5972,-4.5972,-4.6132,-4.6168,-4.6187,-4.6369,-4.6388,-4.6474,-4.6633,-4.6687,-4.6738,-4.6876,-4.6876,-4.6876,-4.6876,-4.6876,-4.6876,-4.6876,-4.6807,-4.6945,-4.7687,-4.7709,-4.8095,-4.9528,-4.9742,-4.9463,-4.8623,-4.8123,-4.7435,-4.6503,-4.6243,-4.6168,-4.6096,-4.6112,-4.6096,-4.6152,-4.6148,-4.6112,-4.6112,-4.5932,-4.5807,-4.5807,-4.4094,-4.3212,-4.3212,-4.1376,-4.0489,-4.0489,-4.0489,-4.0524,-3.4878,-3.4375,-3.3857,-3.3299,-3.2661,-3.2119,-3.1994,-3.1017,-3.0086,0.0,0.0,0.0,0.0,-2.5538,-2.4479,-2.3769,-2.3138,-2.2388,0.0,-2.0401,0.0,0.0,0.0,0.0,0.0,0.0,-2.2684,-2.3157,-2.4528,-2.5668,-2.648,-2.7607,-2.8948,-3.0461,-3.146,-3.2693,-3.4264,-3.5192,-3.6041,-3.6789,-3.7821,-3.8622,-3.9218,-4.0037,-4.0793,-4.1439,-4.157,-4.1972,-4.2614,-4.3518,-4.4254,-4.4833,-4.5769,-4.6136,-4.6136,-4.6278,-4.6278,-4.6223,-4.606,-4.5988,-4.5952,-4.5844,-4.5807,-4.5807,-4.5952,-4.5988,-4.604,-4.6187,-4.6207,-4.6278,-4.6474,-4.6493,-4.6528,-4.6649,-4.6684,-4.6684,-4.6684,-4.6684,-4.6684,-4.6684,-4.6563,-4.6734,-4.7473,-4.7493,-4.7862,-4.9328,-4.9542,-4.9211,-4.8409,-4.7891,-4.7257,-4.6323,-4.6168,-4.6076,-4.5988,-4.5988,-4.5988,-4.5988,-4.5988,-4.5988,-4.5988,-4.588,-4.5771,-4.5698,-4.4293,-4.341,-4.3105,-4.1604,-4.0735,-4.0436,-4.0436,-4.0401]}]]